[[{"header":{"parameterUnit":"m.s-1","parameterCategory":1,"la1":30.6,"la2":29.2853,"lo1":-89.7004,"lo2":-87.6739,"dy":0.0162,"dx":0.0183,"nx":112,"ny":82,"refTime":"2024-07-23T06:00:00:Z","depth":0,"parameterNumber":2,"parameterNumberName":"U-component_of_WINDS"},"data":[0.0,0.0,0.0,0.0,0.0,0.0,0.0,0.0,0.0,0.0,0.0,0.0,0.0,0.0,0.0,0.0,0.0,0.0,0.0,0.0,0.0,0.0,0.0,0.0,0.0,0.0,0.0,0.0,0.0,0.0,0.0,0.0,0.0,0.0,0.0,0.0,0.0,0.0,0.0,0.0,0.0,0.0,0.0,0.0,0.0,0.0,0.0,0.0,0.0,0.0,0.0,0.0,0.0,0.0,0.0,0.0,0.0,0.0,0.0,0.0,0.0,0.0,0.0,0.0,0.0,0.0,0.0,0.0,0.0,0.0,0.0,0.0,0.0,0.0,0.0,0.0,0.0,0.0,0.0,0.0,0.0,0.0,0.0,0.0,0.0,0.0,0.0,0.0,0.0,0.0,-1.0226,-1.2248,-1.4805,-1.6417,-1.6536,-1.6242,-1.5019,-1.2591,0.0,0.0,0.0,0.0,0.0,0.0,0.0,0.0,0.0,0.0,0.0,0.0,0.0,0.0,0.0,0.0,0.0,0.0,0.0,0.0,0.0,0.0,0.0,0.0,0.0,0.0,0.0,0.0,0.0,0.0,0.0,0.0,0.0,0.0,0.0,0.0,0.0,0.0,0.0,0.0,0.0,0.0,0.0,0.0,0.0,0.0,0.0,0.0,0.0,0.0,0.0,0.0,0.0,0.0,0.0,0.0,0.0,0.0,0.0,0.0,0.0,0.0,0.0,0.0,0.0,0.0,0.0,0.0,0.0,0.0,0.0,0.0,0.0,0.0,0.0,0.0,0.0,0.0,0.0,0.0,0.0,0.0,0.0,0.0,0.0,0.0,0.0,0.0,0.0,0.0,0.0,0.0,0.0,0.0,0.0,0.0,0.0,0.0,0.0,0.0,0.0,0.0,0.0,0.0,-1.0966,-1.4204,-1.6102,-1.7142,-1.7166,-1.6044,-1.4695,-1.3159,0.0,0.0,0.0,0.0,0.0,0.0,0.0,0.0,0.0,0.0,0.0,0.0,0.0,0.0,0.0,0.0,0.0,0.0,0.0,0.0,0.0,0.0,0.0,0.0,0.0,0.0,0.0,0.0,0.0,0.0,0.0,0.0,0.0,0.0,0.0,0.0,0.0,0.0,0.0,0.0,0.0,0.0,0.0,0.0,0.0,0.0,0.0,0.0,0.0,0.0,0.0,0.0,0.0,0.0,0.0,0.0,0.0,0.0,0.0,0.0,0.0,0.0,0.0,0.0,0.0,0.0,0.0,0.0,0.0,0.0,0.0,0.0,0.0,0.0,0.0,0.0,0.0,0.0,0.0,0.0,0.0,0.0,0.0,0.0,0.0,0.0,0.0,0.0,0.0,0.0,0.0,0.0,0.0,0.0,0.0,0.0,0.0,0.0,0.0,0.0,0.0,0.0,0.0,-1.0311,-1.2137,-1.4584,-1.614,-1.7129,-1.7334,-1.6022,-1.4608,-1.3229,-1.1821,0.0,0.0,0.0,0.0,0.0,0.0,0.0,0.0,0.0,0.0,0.0,0.0,0.0,0.0,0.0,0.0,0.0,0.0,0.0,0.0,0.0,0.0,0.0,0.0,0.0,0.0,0.0,0.0,0.0,0.0,0.0,0.0,0.0,0.0,0.0,0.0,0.0,0.0,0.0,0.0,0.0,0.0,0.0,0.0,0.0,0.0,0.0,0.0,0.0,0.0,0.0,0.0,0.0,0.0,0.0,0.0,0.0,0.0,0.0,0.0,0.0,0.0,0.0,0.0,0.0,0.0,0.0,0.0,0.0,0.0,0.0,0.0,0.0,0.0,0.0,0.0,0.0,0.0,0.0,0.0,0.0,0.0,0.0,0.0,0.0,0.0,0.0,0.0,0.0,0.0,0.0,0.0,0.0,0.0,0.0,0.0,0.0,0.0,0.0,0.0,0.0,0.0,-1.1944,-1.3183,-1.4548,-1.602,-1.7013,-1.7322,-1.5863,-1.4387,-1.313,-1.0939,0.0,0.0,0.0,0.0,0.0,0.0,0.0,0.0,0.0,0.0,0.0,0.0,0.0,0.0,0.0,0.0,0.0,0.0,0.0,0.0,0.0,0.0,0.0,0.0,0.0,0.0,0.0,0.0,0.0,0.0,0.0,0.0,0.0,0.0,0.0,0.0,0.0,0.0,0.0,0.0,0.0,0.0,0.0,0.0,0.0,0.0,0.0,0.0,0.0,0.0,0.0,0.0,0.0,0.0,0.0,0.0,0.0,0.0,0.0,0.0,0.0,0.0,0.0,0.0,0.0,0.0,0.0,0.0,0.0,0.0,0.0,0.0,0.0,0.0,0.0,0.0,0.0,0.0,0.0,0.0,0.0,0.0,0.0,0.0,0.0,0.0,0.0,0.0,0.0,0.0,0.0,0.0,0.0,0.0,0.0,0.0,0.0,0.0,0.0,0.0,0.0,0.0,-1.2183,-1.3754,-1.4612,-1.6172,-1.7186,-1.7199,-1.5283,-1.375,-1.2969,-1.0323,0.0,0.0,0.0,0.0,0.0,0.0,0.0,0.0,0.0,0.0,0.0,0.0,0.0,0.0,0.0,0.0,0.0,0.0,0.0,0.0,0.0,0.0,0.0,0.0,0.0,0.0,0.0,0.0,0.0,0.0,0.0,0.0,0.0,0.0,0.0,0.0,0.0,0.0,0.0,0.0,0.0,0.0,0.0,0.0,0.0,0.0,0.0,0.0,0.0,0.0,0.0,0.0,0.0,0.0,0.0,0.0,0.0,0.0,0.0,0.0,0.0,0.0,0.0,0.0,0.0,0.0,0.0,0.0,0.0,0.0,0.0,0.0,0.0,0.0,0.0,0.0,0.0,0.0,0.0,0.0,0.0,0.0,0.0,0.0,0.0,0.0,0.0,0.0,0.0,0.0,0.0,0.0,0.0,0.0,0.0,0.0,0.0,0.0,0.0,0.0,0.0,0.0,-1.1877,-1.3363,-1.4123,-1.5697,-1.6717,-1.6769,-1.5399,-1.4043,-1.2844,0.0,0.0,0.0,0.0,0.0,0.0,0.0,0.0,0.0,0.0,0.0,0.0,0.0,0.0,0.0,0.0,0.0,0.0,0.0,0.0,0.0,0.0,0.0,0.0,0.0,0.0,0.0,0.0,0.0,0.0,0.0,0.0,0.0,0.0,0.0,0.0,0.0,0.0,0.0,0.0,0.0,0.0,0.0,0.0,0.0,0.0,0.0,0.0,0.0,0.0,0.0,0.0,0.0,0.0,0.0,0.0,0.0,0.0,0.0,0.0,0.0,0.0,0.0,0.0,0.0,0.0,0.0,0.0,0.0,0.0,0.0,0.0,0.0,0.0,0.0,0.0,0.0,0.0,0.0,0.0,0.0,0.0,0.0,0.0,0.0,0.0,0.0,0.0,0.0,0.0,0.0,0.0,0.0,0.0,0.0,0.0,0.0,0.0,0.0,0.0,0.0,0.0,-0.9789,-1.182,-1.332,-1.3836,-1.5373,-1.6343,-1.6252,-1.5164,-1.3901,-1.253,0.0,0.0,0.0,0.0,0.0,0.0,0.0,0.0,0.0,0.0,0.0,0.0,0.0,0.0,0.0,0.0,0.0,0.0,0.0,0.0,0.0,0.0,0.0,0.0,0.0,0.0,0.0,0.0,0.0,0.0,0.0,0.0,0.0,0.0,0.0,0.0,0.0,0.0,0.0,0.0,0.0,0.0,0.0,0.0,0.0,0.0,0.0,0.0,0.0,0.0,0.0,0.0,0.0,0.0,0.0,0.0,0.0,0.0,0.0,0.0,0.0,0.0,0.0,0.0,0.0,0.0,0.0,0.0,0.0,0.0,0.0,0.0,0.0,0.0,0.0,0.0,0.0,0.0,0.0,0.0,0.0,0.0,0.0,0.0,0.0,0.0,0.0,0.0,0.0,0.0,0.0,0.0,0.0,0.0,0.0,0.0,0.0,0.0,0.0,0.0,0.0,0.0,-0.9638,-1.2152,-1.3825,-1.3882,-1.5334,-1.6126,-1.5722,-1.4401,-1.3127,0.0,0.0,0.0,0.0,0.0,0.0,0.0,0.0,0.0,0.0,0.0,0.0,0.0,0.0,0.0,0.0,0.0,0.0,0.0,0.0,0.0,0.0,0.0,0.0,0.0,0.0,0.0,0.0,0.0,0.0,0.0,0.0,0.0,0.0,0.0,0.0,0.0,0.0,0.0,0.0,0.0,0.0,0.0,0.0,0.0,0.0,0.0,0.0,0.0,0.0,0.0,0.0,0.0,0.0,0.0,0.0,0.0,0.0,0.0,0.0,0.0,0.0,0.0,0.0,0.0,0.0,0.0,0.0,0.0,0.0,0.0,0.0,0.0,0.0,0.0,0.0,0.0,0.0,0.0,0.0,0.0,0.0,0.0,0.0,0.0,0.0,0.0,0.0,0.0,0.0,0.0,0.0,0.0,0.0,0.0,0.0,0.0,0.0,0.0,0.0,0.0,0.0,0.0,-0.9758,-1.2078,-1.3602,-1.3612,-1.5068,-1.5747,-1.5053,-1.4481,-1.3394,-1.1596,0.0,0.0,0.0,0.0,0.0,0.0,0.0,0.0,0.0,0.0,0.0,0.0,0.0,0.0,0.0,0.0,0.0,0.0,0.0,0.0,0.0,0.0,0.0,0.0,0.0,0.0,0.0,0.0,0.0,0.0,0.0,0.0,0.0,0.0,0.0,0.0,0.0,0.0,0.0,0.0,0.0,0.0,0.0,0.0,0.0,0.0,0.0,0.0,0.0,0.0,0.0,0.0,0.0,0.0,0.0,0.0,0.0,0.0,0.0,0.0,0.0,0.0,0.0,0.0,0.0,0.0,0.0,0.0,0.0,0.0,0.0,0.0,0.0,0.0,0.0,0.0,0.0,0.0,0.0,0.0,0.0,0.0,0.0,0.0,0.0,0.0,0.0,0.0,0.0,0.0,0.0,0.0,0.0,0.0,0.0,0.0,0.0,0.0,0.0,0.0,0.0,0.0,-0.9665,-1.1958,-1.3459,-1.3459,-1.4781,-1.5294,-1.4413,-1.4254,-1.3264,-1.104,0.0,0.0,0.0,0.0,0.0,0.0,0.0,0.0,0.0,0.0,0.0,0.0,0.0,0.0,0.0,0.0,0.0,0.0,0.0,0.0,0.0,0.0,0.0,0.0,0.0,0.0,0.0,0.0,0.0,0.0,0.0,0.0,0.0,0.0,0.0,0.0,0.0,0.0,0.0,0.0,0.0,0.0,0.0,0.0,0.0,0.0,0.0,0.0,0.0,0.0,0.0,0.0,0.0,0.0,0.0,0.0,0.0,0.0,0.0,0.0,0.0,0.0,0.0,0.0,0.0,0.0,0.0,0.0,0.0,0.0,0.0,0.0,0.0,0.0,0.0,0.0,0.0,0.0,0.0,0.0,0.0,0.0,0.0,0.0,0.0,0.0,0.0,0.0,0.0,0.0,0.0,0.0,0.0,0.0,0.0,0.0,0.0,0.0,0.0,0.0,0.0,0.0,-0.953,-1.1864,-1.3409,-1.3481,-1.4573,-1.4877,-1.3859,-1.3853,-1.2898,-1.0549,0.0,0.0,0.0,0.0,0.0,0.0,0.0,0.0,0.0,0.0,0.0,0.0,0.0,0.0,0.0,0.0,0.0,0.0,0.0,0.0,0.0,0.0,0.0,0.0,0.0,0.0,0.0,0.0,0.0,0.0,0.0,0.0,0.0,0.0,0.0,0.0,0.0,0.0,0.0,0.0,0.0,0.0,0.0,0.0,0.0,0.0,0.0,0.0,0.0,0.0,0.0,0.0,0.0,0.0,0.0,0.0,0.0,0.0,0.0,0.0,-0.6624,-0.5933,0.0,0.0,0.0,0.0,0.0,0.0,0.0,0.0,0.0,0.0,0.0,0.0,0.0,0.0,0.0,0.0,0.0,0.0,0.0,0.0,0.0,0.0,0.0,0.0,0.0,0.0,0.0,0.0,0.0,0.0,0.0,0.0,0.0,0.0,0.0,0.0,0.0,0.0,0.0,0.0,-1.0279,-1.2173,-1.3583,-1.4065,-1.4819,-1.4834,-1.3668,-1.378,-1.31,-1.12,-1.0065,0.0,0.0,0.0,0.0,0.0,0.0,0.0,0.0,0.0,0.0,0.0,0.0,0.0,0.0,0.0,0.0,0.0,0.0,0.0,0.0,0.0,0.0,0.0,0.0,0.0,0.0,0.0,0.0,0.0,0.0,0.0,0.0,0.0,0.0,0.0,0.0,0.0,0.0,0.0,0.0,0.0,0.0,0.0,0.0,0.0,0.0,0.0,0.0,0.0,0.0,0.0,0.0,0.0,0.0,0.0,0.0,0.0,0.0,0.0,-0.9517,-0.8566,0.0,0.0,0.0,0.0,0.0,0.0,0.0,0.0,0.0,0.0,0.0,0.0,0.0,0.0,0.0,0.0,0.0,0.0,0.0,0.0,0.0,0.0,0.0,0.0,0.0,0.0,0.0,0.0,0.0,0.0,0.0,0.0,0.0,0.0,0.0,0.0,0.0,0.0,0.0,0.0,-1.0395,-1.2237,-1.3641,-1.4239,-1.4892,-1.4805,-1.3563,-1.3614,-1.2942,-1.1136,-1.0424,0.0,0.0,0.0,0.0,0.0,0.0,0.0,0.0,0.0,0.0,0.0,0.0,0.0,0.0,0.0,0.0,0.0,0.0,0.0,0.0,0.0,0.0,0.0,0.0,0.0,0.0,0.0,0.0,0.0,0.0,0.0,0.0,0.0,0.0,0.0,0.0,0.0,0.0,0.0,0.0,0.0,0.0,0.0,0.0,0.0,0.0,0.0,0.0,0.0,0.0,0.0,0.0,0.0,-1.495,-1.5194,-1.5194,-1.5194,-1.5057,-1.4722,-1.2779,-1.1562,-1.0899,-1.0899,0.0,0.0,0.0,0.0,0.0,0.0,0.0,0.0,0.0,0.0,0.0,0.0,0.0,0.0,0.0,0.0,0.0,0.0,0.0,0.0,0.0,0.0,-1.0132,-1.008,-1.0412,-1.0451,-0.9417,0.0,0.0,0.0,0.0,0.0,0.0,0.0,0.0,0.0,0.0,0.0,-1.0566,-1.24,-1.3788,-1.4399,-1.4964,-1.4834,-1.3656,-1.3532,-1.2817,-1.1192,-1.0912,-1.0206,0.0,0.0,0.0,0.0,0.0,0.0,0.0,0.0,0.0,0.0,0.0,0.0,0.0,0.0,0.0,0.0,0.0,0.0,0.0,0.0,0.0,0.0,0.0,0.0,0.0,0.0,0.0,0.0,0.0,0.0,0.0,0.0,-0.5298,-0.3257,0.0,0.0,0.0,0.0,0.0,0.0,0.0,0.0,0.0,0.0,0.0,0.0,0.0,-1.219,-1.4515,-1.5417,-1.6248,-1.705,-1.9552,-2.0737,-2.0737,-2.0737,-2.0082,-1.8906,-1.8601,0.0,-1.333,-1.333,0.0,0.0,0.0,0.0,0.0,0.0,0.0,0.0,0.0,0.0,0.0,0.0,0.0,0.0,0.0,0.0,0.0,0.0,0.0,0.0,0.0,0.0,-1.3421,-1.326,-1.3387,-1.3488,-1.3203,-1.1055,-0.9022,-0.8525,-0.8113,-0.76,0.0,0.0,0.0,0.0,0.0,0.0,-1.1629,-1.318,-1.4428,-1.5095,-1.524,-1.5008,-1.4253,-1.3768,-1.326,-1.2656,-1.1744,-1.1226,-1.1236,-0.9541,0.0,0.0,0.0,0.0,0.0,0.0,0.0,0.0,0.0,0.0,0.0,0.0,0.0,0.0,0.0,0.0,0.0,0.0,0.0,0.0,0.0,0.0,0.0,0.0,0.0,0.0,0.0,0.0,0.0,-0.6055,-0.7534,-0.7421,-0.7996,-0.8374,0.0,0.0,0.0,0.0,0.0,0.0,0.0,0.0,0.0,-1.439,-1.6349,-1.7971,-1.9167,-1.967,-1.9923,-1.9939,-2.1199,-2.1812,-2.1812,-2.1812,-2.1462,-2.0878,-2.0878,-1.9909,-1.8129,-1.5853,-1.4311,-1.3153,0.0,0.0,0.0,0.0,-0.9633,-1.4215,-1.4215,-1.492,-1.5913,-1.6543,0.0,0.0,0.0,0.0,0.0,0.0,0.0,-1.2479,-1.3119,-1.3911,-1.4561,-1.4519,-1.4532,-1.4532,-1.4481,-1.3392,-1.1984,-1.0448,-0.9862,-0.9176,-0.7762,-0.8037,0.0,0.0,0.0,-1.1399,-1.264,-1.3678,-1.4558,-1.5225,-1.5298,-1.5022,-1.4355,-1.3771,-1.3245,-1.2763,-1.1949,-1.1423,-1.1308,-1.0448,-0.9526,0.0,0.0,0.0,0.0,0.0,0.0,0.0,0.0,0.0,0.0,0.0,0.0,0.0,0.0,0.0,0.0,0.0,0.0,0.0,0.0,0.0,0.0,0.0,0.0,0.0,0.0,0.0,0.0,-0.7739,-0.9686,-1.101,-1.1308,-1.1427,0.0,0.0,0.0,0.0,0.0,0.0,-2.2478,-2.3273,-2.1879,-1.8394,-2.085,-2.2099,-2.1796,-2.2084,-2.2084,-2.1812,-2.1812,-2.1812,-2.1812,-2.1812,-2.1812,-2.1812,-2.1812,-2.1812,-2.1571,-1.8577,-1.7339,-1.7136,-1.5136,-1.3019,-1.108,-1.108,-1.3737,-1.7339,-1.7339,-1.7339,-1.7468,-1.832,-1.9558,-2.0304,-1.8149,0.0,0.0,0.0,0.0,-1.549,-1.5328,-1.5466,-1.5685,-1.5749,-1.5646,-1.5476,-1.5371,-1.5139,-1.4349,-1.2333,-1.1818,-1.1143,-0.9293,-0.9729,0.0,-0.9597,-1.0831,-1.2156,-1.3149,-1.387,-1.4513,-1.5119,-1.5162,-1.4991,-1.4602,-1.3991,-1.3404,-1.2849,-1.2281,-1.173,-1.1307,-1.1182,-1.0536,-0.9271,0.0,0.0,0.0,0.0,0.0,0.0,0.0,0.0,0.0,0.0,0.0,0.0,0.0,0.0,0.0,0.0,0.0,0.0,0.0,0.0,0.0,0.0,0.0,0.0,0.0,0.0,0.0,0.0,0.0,-1.2558,-1.3689,0.0,0.0,0.0,0.0,-1.2886,-1.6246,-1.9162,-2.1126,-2.2667,-2.2528,-2.0425,-2.2353,-2.2892,-2.1796,-2.2867,-2.2867,-2.1812,-2.1812,-2.1812,-2.1812,-2.1812,-2.1812,-2.1812,-2.1812,-2.1812,-2.1781,-2.1587,-2.1507,-2.1475,-2.1356,-2.1207,-2.1075,-2.1075,-2.1259,-2.1507,-2.1507,-2.1507,-2.1507,-2.1582,-1.9823,-1.7685,-1.7536,-1.9283,0.0,0.0,-1.9192,-1.8714,-1.8066,-1.7838,-1.7723,-1.7597,-1.7369,-1.7068,-1.6693,-1.5798,-1.4858,-1.4099,-1.3941,-1.3452,-1.1876,0.0,-1.1372,-1.0957,-1.1565,-1.2282,-1.2861,-1.3724,-1.4436,-1.4793,-1.4839,-1.4949,-1.5239,-1.4631,-1.4019,-1.3485,-1.3065,-1.2598,-1.2071,-1.1502,-1.1292,-1.1528,-0.935,0.0,0.0,0.0,0.0,0.0,0.0,0.0,0.0,0.0,0.0,0.0,0.0,0.0,0.0,0.0,0.0,0.0,0.0,0.0,0.0,0.0,0.0,0.0,0.0,0.0,0.0,0.0,0.0,-1.5021,-1.671,0.0,-1.758,-1.5946,-1.5324,-1.6367,-1.9779,-2.2061,-2.2613,-2.3184,-2.3169,-2.2446,-2.3134,-2.3295,-2.2892,-2.3295,-2.3295,-2.2892,-2.3322,-2.3538,-2.3516,-2.3087,-2.2892,-2.2892,-2.2892,-2.2892,-2.2892,-2.2892,-2.2456,-2.1812,-2.1812,-2.1812,-2.1812,-2.1812,-2.1812,-2.1899,-2.2647,-2.2892,-2.2803,-2.2287,-2.1432,-2.0589,-2.0589,-2.1172,-2.1706,-2.1197,-2.0719,-2.0241,-1.9558,-1.912,-1.8783,-1.8474,-1.8072,-1.7632,-1.7173,-1.6754,-1.6303,-1.5746,-1.4888,-1.3902,-1.2889,-1.3271,-1.3487,-1.2835,-1.3581,-1.4248,-1.4309,-1.4617,-1.4737,-1.4488,-1.4493,-1.462,-1.4948,-1.4367,-1.3841,-1.3516,-1.2994,-1.2447,-1.1867,-1.1675,-1.1311,-1.0689,-0.9937,-0.9032,0.0,0.0,0.0,0.0,0.0,0.0,0.0,0.0,0.0,0.0,0.0,0.0,0.0,0.0,0.0,0.0,0.0,0.0,0.0,0.0,0.0,0.0,0.0,0.0,0.0,-1.424,-1.6282,-1.6959,-1.8867,-1.9818,-1.9087,-1.8287,-1.8278,-1.9325,-2.217,-2.3743,-2.3517,-2.3505,-2.3505,-2.3505,-2.3732,-2.3831,-2.3831,-2.3831,-2.3831,-2.3842,-2.4401,-2.4674,-2.4647,-2.4211,-2.3858,-2.3611,-2.3522,-2.3533,-2.3611,-2.3539,-2.306,-2.2361,-2.2361,-2.2361,-2.2361,-2.2361,-2.2361,-2.2483,-2.3324,-2.3594,-2.3515,-2.298,-2.2575,-2.2296,-2.2296,-2.2063,-2.1812,-2.1812,-2.1586,-2.115,-2.0351,-1.9889,-1.9549,-1.9022,-1.8574,-1.8133,-1.7666,-1.7469,-1.731,-1.6997,-1.5919,-1.4823,-1.4169,-1.4797,-1.5165,-1.4432,-1.509,-1.5611,-1.55,-1.5463,-1.5301,-1.482,-1.467,-1.4699,-1.4947,-1.4249,-1.3799,-1.377,-1.3027,-1.2426,-1.2014,-1.1661,-1.1152,-1.0476,-1.0448,-0.9697,-0.818,0.0,0.0,0.0,0.0,0.0,0.0,0.0,0.0,0.0,0.0,0.0,0.0,0.0,0.0,0.0,0.0,0.0,0.0,0.0,0.0,0.0,0.0,0.0,-1.5523,-1.6241,-1.7534,-1.833,-2.0066,-2.0916,-2.0205,-2.1089,-2.1689,-2.1689,-2.3434,-2.4228,-2.3573,-2.3539,-2.3539,-2.3539,-2.4153,-2.4508,-2.4517,-2.4517,-2.4517,-2.4525,-2.485,-2.5003,-2.5003,-2.5003,-2.4575,-2.3827,-2.3627,-2.366,-2.3827,-2.3627,-2.3544,-2.3544,-2.3499,-2.3505,-2.3505,-2.3505,-2.3505,-2.3522,-2.3739,-2.3806,-2.3806,-2.3806,-2.3146,-2.2352,-2.2352,-2.2092,-2.1812,-2.1812,-2.1812,-2.1554,-2.0515,-2.0243,-2.0052,-1.9347,-1.9011,-1.8731,-1.8243,-1.7981,-1.7828,-1.7808,-1.711,-1.6367,-1.586,-1.6143,-1.6244,-1.5654,-1.5958,0.0,-1.6236,-1.6218,-1.6096,-1.5747,-1.5426,-1.5241,-1.531,-1.4425,-1.3983,-1.4254,-1.3238,-1.2623,-1.2594,-1.1465,-1.0946,-1.1202,-1.0863,-1.0312,-0.9502,0.0,0.0,0.0,0.0,0.0,0.0,0.0,0.0,0.0,0.0,0.0,0.0,0.0,0.0,0.0,0.0,0.0,0.0,0.0,0.0,0.0,-1.9426,-2.2031,-1.7286,-1.877,-2.0671,-2.1474,-2.2617,-2.327,-2.306,-2.3437,-2.3691,-2.3691,-2.4205,-2.4411,-2.4229,-2.4238,-2.4238,-2.4238,-2.4393,-2.4626,-2.4865,-2.4865,-2.4865,-2.4865,-2.4969,-2.5003,-2.5003,-2.5003,-2.4875,-2.4673,-2.4599,-2.4626,-2.4665,-2.4618,-2.4602,-2.4518,-2.3782,-2.3505,-2.3505,-2.3505,-2.3505,-2.3522,-2.3739,-2.3806,-2.3806,-2.3806,-2.3606,-2.3393,-2.3393,-2.2634,-2.1812,-2.1812,-2.1812,-2.1736,-2.1447,-2.1182,-2.0958,-2.0746,-2.0396,-1.9914,-1.9144,-1.8854,-1.8564,-1.7914,-1.7605,-1.7388,-1.7249,-1.7324,-1.7364,-1.7189,-1.728,-1.7229,-1.6831,-1.6777,-1.6601,-1.6109,-1.5984,-1.5841,-1.5596,-1.5336,-1.4735,-1.3716,-1.3401,-1.3069,-1.2623,-1.1863,-1.1424,-1.1352,-1.0921,-1.0378,0.0,0.0,0.0,0.0,0.0,0.0,0.0,0.0,0.0,0.0,0.0,0.0,0.0,0.0,0.0,0.0,0.0,0.0,0.0,0.0,0.0,0.0,-2.2479,-2.3521,-2.0704,-2.135,-2.2392,-2.3203,-2.3822,-2.4201,-2.4201,-2.4384,-2.45,-2.45,-2.45,-2.45,-2.45,-2.45,-2.45,-2.45,-2.5838,-2.6783,-2.7262,-2.7268,-2.73,-2.7341,-2.7341,-2.6608,-2.5206,-2.5063,-2.5003,-2.5003,-2.5003,-2.5003,-2.5003,-2.5003,-2.5003,-2.4943,0.0,0.0,0.0,0.0,-2.4126,-2.4145,-2.4265,-2.4301,-2.4256,-2.3901,-2.3806,-2.3806,-2.3806,-2.3265,-2.2621,-2.2537,-2.2169,-2.1812,-2.1812,-2.1663,-2.1449,-2.1167,-2.0729,-2.0243,-1.9737,-1.9398,-1.9029,-1.8539,-1.8383,0.0,-1.8344,-1.8206,-1.8088,-1.8088,-1.8246,-1.8238,-1.7927,-1.7871,-1.7665,-1.7098,-1.6888,-1.6547,-1.5964,-1.5538,0.0,0.0,0.0,-1.3115,-1.2264,-1.2032,0.0,0.0,0.0,0.0,0.0,0.0,0.0,0.0,-1.1618,-1.166,0.0,0.0,0.0,0.0,0.0,0.0,0.0,0.0,0.0,0.0,0.0,0.0,0.0,0.0,0.0,0.0,-2.45,-2.45,-2.45,-2.3621,-2.3261,-2.3964,-2.4154,-2.4229,-2.4229,-2.4402,-2.45,-2.45,-2.45,-2.4667,-2.5039,-2.5057,0.0,0.0,0.0,-2.9691,-3.0273,-3.0355,-3.0461,-3.0579,-3.0593,-2.8974,-2.5989,-2.5697,-2.5553,-2.5553,-2.5553,-2.5587,-2.5634,-2.5574,-2.5453,-2.529,-2.5074,-2.5003,-2.5003,-2.5003,-2.5003,-2.5003,-2.5003,0.0,0.0,-2.4069,-2.3806,-2.3806,-2.3806,-2.3806,-2.3753,-2.3571,-2.2708,-2.1857,-2.1812,-2.1812,-2.1646,-2.1055,-2.0596,-2.0291,-2.0206,-1.9836,-1.949,-1.9417,-1.9325,-1.9217,-1.9217,-1.886,-1.8572,-1.8572,-1.886,-1.9101,-1.9101,-1.9101,-1.8898,-1.8361,-1.7977,0.0,-1.655,-1.5614,-1.5152,-1.5343,-1.429,-1.3146,-1.2004,-1.2373,-1.2572,-1.2463,-1.2748,-1.3579,-1.4973,-1.5186,-1.5426,-1.5649,-1.3981,-1.3938,0.0,0.0,0.0,0.0,0.0,0.0,0.0,0.0,0.0,0.0,0.0,0.0,0.0,0.0,0.0,-2.4286,-2.45,-2.45,-2.45,-2.4308,-2.4235,-2.4375,-2.4438,-2.4437,-2.4437,-2.4482,-2.45,-2.45,-2.45,-2.5652,-2.831,-2.8459,-2.8459,-2.8459,-2.9072,-2.946,-2.9589,-3.0126,-3.0416,-3.0439,-3.0554,0.0,-2.9045,-2.8988,-2.8949,-2.8949,-2.8949,-2.9178,-2.9494,-2.9122,-2.8272,-2.712,-2.5596,-2.5003,-2.5003,-2.5003,-2.5003,-2.5003,-2.5003,-2.5003,-2.4868,-2.4069,-2.3806,-2.3806,-2.3806,-2.3806,0.0,-2.3742,-2.3,-2.2152,-2.1871,-2.1812,-2.1783,-2.1631,-2.154,-2.137,-2.0991,-2.078,-2.0565,-2.0193,-2.0037,-1.9982,-1.9982,-1.9442,-1.8988,-1.8988,-1.9045,-1.9101,-1.9101,-1.9101,-1.9058,-1.8941,-1.8857,-1.8651,-1.8259,-1.732,-1.6435,-1.5742,-1.5089,-1.4369,-1.3588,-1.4597,-1.4829,-1.407,-1.4534,-1.4808,-1.4848,-1.5144,-1.5622,-1.6231,-1.5435,-1.5436,0.0,0.0,0.0,0.0,0.0,0.0,0.0,0.0,0.0,0.0,0.0,-1.6862,-1.6555,0.0,-2.3209,-2.4314,-2.45,-2.45,-2.45,-2.45,-2.45,-2.45,-2.45,-2.45,-2.45,-2.45,-2.4834,-2.5652,-2.6488,-2.7678,-2.9304,-2.9396,-2.948,-2.9636,-2.9664,-2.956,-2.9407,-3.0068,-3.0234,-2.9894,-3.0311,-3.0202,-2.9645,-2.9645,-2.9645,-2.9664,-3.0007,-3.0323,-3.0525,-2.9659,-2.8868,-2.8073,-2.6879,-2.6345,-2.6254,-2.6254,-2.6254,-2.6122,-2.5288,-2.5003,-2.4896,-2.4301,-2.4668,-2.5162,-2.4114,-2.3806,-2.3785,-2.3761,-2.3336,-2.2825,-2.2443,-2.2226,-2.2073,-2.2027,-2.1781,-2.1479,-2.1261,-2.0991,-2.073,-2.0448,-2.0313,-2.0244,-2.0208,-1.9894,-1.966,-1.966,-1.966,-1.9588,-1.942,-1.9398,-1.9325,-1.912,-1.9288,-1.9209,-1.8751,-1.8123,-1.7391,-1.6558,-1.6471,-1.5926,-1.4758,-1.5503,-1.5741,-1.5259,-1.551,-1.5829,-1.6151,-1.632,-1.6586,-1.6951,-1.6686,-1.6744,0.0,0.0,0.0,0.0,0.0,0.0,0.0,0.0,-1.8011,-1.8578,-1.89,-1.9563,-2.1066,-2.1607,-2.2412,-2.4221,-2.4491,-2.4482,-2.45,-2.45,-2.4517,-2.4541,-2.4525,-2.4574,-2.4797,-2.5054,-2.5834,-2.7363,-2.8726,-2.951,-2.951,-2.951,-2.9626,-2.9886,-2.9958,-2.988,-2.9608,-3.0126,-3.0126,-2.9598,-3.014,-3.0111,-2.9589,-2.9589,-2.9589,-2.9626,-3.0173,-3.045,-3.0442,-2.9434,-2.8975,-2.8883,-2.8431,-2.8179,-2.8018,-2.768,-2.7606,-2.7468,-2.6103,-2.5572,-2.5385,-2.4727,-2.5655,-2.6767,-2.5407,-2.4476,-2.3888,-2.3736,-2.36,-2.3418,-2.3,-2.2695,-2.246,-2.2334,-2.188,-2.1479,-2.1479,-2.1135,-2.078,-2.073,-2.0599,-2.0483,-2.043,-2.0413,-2.0362,-2.0225,-2.0191,-2.0087,-1.9836,-1.98,-1.9675,-1.9347,-1.9603,-1.9547,-1.8889,-1.87,-1.8268,-1.7466,-1.7869,-1.75,-1.616,-1.6495,-1.6613,-1.6406,-1.6454,-1.6778,-1.7403,-1.7595,-1.7702,-1.7702,-1.7851,-1.7973,-1.2406,-1.3308,-1.4289,-1.5547,-1.5824,-1.6628,0.0,0.0,-1.919,-2.078,-2.1735,-2.2345,-2.2568,-2.3392,-2.4133,-2.4454,-2.4447,-2.443,-2.4491,-2.45,-2.4576,-2.4749,-2.4607,-2.4863,-2.5838,-2.7003,-2.8215,-2.9477,-2.975,-2.9836,-2.9836,-2.9836,-2.9861,-2.9894,-3.0181,-3.033,-3.0299,-3.0355,-3.0355,-3.0299,-3.0355,-3.0355,-3.0299,-3.0299,-3.0299,-3.028,-3.038,-3.0349,-3.0235,-3.0164,-3.0118,-3.0106,-2.9973,-2.9986,-2.9901,-2.8343,-2.7948,-2.8173,-2.8002,-2.7612,-2.6975,-2.5423,-2.6071,-2.7661,-2.8841,-2.6928,-2.4247,-2.3821,-2.36,-2.3418,-2.3,-2.287,-2.2824,-2.2673,-2.2361,-2.2093,-2.2093,-2.1823,-2.1556,-2.1496,-2.1371,-2.1261,-2.1182,-2.1183,-2.0942,-2.0294,-2.0191,-2.0191,-2.0139,-2.0139,-2.0122,-2.0087,-2.0122,-1.9914,-1.9369,-1.9578,-1.9308,-1.8329,-1.864,-1.8779,-1.8621,-1.898,-1.8792,-1.7873,-1.8106,-1.7839,-1.7055,-1.7946,-1.8389,-1.8406,-1.9068,-1.9169,-1.588,-1.696,-1.7648,-1.7894,-1.8783,-1.9938,-2.1261,-2.1407,-2.1635,-2.2813,-2.3364,-2.3621,-2.3664,-2.4061,-2.4412,-2.4438,-2.4456,-2.4517,-2.4655,-2.4679,-2.4715,-2.4844,-2.4787,-2.5144,-2.6176,-2.7376,-2.8639,-2.9916,-3.0026,-2.9977,-2.9902,-2.9902,-2.9942,-3.0015,-3.0155,-3.0273,-3.0404,-3.0404,-3.0404,-3.0404,-3.0404,-3.0404,-3.0404,-3.0404,-3.0404,-3.0404,-3.0404,-3.0361,-3.0317,-3.0383,-3.04,-3.0358,-3.0369,-3.0411,-3.0345,-2.9468,-2.922,-2.9277,-2.8726,-2.8381,-2.801,-2.6823,-2.7259,-2.8203,-2.8304,-2.7257,-2.5825,-2.4842,-2.4197,-2.3714,-2.3348,-2.3133,-2.301,-2.2952,-2.2699,-2.2443,-2.2234,-2.2096,-2.1926,-2.1709,-2.1602,-2.1541,-2.1387,-2.1371,-2.1246,-2.0893,-2.0828,-2.0763,-2.0563,-2.0562,-2.0562,-2.0562,-2.0562,-2.0553,-2.0559,-2.07,-2.044,-1.9672,-1.983,-1.9738,-1.9314,-1.949,-1.9398,-1.8979,-1.9085,-1.892,-1.8519,-1.895,-1.9138,-1.9138,-1.9452,-1.9714,-1.8179,-1.938,-2.0102,-1.9845,-2.1243,-2.2672,-2.2493,-2.2905,-2.3502,-2.4081,-2.4192,-2.422,-2.4284,-2.4339,-2.4375,-2.4421,-2.474,-2.5275,-2.6095,-2.5642,-2.5283,-2.5372,-2.5077,-2.5236,-2.6242,-2.7123,-2.8222,-2.9656,-2.9801,-2.9889,-3.0034,-3.0053,-3.0078,-3.0182,-3.0182,-3.0254,-3.0404,-3.0404,-3.0404,-3.0404,-3.0404,-3.0404,-3.0404,-3.0404,-3.0404,-3.0404,-3.0404,-3.0404,-3.041,-3.0455,-3.0442,-3.0406,-3.0455,-3.0476,-3.0449,-3.0188,-3.0123,-3.0061,-2.9391,-2.908,-2.8892,-2.8085,-2.8389,-2.8812,-2.7638,-2.7285,-2.7015,-2.5689,-2.4712,-2.3969,-2.3649,-2.3377,-2.3217,-2.3217,-2.3015,-2.2738,-2.2497,-2.2402,-2.2265,-2.1969,-2.1911,-2.1868,-2.1703,-2.1615,-2.1539,-2.148,-2.1418,-2.1278,-2.0974,-2.0942,-2.0942,-2.0942,-2.0942,-2.1087,-2.1433,-2.1464,-2.1266,-2.0849,-2.0889,-2.0671,-2.0127,-2.0166,-2.0111,-1.9912,-1.9896,-1.9796,-1.9601,-1.9796,-1.9896,-1.9912,-2.0111,-2.0531,-1.8208,-1.9379,-2.0762,-2.1519,-2.2364,-2.318,-2.3951,-2.4153,-2.4171,-2.419,-2.4209,-2.422,-2.4284,-2.4294,-2.4348,-2.4482,-2.5481,-2.7051,-2.9423,-2.7789,-2.6423,-2.6619,-2.5508,-2.5103,-2.611,-2.6346,-2.7135,-2.8815,-2.9064,-2.95,-3.0334,-3.0373,-3.0392,-3.0398,-3.0398,-3.0398,-3.0404,-3.0404,-3.0404,-3.0404,-3.0404,-3.0404,-3.0404,-3.0404,-3.0404,-3.0404,-3.0404,-3.0404,-3.0404,-3.0404,-3.0404,-3.041,-3.0406,-3.0398,-3.0375,-3.0168,-3.0173,-3.0286,-3.026,-3.0078,-2.9726,-2.893,-2.9215,-2.9575,-2.7972,-2.7486,-2.7237,-2.6042,-2.4966,-2.4109,-2.378,-2.3587,-2.3494,-2.3494,-2.3289,-2.3095,-2.3065,-2.2871,-2.2647,-2.2502,-2.2489,-2.2445,-2.2381,-2.215,-2.1955,-2.1882,-2.1708,-2.1528,-2.1325,-2.1277,-2.1277,-2.1277,-2.134,-2.1449,-2.1589,-2.1589,-2.1619,-2.1661,-2.1676,-2.166,-2.1643,-2.1702,-2.1398,-2.0685,-2.0669,-2.0307,-1.9601,-2.0323,-2.0669,-2.0685,-2.1398,-2.189,-2.0149,-2.1369,-2.2253,-2.2538,-2.3199,-2.3878,-2.4135,-2.419,-2.419,-2.419,-2.4209,-2.421,-2.422,-2.4312,-2.4375,-2.443,-2.5716,-2.6894,-2.7424,-2.7445,-2.7102,-2.6339,-2.6341,-2.6355,-2.6157,-2.6208,-2.6965,-2.8643,-2.8815,-2.9228,-3.0157,-3.0196,-3.026,-3.0398,-3.0404,-3.0404,-3.0404,-3.0404,-3.0404,-3.0404,-3.0404,-3.0404,-3.0404,-3.0404,-3.0404,-3.0404,-3.0404,-3.0404,-3.0404,-3.0404,-3.0404,-3.0398,-3.0292,-3.0328,-3.0381,-3.0228,-3.0174,-3.0145,-3.0011,-2.994,-2.9859,-2.9575,-2.9688,-2.9802,-2.926,-2.8358,-2.7366,-2.6742,-2.5519,-2.4301,-2.3811,-2.3667,-2.3609,-2.351,-2.3436,-2.3313,-2.3144,-2.3028,-2.2897,-2.2686,-2.263,-2.2603,-2.2489,-2.2395,-2.2261,-2.1996,-2.1691,-2.1449,-2.1387,-2.1371,-2.1356,-2.1293,-2.1324,-2.1371,-2.1464,-2.1542,-2.1635,-2.1694,-2.1738,-2.1768,-2.1768,-2.1797,-2.168,-2.1431,-2.1431,-2.1301,-2.1052,-2.1301,-2.1431,-2.1448,-2.168,-2.1855,-2.1643,-2.2619,-2.3061,-2.3364,-2.3823,-2.419,-2.419,-2.419,-2.419,-2.419,-2.397,-2.3778,-2.3796,-2.362,-2.3598,-2.4006,-2.5495,-2.6618,-2.6655,-2.7545,-2.7855,-2.6933,-2.7023,-2.695,-2.6427,-2.6495,-2.7131,-2.8559,-2.8654,-2.9068,-2.9984,-3.003,-3.0121,-3.0292,-3.0299,-3.0336,-3.0404,-3.0404,-3.0404,-3.0404,-3.0404,-3.0404,-3.0404,-3.0404,-3.0404,-3.0404,-3.0404,-3.0404,-3.0404,-3.0404,-3.0404,-3.0398,-3.0305,-3.0329,-3.0383,-3.0216,-3.0115,-3.0053,-2.9948,-2.9866,-2.9823,-2.9823,-2.9823,-2.9767,-2.9465,-2.8634,-2.7657,-2.68,-2.576,-2.4735,-2.4072,-2.3847,-2.3764,-2.3616,-2.3571,-2.3515,-2.3301,-2.3241,-2.3187,-2.301,-2.2985,-2.2973,-2.2857,-2.2755,-2.2586,-2.2292,-2.1996,-2.1718,-2.151,-2.1525,-2.1525,-2.1356,-2.134,-2.1371,-2.1464,-2.1573,-2.1664,-2.1723,-2.1783,-2.1812,-2.1812,-2.1812,-2.1812,-2.1812,-2.1812,-2.1812,-2.1812,-2.1812,-2.1812,-2.1812,-2.1913,-2.194,-2.2573,-2.3033,-2.3244,-2.4016,-2.419,-2.419,-2.419,-2.4171,-2.4135,-2.4089,-2.3437,-2.2895,-2.291,-2.2311,-2.2154,-2.3236,-2.4936,-2.6408,-2.716,-2.8107,-2.8615,0.0,0.0,-2.7018,-2.6991,-2.7201,-2.771,-2.8641,-2.8657,-2.8995,-2.9853,-2.991,-2.9962,-3.0115,-3.0122,-3.0202,-3.0404,-3.0404,-3.0404,-3.0404,-3.0404,-3.0404,-3.0404,-3.0404,-3.0404,-3.0404,-3.0404,-3.0404,-3.0404,-3.0404,-3.0404,-3.0404,-3.0398,-3.0398,-3.0386,-3.0182,-3.0066,-3.0007,-3.0075,-2.9916,-2.9701,-2.9701,-2.9701,-2.9551,-2.8716,-2.8444,-2.8051,-2.6399,-2.58,-2.5449,-2.4515,-2.4169,-2.4012,-2.3774,-2.3714,-2.3678,-2.3555,-2.3528,-2.3499,-2.3499,-2.3487,-2.3505,-2.3505,-2.3223,-2.293,-2.2756,-2.2599,-2.2317,-2.1708,-2.1811,-2.1794,-2.1479,-2.1433,-2.148,-2.1603,-2.1679,-2.1753,-2.1796,-2.1811,-2.1811,-2.1812,-2.1812,-2.1812,-2.1812,-2.1812,-2.1812,-2.1812,-2.1812,-2.1812,-2.1812,-2.2082,-2.2206,-2.2738,-2.3437,-2.3942,-2.4163,-2.419,-2.419,-2.419,-2.3749,-2.3144,-2.2546,-2.1817,-2.1102,-2.0532,-2.1216,-2.1961,-2.2264,-2.4694,0.0,-2.6823,-2.8125,0.0,-2.8353,0.0,-2.8662,-2.8216,-2.8757,-2.9478,-3.0323,-2.9323,-2.9076,-3.0006,-3.0052,-3.0142,-3.0311,-3.0317,-3.0355,-3.0404,-3.0404,-3.0404,-3.0404,-3.0404,-3.0404,-3.0404,-3.0404,-3.0404,-3.0404,-3.0404,-3.0404,-3.0404,-3.0404,-3.0404,-3.0392,-3.0241,-3.026,-3.0386,-3.0182,-3.0095,-3.008,-3.0087,-2.9929,-2.9701,-2.9701,-2.9701,-2.9664,-2.9439,-2.8923,-2.8304,-2.7811,-2.7177,-2.6395,-2.5355,-2.5065,-2.4849,-2.4103,-2.3917,-2.3907,-2.3884,-2.375,-2.3646,-2.3646,-2.3571,-2.3505,-2.3505,-2.3247,-2.3052,-2.3003,-2.296,-2.279,-2.233,-2.233,-2.222,-2.188,-2.1853,-2.1868,-2.1899,-2.1955,-2.2013,-2.201,-2.2068,-2.2013,-2.1796,-2.1812,-2.1812,-2.1812,-2.1812,-2.1812,-2.1812,-2.1812,-2.1812,-2.1812,-2.2082,-2.2206,-2.33,-2.386,-2.419,-2.419,-2.419,-2.4025,-2.3318,-2.2795,-2.2143,-2.0982,-2.0131,-1.9468,-1.905,-1.9978,-2.0954,0.0,0.0,0.0,-2.6681,-2.7934,-2.8726,0.0,-2.9081,0.0,-2.9381,-2.9851,-3.0499,-3.1326,-3.0345,-3.0102,-3.1012,-3.1077,-3.1172,-3.1411,-3.1411,-3.1444,-3.15,-3.1154,-3.0962,-3.0962,-3.0962,-3.0769,-3.0404,-3.0404,-3.0404,-3.0404,-3.0404,-3.0404,-3.0404,-3.0404,-3.0404,-3.0398,-3.0286,-3.0305,-3.0392,-3.0267,-3.0182,-3.0109,-3.0109,-2.9965,-2.9763,-2.9673,-2.9664,-2.9645,-2.9588,-2.9231,-2.8745,-2.8333,-2.7857,-2.7261,-2.631,-2.5791,-2.5383,-2.4767,-2.4343,-2.4057,-2.4016,-2.3837,-2.3671,-2.3631,-2.3538,-2.3505,-2.3505,-2.3389,-2.3277,-2.3277,-2.3277,-2.3199,-2.2963,-2.2807,-2.2546,-2.2096,-2.215,-2.2164,-2.2053,-2.2237,-2.2361,-2.2361,-2.2402,-2.2347,-2.2198,-2.2056,-2.1984,-2.1984,-2.1855,-2.1812,-2.1812,-2.1812,-2.1812,-2.1796,-2.224,-2.2416,-2.4006,-2.419,-2.419,-2.419,-2.419,-2.3768,-2.2161,-2.1629,-2.0976,-1.9261,0.0,-1.7707,-1.7662,-1.8527,-1.9553,-2.0534,0.0,-2.5026,-2.6656,-2.7615,-2.8394,-2.9064,-2.9189,-2.9547,-3.0361,-3.0565,-3.1024,-3.2022,-3.1618,-3.1608,-3.2284,-3.2341,-3.2454,-3.2718,-3.2725,-3.2771,-3.291,-3.2102,-3.1756,-3.1852,-3.1756,-3.1365,-3.0731,-3.0731,-3.0673,-3.0577,-3.0577,-3.0519,-3.0404,-3.0404,-3.0404,-3.0404,-3.0404,-3.0404,-3.0404,-3.0404,-3.0292,-3.0136,-3.0136,-3.0052,-2.9934,-2.9716,-2.9626,-2.957,-2.9461,-2.9409,-2.9229,-2.8486,-2.8263,-2.8096,-2.726,-2.6461,-2.5783,-2.5512,-2.4828,-2.4201,-2.4095,-2.3888,-2.37,-2.3538,-2.3499,-2.3505,-2.3505,-2.3505,-2.3505,-2.3505,-2.3505,-2.3505,-2.3505,-2.3247,-2.2837,-2.2292,-2.2439,-2.2493,-2.2248,-2.2554,-2.2756,-2.2756,-2.2756,-2.2743,-2.2703,-2.2416,-2.2261,-2.2261,-2.1998,-2.1869,-2.1913,-2.1869,-2.1869,-2.1928,-2.2487,-2.2756,-2.4153,-2.419,-2.419,-2.419,-2.419,-2.3768,-2.2161,-2.0729,0.0,0.0,-1.5772,-1.5043,-1.4444,-1.6565,-1.8682,-1.9523,-2.2246,-2.4837,-2.6499,-2.744,-2.8286,0.0,-2.9361,-2.971,-3.0645,-3.0741,-3.1398,-3.2945,-3.3009,-3.2827,-3.2485,-3.248,-3.258,-3.2863,-3.2858,-3.2885,-3.2891,-3.2102,-3.2025,-3.2679,-3.2025,-3.1968,-3.2468,-3.2468,-3.2102,-3.1468,-3.1468,-3.1077,-3.0404,-3.0404,-3.0404,-3.0404,-3.0404,-3.0404,-3.0404,-3.0404,-3.0392,-3.0355,-3.0355,-3.0336,-3.026,-2.995,-2.9742,-2.9598,-2.9561,-2.9501,-2.9359,-2.9211,-2.9174,-2.8969,-2.8114,-2.7297,-2.6516,-2.582,-2.5031,-2.4437,-2.4411,-2.4172,-2.3886,-2.37,-2.3582,-2.3505,-2.3505,-2.3505,-2.3505,-2.3505,-2.3505,-2.3505,-2.3505,-2.3441,-2.3301,-2.2947,-2.296,-2.2973,-2.2922,-2.299,-2.3028,-2.3028,-2.3028,-2.294,-2.2717,-2.2634,-2.2607,-2.2607,-2.2292,-2.2265,-2.2541,-2.2265,-2.2278,-2.2541,-2.2889,-2.3028,-2.419,-2.419,-2.419,-2.419,-2.419,-2.3547,-2.106,0.0,0.0,0.0,-1.3866,-1.3328,-1.3437,-1.5365,0.0,-1.8584,-2.0745,-2.3006,-2.5092,-2.6095,-2.7082,-2.8405,-2.8952,-2.9695,-3.0988,-3.111,-3.1797,-3.3449,-3.3584,-3.3627,-3.3648,-3.3809,-3.3922,-3.3939,-3.3707,-3.3683,-3.3933,-3.3311,-3.3081,-3.3257,-3.3088,-3.291,-3.2759,-3.2859,-3.2468,-3.1692,-3.1591,-3.1117,-3.0392,-3.0221,-3.0247,-3.0398,-3.0273,-3.0305,-3.0404,-3.0404,-3.0404,-3.0404,-3.0404,-3.0404,-3.0355,-3.0092,-2.9946,-2.9823,-2.9644,-2.9561,-2.9482,-2.9409,-2.9396,-2.9304,-2.8895,-2.7836,-2.6907,-2.6944,-2.6015,-2.5105,-2.4986,-2.4505,-2.4047,-2.3896,-2.3792,-2.3725,-2.362,-2.3598,-2.3582,-2.3499,-2.3505,-2.3505,-2.3505,-2.3505,-2.3413,-2.3132,-2.3229,-2.3253,-2.3119,-2.3229,-2.3313,-2.3313,-2.3313,-2.3247,-2.3126,-2.2973,-2.2914,-2.2914,-2.262,-2.2541,-2.2703,-2.2541,-2.2537,-2.2717,-2.2977,-2.3107,-2.419,-2.419,-2.419,-2.419,-2.419,-2.3345,-2.005,-1.8537,0.0,0.0,-1.2391,-1.2105,-1.2982,-1.4451,-1.6103,0.0,-1.9481,-2.1373,-2.3841,-2.5044,-2.6182,0.0,-2.851,0.0,-3.125,-3.1397,-3.2076,-3.3678,-3.3802,-3.4055,-3.4559,-3.4908,-3.5018,-3.486,-3.4506,-3.4511,-3.4889,-3.4358,-3.3918,-3.3601,-3.3926,-3.3635,-3.2824,-3.3027,-3.2653,-3.1833,-3.1534,-3.0986,-3.0267,-3.0004,-3.0068,-3.0273,-3.0128,-3.0148,-3.0286,-3.0286,-3.0286,-3.0286,-3.0286,-3.0286,-3.0267,-3.0121,-3.0059,-3.0007,-2.9688,-2.958,-2.9532,-2.9429,-2.9396,-2.9396,-2.9396,-2.8282,-2.726,-2.7724,-2.6869,-2.5876,-2.554,-2.4929,-2.4375,-2.4112,-2.4026,-2.3937,-2.3795,-2.3756,-2.371,-2.3578,-2.3578,-2.3578,-2.3517,-2.3522,-2.3453,-2.3217,-2.3372,-2.3407,-2.3205,-2.3372,-2.3505,-2.3505,-2.3505,-2.3505,-2.3505,-2.3301,-2.3193,-2.3193,-2.291,-2.282,-2.2871,-2.282,-2.282,-2.2884,-2.3089,-2.3193,-2.419,-2.419,-2.419,-2.419,-2.419,-2.3345,-2.005,0.0,0.0,-1.2873,-1.1571,-1.1289,-1.2151,-1.3574,-1.541,-1.7801,0.0,-2.1373,-2.3841,-2.5529,-2.6814,-2.7706,0.0,0.0,-3.125,-3.1397,-3.2076,-3.3678,-3.3873,-3.3998,-3.4227,-3.4559,-3.4743,-3.4723,-3.4737,-3.4785,-3.4908,-3.4073,-3.3646,-3.3599,-3.3646,-3.3598,-3.3513,-3.3729,-3.3274,-3.2307,-3.1661,-3.0852,-2.9942,-2.991,-2.9918,-2.9942,-2.9926,-2.9934,-2.9942,-2.9942,-2.9942,-2.9942,-2.9942,-2.9942,-2.9942,-2.9926,-2.9918,-2.9886,-2.9653,-2.9522,-2.9427,-2.9407,-2.9396,-2.9396,-2.9396,-2.869,-2.7817,-2.7167,-2.6907,-2.6572,-2.5838,-2.5476,-2.5066,-2.4329,-2.4077,-2.3996,-2.3986,-2.3976,-2.3907,-2.3721,-2.3845,-2.3842,-2.3551,-2.3598,-2.3631,-2.3476,-2.3494,-2.3494,-2.3471,-2.3494,-2.3505,-2.3505,-2.3505,-2.3505,-2.3505,-2.3482,-2.3453,-2.3453,-2.3205,-2.3175,-2.3436,-2.3193,-2.3193,-2.3436,-2.3441,-2.3453,-2.3933,-2.419,-2.419,-2.419,-2.3841,-2.274,-1.994,0.0,-1.5398,-1.2655,-1.107,-1.0582,-1.1907,-1.2647,-1.3849,-1.6299,-1.7619,-1.9025,-2.0986,-2.3088,-2.4905,-2.6201,-2.7493,-2.9108,-3.1213,-3.1397,-3.2076,-3.3678,-3.3815,-3.3868,-3.3947,-3.4272,-3.4409,-3.4279,-3.458,-3.463,-3.4367,-3.4292,-3.4143,-3.39,-3.3665,-3.3497,-3.3401,-3.3133,-3.2492,-3.16,-3.1252,-3.0635,-2.9886,-2.9681,-2.9717,-2.9886,-2.9777,-2.9794,-2.9902,-2.9902,-2.9902,-2.9902,-2.9902,-2.9902,-2.9878,-2.9769,-2.9725,-2.9688,-2.9626,-2.9551,-2.9502,-2.9419,-2.9396,-2.9396,-2.9396,-2.9136,-2.8672,-2.7817,-2.7613,-2.7538,-2.7204,-2.6692,-2.6051,-2.5255,-2.5069,-2.4828,-2.4226,-2.4115,-2.4067,-2.3907,-2.3937,-2.3955,-2.381,-2.3845,-2.3855,-2.38,-2.3623,-2.3505,-2.3505,-2.3505,-2.3505,-2.3505,-2.3505,-2.3505,-2.3505,-2.3505,-2.3505,-2.3505,-2.3413,-2.3383,-2.3505,-2.3383,-2.3413,-2.3505,-2.3505,-2.3505,-2.3474,-2.4025,-2.419,-2.419,-2.3602,-2.2345,0.0,-1.7424,-1.5074,-1.2908,-1.1163,-1.0557,-1.2155,-1.2448,-1.3165,-1.5349,-1.6566,-1.7814,-1.9436,-2.1785,-2.3859,-2.5246,0.0,-2.8393,-3.0797,-3.169,-3.2577,-3.3715,-3.3807,-3.3807,-3.3807,-3.4006,-3.4111,-3.3972,-3.4291,-3.4314,-3.3998,-3.4325,-3.427,-3.3826,-3.3708,-3.3383,-3.2912,-3.2449,-3.1779,-3.094,-3.0668,-3.0271,-2.9803,-2.9626,-2.9681,-2.9878,-2.9689,-2.9715,-2.9894,-2.9836,-2.982,-2.982,-2.982,-2.9786,-2.9735,-2.9589,-2.9541,-2.9541,-2.9541,-2.9541,-2.9531,-2.9429,-2.9396,-2.9396,-2.9396,-2.9396,-2.9248,-2.8635,-2.8486,-2.8412,-2.8152,-2.765,-2.6944,-2.5912,-2.5708,-2.5393,-2.4441,-2.4294,-2.4247,-2.4067,-2.4114,-2.4114,-2.4016,-2.4036,-2.4046,-2.4006,-2.3779,-2.3616,-2.356,-2.356,-2.3544,-2.3505,-2.3505,-2.3505,-2.3505,-2.3505,-2.3505,-2.3505,-2.3505,-2.3505,-2.3505,-2.3505,-2.3505,-2.3505,-2.3505,-2.3505,-2.2786,-2.3602,-2.419,-2.419,-2.3602,-2.2345,-1.9866,-1.7424,-1.5239,-1.3611,-1.2003,-1.1375,-1.2986,-1.3285,-1.3813,-1.5441,-1.7032,-1.864,-2.0272,-2.263,-2.4493,0.0,-2.6117,-2.7556,-2.9989,-3.2375,-3.377,-3.3807,-3.3807,-3.3807,-3.3807,-3.3788,-3.3829,-3.3895,-3.3908,-3.3934,-3.3998,-3.4011,-3.3728,-3.322,-3.3747,-3.3294,-3.2006,-3.1952,-3.1427,-3.0581,-3.0038,-2.9724,-2.9626,-2.982,-2.9894,-2.9878,-2.9689,-2.9715,-2.9878,-2.9681,-2.9608,-2.9608,-2.9608,-2.9522,-2.9407,-2.9407,-2.9407,-2.9407,-2.9407,-2.9407,-2.9407,-2.9407,-2.9396,-2.9396,-2.9396,-2.9396,-2.9407,-2.9378,-2.9388,-2.9155,-2.8282,-2.8096,-2.7613,-2.6024,-2.5708,-2.5448,-2.4648,-2.45,-2.4429,-2.422,-2.4375,-2.4375,-2.4046,-2.4115,-2.4144,-2.4016,-2.3996,-2.3907,-2.3714,-2.3692,-2.3635,-2.3517,-2.3505,-2.3505,-2.3505,-2.3505,-2.3505,-2.3505,-2.3505,-2.3505,-2.3505,-2.3505,-2.3505,-2.3505,-2.3505,-2.3505,-1.9428,-2.0639,-2.141,-2.0317,-1.984,-1.93,-1.7961,-1.5784,-1.3923,-1.3414,-1.2021,-1.1393,-1.3004,-1.3298,-1.4015,-1.6163,-1.741,0.0,-2.0272,0.0,0.0,-2.5301,-2.8055,-3.0393,-3.1702,-3.3036,-3.3807,-3.3807,-3.3807,-3.3807,-3.3807,-3.3807,-3.382,-3.3815,-3.3815,-3.3842,-3.3855,-3.3855,-3.3792,-3.3673,-3.329,-3.2625,-3.1711,-3.1151,-3.0413,-2.9624,-2.9454,-2.9402,-2.9401,-2.9453,-2.9512,-2.9541,-2.9491,-2.9501,-2.956,-2.9491,-2.9461,-2.9481,-2.958,-2.9512,-2.9427,-2.9512,-2.9481,-2.9396,-2.9396,-2.9396,-2.9396,-2.9396,-2.9396,-2.9396,-2.9396,-2.9396,-2.9396,-2.9396,-2.9396,-2.9322,-2.9043,-2.8988,-2.8653,-2.7557,-2.7334,-2.6907,-2.5559,-2.5317,-2.5114,-2.4504,-2.4465,-2.4465,-2.4358,-2.4384,-2.4393,-2.4348,-2.4339,-2.4219,-2.3927,-2.3907,-2.3886,-2.3842,-2.3842,-2.3789,-2.3635,-2.3642,-2.3587,-2.3505,-2.3505,-2.3505,-2.3505,-2.3505,-2.3505,-2.3505,-2.3505,-2.3555,-1.7176,-1.8595,-1.9439,-1.8739,-1.8096,-1.7447,-1.664,-1.4573,-1.2858,-1.2858,-1.2058,-1.1741,-1.306,-1.3555,-1.4242,-1.5753,-1.6908,-1.8218,0.0,0.0,0.0,-2.6109,-2.9046,-3.1256,-3.2063,-3.3146,-3.3807,-3.3807,-3.3532,-3.3348,-3.3348,-3.3054,-3.2889,-3.2889,-3.3183,-3.3348,-3.3348,-3.3348,-3.3574,-3.4011,-3.341,-3.2785,-3.2129,-3.1198,-3.0369,-2.9632,-2.9384,-2.9289,0.0,-2.9423,-2.9482,-2.9512,-2.9463,-2.9482,-2.9541,-2.9482,-2.9481,-2.9501,-2.9561,-2.9512,-2.9409,-2.9492,-2.9471,-2.9396,-2.9396,-2.9396,-2.9396,-2.9396,-2.9396,-2.9396,-2.9396,-2.9396,-2.9396,-2.9396,-2.9396,-2.9396,-2.9396,-2.9396,-2.9136,-2.8263,-2.8096,-2.7687,-2.6368,-2.6145,-2.5875,-2.5076,-2.4946,-2.4834,-2.4537,-2.45,-2.45,-2.45,-2.45,-2.443,-2.4219,-2.4124,-2.4037,-2.4006,-2.3996,-2.3937,-2.3816,-2.3816,-2.3771,-2.37,-2.37,-2.3649,-2.3571,-2.3522,-2.3505,-2.3505,-2.3505,-2.3538,0.0,-1.7089,-1.7895,-1.8537,-1.7612,-1.6358,-1.56,-1.3679,0.0,-1.2095,-1.2095,-1.2375,-1.3298,-1.4077,-1.4658,-1.4897,-1.6175,-1.7722,-1.9334,-2.1694,-2.4419,-2.7603,-2.9347,-3.0595,-3.1415,-3.2834,-3.3715,-3.3715,-3.2981,-3.2509,-3.2509,-3.1806,-3.1378,-3.1323,-3.21,-3.2546,-3.2601,-3.2601,-3.311,-3.408,-3.3828,-3.3425,-3.2862,-3.1863,-3.0998,-3.0275,-2.9644,-2.9365,-2.9379,-2.9588,-2.9661,-2.9652,-2.9533,-2.9588,-2.9741,-2.9626,-2.958,-2.958,-2.9598,-2.9512,-2.9396,-2.9396,-2.9396,-2.9396,-2.9396,-2.9396,-2.9396,-2.9396,-2.9396,-2.9396,-2.9396,-2.9396,-2.9396,-2.9396,-2.9396,-2.9396,-2.9396,-2.9396,-2.9155,-2.8356,-2.8189,-2.7947,-2.7111,-2.6981,-2.6702,-2.5912,-2.5801,-2.5485,-2.4685,-2.4592,-2.4555,-2.4518,-2.4555,-2.4555,-2.45,-2.433,-2.4163,-2.4046,-2.4036,-2.4026,-2.4016,-2.4016,-2.4016,-2.3996,-2.3996,-2.3907,-2.3714,-2.3594,-2.3539,-2.3539,-2.3539,-2.3557,-1.1696,0.0,-1.4052,-1.3115,-1.3044,-1.3178,0.0,-1.2035,-1.1356,-1.1966,-1.2095,-1.2719,-1.4762,-1.5294,-1.6224,-1.8695,-1.9402,-2.0236,-2.1905,-2.4217,-2.6722,-2.9329,-3.0503,-3.1421,-3.2247,-3.2656,-3.2876,-3.2876,-3.2137,-3.1678,-3.1678,-3.1507,-3.1109,-3.0503,-3.1256,-3.1971,-3.2583,-3.2601,-3.2732,-3.298,-3.2915,-3.2175,-3.0899,-3.125,-3.0644,-2.9327,-2.9159,-2.9115,-2.9181,-2.9217,-2.927,-2.9312,-2.927,-2.931,-2.9351,-2.931,-2.9328,-2.939,-2.9485,-2.9474,-2.9396,-2.9396,-2.9396,-2.9396,-2.9396,-2.9396,-2.9396,-2.9396,-2.9396,-2.9396,-2.9396,-2.9396,-2.9396,-2.9396,-2.9396,-2.9396,-2.9396,-2.9396,-2.9341,-2.9118,-2.9081,-2.882,-2.7966,-2.7817,-2.7538,-2.6739,-2.6609,-2.633,-2.5522,-2.5429,-2.5187,-2.4574,-2.5057,-2.5169,-2.4555,-2.4465,-2.4411,-2.4384,-2.4375,-2.4303,-2.4154,-2.4154,-2.4096,-2.4006,-2.3996,-2.3947,-2.3847,-2.3824,-2.3821,-2.3821,-2.3821,-2.4168,-0.9866,-1.1533,-1.3035,-1.2602,-1.2563,-1.2691,-1.307,-1.1955,-1.1082,-1.1887,0.0,-1.3138,-1.4824,-1.5741,-1.6933,-1.9062,-2.0016,-2.1336,-2.3768,-2.5548,-2.7512,-2.9916,-3.0577,-3.1164,-3.1971,-3.2045,-3.2045,-3.2045,-3.1292,-3.0852,-3.0852,-3.0503,-3.0099,-2.9647,-3.0797,-3.1421,-3.15,-3.1861,-3.2228,-3.2601,-3.2228,-3.1788,-3.128,-3.0999,-3.0375,-2.9537,-2.9152,-2.9028,-2.9044,-2.9044,-2.9085,-2.91,-2.9134,-2.9145,-2.9163,-2.9189,-2.9211,-2.9254,-2.9343,-2.9361,-2.9355,-2.9355,-2.9355,-2.9355,-2.9355,-2.9355,-2.9365,-2.9396,-2.9396,-2.9396,-2.9396,-2.9396,-2.9396,-2.9396,-2.9396,-2.9396,-2.9396,-2.9396,-2.9396,-2.9396,-2.9396,-2.9248,-2.8783,-2.869,-2.8412,-2.7575,-2.7445,-2.7167,-2.6349,-2.6238,-2.607,-2.5652,-2.5987,-2.607,-2.5652,-2.5596,-2.5299,-2.4555,-2.45,-2.4447,-2.4294,-2.4284,-2.4238,-2.4143,-2.4075,-2.4026,-2.3996,-2.3896,-2.4047,-2.4399,-2.4399,-2.4856,-0.9512,-1.1418,-1.3371,-1.3714,-1.3466,-1.3333,-1.4023,0.0,0.0,0.0,0.0,-1.3922,-1.5032,-1.6358,-1.7605,-1.8669,-2.0081,-2.2171,-2.5319,-2.6355,-2.7585,-2.9769,-3.0136,-3.0467,-3.1146,-3.1231,-3.1231,-3.1231,-3.0467,-3.0026,-3.0026,-2.9372,-2.9005,-2.9005,-3.0448,-3.0834,-3.0026,-3.0944,-3.1678,-3.2234,-3.1531,-3.1513,-3.2014,-3.0779,-3.0136,-2.9989,-2.9299,-2.9005,-2.9005,-2.9005,-2.9005,-2.9005,-2.9055,-2.9078,-2.9096,-2.9145,-2.9167,-2.9178,-2.9189,-2.924,-2.9272,-2.9272,-2.9272,-2.9272,-2.9272,-2.9272,-2.9302,-2.9347,-2.9386,-2.9396,-2.9396,-2.9396,-2.9396,-2.9396,-2.9396,-2.9396,-2.9396,-2.9396,-2.9396,-2.9396,-2.9396,-2.9396,-2.9396,-2.9396,-2.9155,-2.8412,-2.83,-2.8003,-2.7185,-2.7074,-2.7037,-2.6907,-2.6999,-2.7037,-2.6907,-2.6999,-2.6442,-2.4964,-2.476,-2.4604,-2.4421,-2.4421,-2.4375,-2.4321,-2.42,-2.4188,-2.4306,-2.414,-2.4467,-2.5256,-2.5256,-2.571,-1.0646,-1.2323,-1.3273,-1.147,-1.1991,-1.2973,-1.3106,-1.2972,0.0,0.0,0.0,0.0,0.0,-1.8771,-1.9641,-2.1816,-2.2988,-2.452,-2.7082,-2.753,-2.8007,-2.906,-2.9787,-3.0246,-3.0375,-3.0375,-3.0375,-3.0375,-2.9629,-2.9189,-2.9189,-2.9078,-2.9005,-2.9005,-2.9898,-3.0008,-2.9189,-3.065,-3.1109,-3.0577,-3.0448,-3.0099,-2.9574,-2.9996,-2.9831,-2.9189,-2.906,-2.9005,-2.9005,-2.9005,-2.9005,-2.9005,-2.9017,-2.9017,-2.9017,-2.9028,-2.9074,-2.9112,-2.9178,-2.9218,-2.9229,-2.9229,-2.9229,-2.9229,-2.9229,-2.9229,-2.9229,-2.924,-2.9304,-2.9396,-2.9396,-2.9396,-2.9396,-2.9396,-2.9396,-2.9396,-2.9396,-2.9396,-2.9396,-2.9396,-2.9396,-2.9396,-2.9396,-2.9396,-2.9341,-2.9211,-2.9192,-2.8895,-2.8021,-2.7929,-2.765,-2.6962,-2.7501,-2.7631,-2.6962,-2.752,-2.752,-2.6591,-2.5894,-2.5216,-2.4501,-2.4482,-2.4456,-2.4394,-2.4348,-2.4653,-2.5287,-2.5257,-2.5642,-2.6439,-2.6439,-2.6808,-0.9816,-1.1466,-1.2737,-1.1689,-1.3345,-1.538,-1.5954,-1.5805,0.0,0.0,0.0,0.0,0.0,-2.0245,-2.1341,-2.3801,-2.4901,-2.5983,-2.753,-2.775,-2.8031,-2.8802,-2.9258,-2.949,-2.9442,-2.952,-2.9544,-2.9502,-2.9195,-2.9005,-2.9005,-2.9005,-2.9005,-2.9005,-2.9776,-2.9812,-2.9005,-3.0173,-3.0577,-3.0191,-2.9769,-2.9592,-2.9647,-2.9574,-2.9354,-2.9005,-2.9005,-2.9005,-2.9005,-2.9005,-2.9005,-2.9005,-2.9005,-2.9005,-2.9005,-2.9005,-2.9028,-2.9062,-2.9112,-2.9163,-2.9163,-2.9163,-2.9163,-2.9163,-2.9163,-2.9163,-2.9145,-2.9189,-2.9232,-2.9294,-2.9294,-2.9294,-2.9294,-2.9344,-2.9344,-2.9355,-2.9396,-2.9396,-2.9396,-2.9396,-2.9396,-2.9396,-2.9396,-2.9396,-2.9396,-2.9396,-2.9376,-2.9217,-2.8858,-2.8771,-2.8612,-2.8282,-2.8579,-2.8653,-2.8282,-2.8579,-2.8263,-2.6981,-2.6525,-2.6135,-2.5764,-2.5746,-2.5736,-2.5708,-2.566,-2.5806,-2.6154,-2.6123,-2.6507,-2.7287,-2.7287,-2.7695,-0.9315,-1.0832,-1.2381,-1.2737,-1.4727,-1.6989,-1.8411,-1.8119,-1.7939,0.0,0.0,0.0,0.0,-2.1598,-2.2884,-2.5199,-2.6077,-2.6816,-2.7828,-2.7956,-2.817,-2.8725,-2.8846,-2.8858,-2.8798,-2.8881,-2.8929,-2.8905,-2.894,-2.8975,-2.9005,-2.9005,-2.9005,-2.9005,-2.9592,-2.961,-2.9005,-2.961,-2.9922,-2.9916,-2.9299,-2.9317,-2.9898,-2.928,-2.9005,-2.9005,-2.9005,-2.9005,-2.9005,-2.9005,-2.9005,-2.9005,-2.9005,-2.9005,-2.9005,-2.9005,-2.9005,-2.9005,-2.9062,-2.9085,-2.9085,-2.9085,-2.9085,-2.9085,-2.9085,-2.9085,-2.9096,-2.9134,-2.9145,-2.9156,-2.9189,-2.92,-2.92,-2.9262,-2.9291,-2.9283,-2.9336,-2.9376,-2.9376,-2.9376,-2.9386,-2.9396,-2.9396,-2.9396,-2.9396,-2.9396,-2.9355,-2.9344,-2.9376,-2.9334,-2.9323,-2.9355,-2.9347,-2.9347,-2.9347,-2.9347,-2.8808,-2.7528,-2.722,-2.7015,-2.6829,-2.6819,-2.6817,-2.6797,-2.6749,-2.6811,-2.6982,-2.693,-2.7302,-2.8081,-2.8081,-2.8411,-1.0578,-1.1603,-1.2635,-1.3996,-1.4605,-1.5514,-1.7971,-1.8084,-1.8372,-2.0826,0.0,0.0,-2.2397,-2.3188,-2.4309,-2.6049,-2.637,-2.6943,-2.8488,-2.8725,-2.8743,-2.8798,-2.8798,-2.8798,-2.8798,-2.8798,-2.8834,-2.8905,-2.8887,-2.8929,-2.8994,-2.9005,-2.9005,-2.9005,-2.906,-2.906,-2.9005,-2.906,-2.9097,-2.9097,-2.9023,-2.9023,-2.9078,-2.9023,-2.9005,-2.9005,-2.9005,-2.9005,-2.9005,-2.9005,-2.9005,-2.9005,-2.9005,-2.9005,-2.9005,-2.9005,-2.9005,-2.9005,-2.9005,-2.9005,-2.9005,-2.9005,-2.9005,-2.9005,-2.9005,-2.9005,-2.9005,-2.9017,-2.9017,-2.9051,-2.9156,-2.92,-2.92,-2.9218,-2.9218,-2.92,-2.9211,-2.9262,-2.9312,-2.9312,-2.9365,-2.9396,-2.9396,-2.9396,-2.9396,-2.9396,-2.9396,-2.9376,-2.9312,-2.9302,-2.9291,-2.9211,-2.9211,-2.9211,-2.9214,-2.9214,-2.9158,-2.9029,-2.8398,-2.7659,-2.6916,-2.6897,-2.6868,-2.681,-2.68,-2.712,-2.7819,-2.7808,-2.8198,-2.8913,-2.8913,-2.895,-0.9586,-1.1323,-1.3117,-1.3676,-1.5237,0.0,0.0,-1.9577,-2.0756,-2.2962,-2.3444,0.0,-2.4049,-2.4234,-2.4771,-2.6106,-2.6626,-2.7284,-2.8561,-2.8749,-2.8724,-2.8675,-2.8712,-2.8724,-2.8675,-2.8785,-2.8846,-2.8779,-2.8839,-2.8917,-2.894,-2.894,-2.897,-2.9005,-2.9005,-2.9005,-2.9005,-2.9005,-2.9005,-2.9005,-2.9005,-2.9005,-2.9005,-2.9005,-2.9005,-2.9005,-2.9005,-2.9005,-2.9005,-2.9005,-2.9005,-2.9005,-2.9005,-2.9005,-2.9005,-2.9005,-2.9005,-2.9005,-2.9005,-2.9005,-2.9005,-2.9005,-2.9005,-2.9005,-2.9005,-2.9005,-2.9005,-2.9005,-2.9005,-2.9017,-2.9055,-2.9085,-2.9096,-2.9141,-2.9119,-2.9089,-2.9178,-2.9229,-2.924,-2.924,-2.9262,-2.9283,-2.9283,-2.9304,-2.9344,-2.9344,-2.9344,-2.9334,-2.9302,-2.9262,-2.924,-2.9192,-2.92,-2.92,-2.9211,-2.9211,-2.9211,-2.9211,-2.8939,-2.8653,-2.8347,-2.8328,-2.8318,-2.8297,-2.8244,-2.8378,-2.8647,-2.8603,-2.8734,-2.9005,-2.9005,-2.9005,-0.9241,-1.1103,-1.3151,-1.3625,0.0,0.0,-1.919,-2.0394,-2.1863,-2.4135,-2.4605,-2.4724,-2.5175,-2.4972,-2.5146,-2.6449,-2.6959,-2.7541,-2.8535,-2.8675,-2.865,-2.86,-2.865,-2.865,-2.86,-2.8724,-2.8785,-2.8724,-2.8798,-2.8858,-2.887,-2.8893,-2.8917,-2.897,-2.8994,-2.9005,-2.9005,-2.9005,-2.9005,-2.9005,-2.9005,-2.9005,-2.9005,-2.9005,-2.9005,-2.9005,-2.9005,-2.9005,-2.9005,-2.9005,-2.9005,-2.9005,-2.9005,-2.9005,-2.9005,-2.9005,-2.9005,-2.9005,-2.9005,-2.9005,-2.9005,-2.9005,-2.9005,-2.9005,-2.9005,-2.9005,-2.9005,-2.9005,-2.9005,-2.9005,-2.9005,-2.9005,-2.9017,-2.9062,-2.904,-2.9028,-2.913,-2.9152,-2.9134,-2.9156,-2.9178,-2.92,-2.92,-2.9251,-2.9272,-2.9272,-2.9294,-2.9334,-2.9334,-2.9251,-2.9178,-2.9138,-2.9134,-2.9152,-2.9152,-2.9152,-2.9152,-2.9152,-2.9145,-2.9156,-2.9178,-2.9189,-2.92,-2.92,-2.9145,-2.9112,-2.9089,-2.9044,-2.9028,-2.9005,-2.9005,-2.9005,-1.0001,-1.114,-1.2669,-1.4149,0.0,0.0,-1.9524,-2.0221,-2.1207,-2.4016,-2.4616,-2.4847,-2.5661,-2.5374,-2.5522,-2.7133,-2.7393,-2.7676,-2.8491,-2.8587,-2.8587,-2.86,-2.86,-2.86,-2.86,-2.86,-2.8625,-2.8682,-2.8694,-2.8737,-2.8785,-2.887,-2.8905,-2.8905,-2.8952,-2.9005,-2.9005,-2.9005,-2.9005,-2.9005,-2.9005,-2.9005,-2.9005,-2.9005,-2.9005,-2.9005,-2.9005,-2.9005,-2.9005,-2.9005,-2.9005,-2.9005,-2.9005,-2.9005,-2.9005,-2.9005,-2.9005,-2.9005,-2.9005,-2.9005,-2.9005,-2.9005,-2.9005,-2.9005,-2.9005,-2.9005,-2.9005,-2.9005,-2.9005,-2.9005,-2.9005,-2.9005,-2.9005,-2.9005,-2.9005,-2.9005,-2.9005,-2.9005,-2.9028,-2.9096,-2.9145,-2.9189,-2.9189,-2.9192,-2.9203,-2.9203,-2.9307,-2.9396,-2.9396,-2.9283,-2.9163,-2.9017,-2.9005,-2.9005,-2.9005,-2.9005,-2.9005,-2.9005,-2.9005,-2.9021,-2.9104,-2.9167,-2.9189,-2.9189,-2.9189,-2.9156,-2.9089,-2.9089,-2.9055,-2.9005,-2.9005,-2.9005,-1.0001,-1.1883,-1.4081,-1.5037,0.0,0.0,0.0,-2.1041,0.0,0.0,-2.5431,-2.601,-2.6253,-2.5734,-2.5604,-2.6601,-2.6805,-2.717,-2.8107,-2.8242,-2.8339,-2.8574,-2.86,-2.86,-2.86,-2.865,-2.8662,-2.8637,-2.8669,-2.8706,-2.8737,-2.8743,-2.8785,-2.8834,-2.8893,-2.8929,-2.8929,-2.8982,-2.9005,-2.9005,-2.9005,-2.9005,-2.9005,-2.9005,-2.9005,-2.9005,-2.9005,-2.9005,-2.9005,-2.9005,-2.9005,-2.9005,-2.9005,-2.9005,-2.9005,-2.9005,-2.9005,-2.9005,-2.9005,-2.9005,-2.9005,-2.9005,-2.9005,-2.9005,-2.9005,-2.9005,-2.9005,-2.9005,-2.9005,-2.9005,-2.9005,-2.9005,-2.9005,-2.9005,-2.9005,-2.9005,-2.9005,-2.9005,-2.9005,-2.9028,-2.9051,-2.9062,-2.9062,-2.9055,-2.9055,-2.9055,-2.9167,-2.9262,-2.9262,-2.9152,-2.9051,-2.9005,-2.9005,-2.9005,-2.9005,-2.9005,-2.9005,-2.9005,-2.9005,-2.9017,-2.9021,-2.9044,-2.9062,-2.9062,-2.9062,-2.9051,-2.904,-2.904,-2.9028,-2.9005,-2.9005,-2.9005,-1.1109,-1.3059,-1.5201,-1.6534,-1.8802,-2.0925,-2.1691,0.0,0.0,0.0,-2.5599,-2.6399,-2.671,-2.6268,-2.609,-2.6862,-2.6999,-2.7261,-2.7855,-2.794,-2.8051,-2.8352,-2.8409,-2.8448,-2.8587,-2.8637,-2.865,-2.86,-2.8637,-2.8662,-2.8662,-2.87,-2.8706,-2.8761,-2.8834,-2.8858,-2.8858,-2.8893,-2.8929,-2.8952,-2.8952,-2.8964,-2.9005,-2.9005,-2.9005,-2.9005,-2.9005,-2.9005,-2.9005,-2.9005,-2.9005,-2.9005,-2.9005,-2.9005,-2.9005,-2.9005,-2.9005,-2.9005,-2.9005,-2.9005,-2.9005,-2.9005,-2.9005,-2.9005,-2.9005,-2.9005,-2.9005,-2.9005,-2.9005,-2.9005,-2.9005,-2.9005,-2.9005,-2.9005,-2.9005,-2.9005,-2.9005,-2.9005,-2.9005,-2.9005,-2.9005,-2.9005,-2.9005,-2.9005,-2.9005,-2.9005,-2.9074,-2.9112,-2.9112,-2.9051,-2.9005,-2.9005,-2.9005,-2.9005,-2.9005,-2.9005,-2.9005,-2.9005,-2.9005,-2.9005,-2.9005,-2.9005,-2.9005,-2.9005,-2.9005,-2.9005,-2.9005,-2.9005,-2.9005,-2.9005,-2.9005,-2.9005,-1.2724,-1.4284,-1.6031,-1.8242,-1.9508,-2.0576,-2.1975,-2.3594,-2.4704,-2.4535,-2.5285,-2.6208,-2.7012,-2.6842,-2.6787,-2.7504,-2.7624,-2.7639,-2.7639,-2.7686,-2.78,-2.8075,-2.8129,-2.8268,-2.8574,-2.86,-2.86,-2.86,-2.86,-2.86,-2.86,-2.8662,-2.8682,-2.8682,-2.8761,-2.8785,-2.8785,-2.8785,-2.8834,-2.8893,-2.8893,-2.8917,-2.8982,-2.8994,-2.9005,-2.9005,-2.9005,-2.9005,-2.9005,-2.9005,-2.9005,-2.9005,-2.9005,-2.9005,-2.9005,-2.9005,-2.9005,-2.9005,-2.9005,-2.9005,-2.9005,-2.9005,-2.9005,-2.9005,-2.9005,-2.9005,-2.9005,-2.9005,-2.9005,-2.9005,-2.9005,-2.9005,-2.9005,-2.9005,-2.9005,-2.9005,-2.9005,-2.9005,-2.9005,-2.9005,-2.9005,-2.9005,-2.9005,-2.9005,-2.9005,-2.9005,-2.9005,-2.9005,-2.9005,-2.9005,-2.9005,-2.9005,-2.9005,-2.9005,-2.9005,-2.9005,-2.9005,-2.9005,-2.9005,-2.9005,-2.9005,-2.9005,-2.9005,-2.9005,-2.9005,-2.9005,-2.9005,-2.9005,-2.9005,-2.9005,-2.9005,-2.9005,-1.2153,-1.3925,0.0,-1.8312,-2.0352,-2.189,-2.2212,-2.303,-2.3871,-2.4388,-2.513,-2.5926,-2.6672,-2.6948,-2.7023,-2.6938,-2.7149,-2.7307,-2.7307,-2.7519,-2.78,-2.8075,-2.8339,-2.8518,-2.8587,-2.86,-2.86,-2.86,-2.86,-2.86,-2.86,-2.8612,-2.8625,-2.8625,-2.87,-2.8706,-2.8706,-2.8773,-2.8798,-2.8822,-2.8822,-2.8822,-2.8846,-2.8959,-2.9005,-2.9005,-2.9005,-2.9005,-2.9005,-2.9005,-2.9005,-2.9005,-2.9005,-2.9005,-2.9005,-2.9005,-2.9005,-2.9005,-2.9005,-2.9005,-2.9005,-2.9005,-2.9005,-2.9005,-2.9005,-2.9005,-2.9005,-2.9005,-2.9005,-2.9005,-2.9005,-2.9005,-2.9005,-2.9005,-2.9005,-2.9005,-2.9005,-2.9005,-2.9005,-2.9005,-2.9005,-2.9005,-2.9005,-2.9005,-2.9005,-2.9005,-2.9005,-2.9005,-2.9005,-2.9005,-2.9005,-2.9005,-2.9005,-2.9005,-2.9005,-2.9005,-2.9005,-2.9005,-2.9005,-2.9005,-2.9005,-2.9005,-2.9005,-2.9005,-2.9005,-2.9005,-2.9005,-2.9005,-2.9005,-2.9005,-2.9005,-2.9005,-1.2748,0.0,0.0,-1.9799,0.0,-2.2296,-2.2296,-2.2598,-2.3088,-2.3831,-2.4847,-2.5727,-2.6099,-2.6603,-2.6907,-2.6725,-2.6841,-2.6956,-2.6956,-2.71,-2.7334,-2.7634,-2.7811,-2.7986,-2.8156,-2.8169,-2.8169,-2.8169,-2.8169,-2.8169,-2.8169,-2.8291,-2.8352,-2.8352,-2.8556,-2.8644,-2.8644,-2.8687,-2.8724,-2.8749,-2.8749,-2.8773,-2.8798,-2.8905,-2.894,-2.8952,-2.8994,-2.9005,-2.9005,-2.9005,-2.9005,-2.9005,-2.9005,-2.9005,-2.9005,-2.9005,-2.9005,-2.9005,-2.9005,-2.9005,-2.9005,-2.9005,-2.9005,-2.9005,-2.9005,-2.9005,-2.9005,-2.9005,-2.9005,-2.9005,-2.9005,-2.9005,-2.9005,-2.9005,-2.9005,-2.9005,-2.9005,-2.9005,-2.9005,-2.9005,-2.9005,-2.9005,-2.9005,-2.9005,-2.9005,-2.9005,-2.9005,-2.9005,-2.9005,-2.9005,-2.9005,-2.9005,-2.9005,-2.9005,-2.9005,-2.9005,-2.9005,-2.9005,-2.9005,-2.9005,-2.9005,-2.9005,-2.9005,-2.9005,-2.9005,-2.9005,-2.9005,-2.9005,-2.9005,-2.9005,-2.9005,-2.9005,-1.3066,0.0,-1.8334,-2.1275,-2.2155,0.0,-2.2296,-2.2296,-2.2465,-2.3088,-2.4289,-2.527,-2.5389,-2.5913,-2.6319,-2.6319,-2.6437,-2.6505,-2.6505,-2.6657,-2.6891,-2.7165,-2.7244,-2.74,-2.7669,-2.7701,-2.7701,-2.7701,-2.7701,-2.7701,-2.7701,-2.795,-2.8102,-2.8102,-2.8422,-2.86,-2.86,-2.86,-2.8625,-2.8682,-2.8682,-2.8724,-2.8761,-2.8834,-2.8863,-2.8893,-2.894,-2.897,-2.8975,-2.8975,-2.8994,-2.9005,-2.9005,-2.9005,-2.9005,-2.9005,-2.9005,-2.9005,-2.9005,-2.9005,-2.9005,-2.9005,-2.9005,-2.9005,-2.9005,-2.9005,-2.9005,-2.9005,-2.9005,-2.9005,-2.9005,-2.9005,-2.9005,-2.9005,-2.9005,-2.9005,-2.9005,-2.9005,-2.9005,-2.9005,-2.9005,-2.9005,-2.9005,-2.9005,-2.9005,-2.9005,-2.9005,-2.9005,-2.9005,-2.9005,-2.9005,-2.9005,-2.9005,-2.9005,-2.9005,-2.9005,-2.9005,-2.9005,-2.9005,-2.9005,-2.9005,-2.9005,-2.9005,-2.9005,-2.9005,-2.9005,-2.9005,-2.9005,-2.9005,-2.9005,-2.9005,-2.9005,-1.0996,0.0,-1.8323,0.0,-2.1781,-2.2296,0.0,0.0,-2.233,-2.2431,-2.3105,-2.3883,-2.4525,-2.4728,-2.4795,-2.4795,-2.5321,-2.5761,-2.5761,-2.6563,-2.7149,-2.7197,-2.7461,-2.7657,-2.7701,-2.7701,-2.7701,-2.7701,-2.7701,-2.7701,-2.7701,-2.795,-2.8102,-2.8102,-2.8422,-2.86,-2.86,-2.86,-2.86,-2.8612,-2.8612,-2.8612,-2.8625,-2.8712,-2.8761,-2.881,-2.8822,-2.8858,-2.8917,-2.8917,-2.894,-2.9005,-2.9005,-2.9005,-2.9005,-2.9005,-2.9005,-2.9005,-2.9005,-2.9005,-2.9005,-2.9005,-2.9005,-2.9005,-2.9005,-2.9005,-2.9005,-2.9005,-2.9005,-2.9005,-2.9005,-2.9005,-2.9005,-2.9005,-2.9005,-2.9005,-2.9005,-2.9005,-2.9005,-2.9005,-2.9005,-2.9005,-2.9005,-2.9005,-2.9005,-2.9005,-2.9005,-2.9005,-2.9005,-2.9005,-2.9005,-2.9005,-2.9005,-2.9005,-2.9005,-2.9005,-2.9005,-2.9005,-2.9005,-2.9005,-2.9005,-2.9005,-2.9005,-2.9005,-2.9005,-2.9005,-2.9005,-2.9005,-2.9005,-2.9005,-2.9005,-2.9005,-1.2636,-1.5161,-1.772,0.0,-2.1311,-2.1692,-2.2141,-2.2194,-2.2163,-2.2225,-2.2493,-2.2962,-2.3731,-2.422,-2.4491,-2.4491,-2.4778,-2.4983,-2.4983,-2.5395,-2.5847,-2.6258,-2.6419,-2.67,-2.7114,-2.7148,-2.7148,-2.7148,-2.7148,-2.7148,-2.7148,-2.7426,-2.7681,-2.7869,-2.8161,-2.8409,-2.86,-2.86,-2.86,-2.86,-2.86,-2.86,-2.86,-2.8637,-2.8687,-2.8749,-2.8785,-2.881,-2.8846,-2.8846,-2.8858,-2.8881,-2.8929,-2.894,-2.894,-2.8994,-2.9005,-2.9005,-2.9005,-2.9005,-2.9005,-2.9005,-2.9005,-2.9005,-2.9005,-2.9005,-2.9005,-2.9005,-2.9005,-2.9005,-2.9005,-2.9005,-2.9005,-2.9005,-2.9005,-2.9005,-2.9005,-2.9005,-2.9005,-2.9005,-2.9005,-2.9005,-2.9005,-2.9005,-2.9005,-2.9005,-2.9005,-2.9005,-2.9005,-2.9005,-2.9005,-2.9005,-2.9005,-2.9005,-2.9005,-2.9005,-2.9005,-2.9005,-2.9005,-2.9005,-2.9005,-2.9005,-2.9005,-2.9005,-2.9005,-2.9005,-2.9005,-2.9005,-2.9005,-2.9005,-2.9005,-2.9005,0.0,0.0,-1.6335,-1.914,-2.0291,-2.0938,0.0,0.0,-2.2044,-2.2168,-2.22,-2.238,-2.3006,-2.3577,-2.3949,-2.3949,-2.4101,-2.422,-2.422,-2.4372,-2.4694,-2.5253,-2.549,-2.5828,-2.637,-2.642,-2.642,-2.642,-2.6251,-2.6149,-2.6149,-2.6456,-2.6853,-2.7267,-2.7568,-2.7924,-2.8375,-2.8375,-2.8375,-2.8375,-2.844,-2.8461,-2.8479,-2.8562,-2.8625,-2.8687,-2.8724,-2.8761,-2.8773,-2.8773,-2.8785,-2.8798,-2.8858,-2.8881,-2.8905,-2.8959,-2.8994,-2.9005,-2.9005,-2.9005,-2.9005,-2.9005,-2.9005,-2.9005,-2.9005,-2.9005,-2.9005,-2.9005,-2.9005,-2.9005,-2.9005,-2.9005,-2.9005,-2.9005,-2.9005,-2.9005,-2.9005,-2.9005,-2.9005,-2.9005,-2.9005,-2.9005,-2.9005,-2.9005,-2.9005,-2.9005,-2.9005,-2.9005,-2.9005,-2.9005,-2.9005,-2.9005,-2.9005,-2.9005,-2.9005,-2.9005,-2.9005,-2.9005,-2.9005,-2.9005,-2.9005,-2.9005,-2.9005,-2.9005,-2.9005,-2.9005,-2.9005,-2.9005,-2.9005,-2.9005,-2.9005,-2.9005,0.0,-1.2133,0.0,-1.6174,-1.8365,-2.015,0.0,-2.1544,-2.2044,-2.2168,-2.22,-2.2228,-2.2333,-2.2381,-2.2398,-2.2398,-2.3004,-2.346,-2.346,-2.4068,-2.4508,-2.4541,-2.5169,-2.5625,-2.5643,-2.5659,-2.5659,-2.5659,-2.5015,-2.4609,-2.4609,-2.4927,-2.5446,-2.6169,-2.6498,-2.7021,-2.7728,-2.776,-2.776,-2.776,-2.7992,-2.8129,-2.8143,-2.8466,-2.86,-2.86,-2.86,-2.865,-2.8724,-2.8724,-2.8731,-2.8798,-2.8798,-2.8852,-2.89,-2.89,-2.8947,-2.9005,-2.9005,-2.9005,-2.9005,-2.9005,-2.9005,-2.9005,-2.9005,-2.9005,-2.9005,-2.9005,-2.9005,-2.9005,-2.9005,-2.9005,-2.9005,-2.9005,-2.9005,-2.9005,-2.9005,-2.9005,-2.9005,-2.9005,-2.9005,-2.9005,-2.9005,-2.9005,-2.9005,-2.9005,-2.9005,-2.9005,-2.9005,-2.9005,-2.9005,-2.9005,-2.9005,-2.9005,-2.9005,-2.9005,-2.9005,-2.9005,-2.9005,-2.9005,-2.9005,-2.9005,-2.9005,-2.9005,-2.9005,-2.9005,-2.9005,-2.9005,-2.9005,-2.9005,-2.9005,-2.9005,0.0,0.0,0.0,-1.4517,-1.6375,-1.7864,-1.8647,-2.0044,-2.1214,-2.1393,-2.1773,-2.2135,-2.2265,-2.2296,-2.2296,-2.2296,-2.2516,-2.2699,-2.2699,-2.2919,-2.3257,-2.3746,-2.4019,-2.4374,-2.4847,-2.4897,-2.4897,-2.4897,-2.4643,-2.4491,-2.4491,-2.4613,-2.4898,-2.538,-2.5513,-2.6036,-2.6978,-2.6978,-2.7224,-2.7701,-2.78,-2.784,-2.784,-2.8147,-2.8286,-2.8299,-2.8505,-2.8612,-2.8637,-2.8637,-2.865,-2.8675,-2.8718,-2.8737,-2.8791,-2.8923,-2.8982,-2.9005,-2.9005,-2.9005,-2.9005,-2.9005,-2.9005,-2.9005,-2.9005,-2.9005,-2.9005,-2.9005,-2.9005,-2.9005,-2.9005,-2.9005,-2.9005,-2.9005,-2.9005,-2.9005,-2.9005,-2.9005,-2.9005,-2.9005,-2.9005,-2.9005,-2.9005,-2.9005,-2.9005,-2.9005,-2.9005,-2.9005,-2.9005,-2.9005,-2.9005,-2.9005,-3.084,-3.2082,-3.2082,-3.2082,-3.1188,-2.9133,-2.9005,-2.9005,-2.9005,-2.9005,-2.9005,-2.9005,-2.9005,-2.9005,-2.9005,-2.9005,-2.9005,-2.9005,-2.9005,-2.9005,-0.9667,0.0,0.0,0.0,-1.4599,-1.574,-1.7496,-1.8801,-1.988,-2.0741,-2.1287,-2.1714,-2.2127,-2.2237,-2.2268,-2.2296,-2.2296,-2.2296,-2.2296,-2.2296,-2.2482,-2.297,-2.3241,-2.3594,-2.4085,-2.4135,-2.4135,-2.4135,-2.3898,-2.3763,-2.3763,-2.3763,-2.3986,-2.4445,-2.4685,-2.5286,-2.6239,-2.6271,-2.6621,-2.7367,-2.7474,-2.7537,-2.7535,-2.784,-2.7968,-2.7978,-2.8299,-2.8492,-2.86,-2.86,-2.86,-2.86,-2.8657,-2.8663,-2.8676,-2.8822,-2.8876,-2.8876,-2.8876,-2.8876,-2.887,-2.897,-2.9005,-2.9005,-2.9005,-2.9005,-2.9005,-2.9005,-2.9005,-2.9005,-2.9005,-2.9005,-2.9005,-2.9005,-2.9005,-2.9005,-2.9005,-2.9005,-2.9005,-2.9005,-2.9005,-2.9005,-2.9005,-2.9005,-2.9005,-2.9005,-2.9005,-2.9005,-2.9005,-2.9005,-2.9005,-2.9005,-3.188,-3.3807,-3.3807,-3.3807,-3.243,-2.9207,-2.9005,-2.9005,-2.9005,-2.9005,-2.9005,-2.9005,-2.9005,-2.9005,-2.9005,-2.9005,-2.9005,-2.9005,-2.9005,-2.9005,0.0,0.0,0.0,0.0,0.0,0.0,-1.75,-1.7839,-1.8029,-2.0256,-2.0722,-2.0983,-2.1817,-2.2089,-2.2228,-2.2282,-2.2296,-2.2296,-2.2296,-2.2296,-2.2296,-2.2296,-2.2936,-2.3359,-2.3359,-2.3359,-2.3359,-2.3359,-2.2699,-2.2296,-2.2296,-2.2296,-2.2632,-2.3342,-2.4068,-2.4795,-2.5525,-2.5541,-2.593,-2.6657,-2.7003,-2.7164,-2.7197,-2.7519,-2.7686,-2.7698,-2.7964,-2.8268,-2.8574,-2.8587,-2.86,-2.86,-2.86,-2.86,-2.86,-2.86,-2.86,-2.86,-2.86,-2.86,-2.8637,-2.8893,-2.8994,-2.9005,-2.9005,-2.9005,-2.9005,-2.9005,-2.9005,-2.9005,-2.9005,-2.8994,-2.8994,-2.8994,-2.8994,-2.9005,-2.9005,-2.9005,-2.9005,-2.9005,-2.9005,-2.9005,-2.9005,-2.9005,-2.9005,-2.9005,-2.9005,-2.9005,-2.9005,-2.9005,-2.9005,-2.9005,-3.188,-3.3807,-3.3807,-3.3807,-3.243,-2.9207,-2.9005,-2.9005,-2.9005,-2.9005,-2.9005,-2.9005,-2.9005,-2.9005,-2.9005,-2.9005,-2.9005,-2.9005,-2.9005,-2.9005,-0.8336,0.0,0.0,0.0,0.0,0.0,-1.3301,-1.4407,-1.5757,-1.8019,-1.8914,-1.969,-2.1044,-2.1709,-2.2058,-2.2073,-2.2206,-2.2296,-2.2296,-2.2296,-2.2296,-2.2296,-2.2482,-2.26,-2.26,-2.26,-2.26,-2.26,-2.2429,-2.2296,-2.2296,-2.2296,-2.2381,-2.2598,-2.2801,-2.3257,-2.4002,-2.4002,-2.4644,-2.5913,-2.601,-2.6331,-2.6858,-2.7197,-2.7338,-2.7353,-2.7683,-2.7858,-2.7989,-2.8414,-2.86,-2.86,-2.86,-2.86,-2.86,-2.86,-2.86,-2.86,-2.86,-2.86,-2.8612,-2.8687,-2.8834,-2.9005,-2.9005,-2.9005,-2.9005,-2.9005,-2.9005,-2.9005,-2.9005,-2.8864,-2.8712,-2.8712,-2.8858,-2.9005,-2.9005,-2.9005,-2.9005,-2.9005,-2.9005,-2.9005,-2.9005,-2.9005,-2.9005,-2.9005,-2.9005,-2.9005,-2.9005,-2.9005,-2.9005,-2.9005,-3.188,-3.3807,-3.3807,-3.3807,-3.243,-2.9207,-2.9005,-2.9005,-2.9005,-2.9005,-2.9005,-2.9005,-2.9005,-2.9005,-2.9005,-2.9005,-2.9005,-2.9005,-2.9005,-2.9005,-0.9181,-0.9359,0.0,-0.9994,0.0,0.0,-1.2685,-1.3214,-1.4006,-1.6575,-1.769,-1.8556,-1.973,-2.0541,-2.1153,-2.1454,-2.1653,-2.1872,-2.222,-2.2254,-2.2268,-2.2296,-2.2296,-2.2296,-2.2296,-2.2296,-2.2296,-2.2296,-2.2296,-2.2296,-2.2296,-2.2296,-2.2296,-2.2296,-2.2296,-2.2649,-2.3393,-2.3393,-2.3985,-2.5135,-2.5456,-2.5828,-2.6268,-2.6771,-2.6989,-2.7005,-2.7353,-2.7491,-2.7537,-2.8014,-2.8375,-2.86,-2.86,-2.86,-2.86,-2.86,-2.86,-2.86,-2.86,-2.86,-2.86,-2.86,-2.87,-2.8822,-2.8822,-2.8822,-2.8822,-2.8822,-2.8822,-2.8822,-2.8822,-2.8712,-2.86,-2.86,-2.8712,-2.8822,-2.8822,-2.8822,-2.8876,-2.8982,-2.9005,-2.9005,-2.9005,-2.9005,-2.9005,-2.9005,-2.9005,-2.9482,-3.0821,-2.9831,-2.9005,-2.9005,-3.188,-3.3807,-3.3807,-3.3807,-3.243,-2.9207,-2.9005,-2.9005,-2.9005,-2.9005,-2.9005,-2.9005,-2.9005,-2.9005,-2.9005,-2.9005,-2.9005,-2.9005,-2.9005,-2.9005,-1.063,-1.0572,0.0,-1.2084,-1.121,0.0,-1.3909,-1.3317,-1.287,-1.546,-1.653,-1.7243,-1.7992,-1.8788,-1.9558,-2.0306,-2.0658,-2.1158,-2.2051,-2.2183,-2.2211,-2.2282,-2.2282,-2.2282,-2.2296,-2.2296,-2.2296,-2.2296,-2.2296,-2.2296,-2.2296,-2.2296,-2.2296,-2.2296,-2.2296,-2.2615,-2.3274,-2.3274,-2.3646,-2.4389,-2.5033,-2.5406,-2.5507,-2.6234,-2.6573,-2.6589,-2.6987,-2.7149,-2.7165,-2.7476,-2.7943,-2.851,-2.8574,-2.86,-2.86,-2.86,-2.86,-2.86,-2.86,-2.86,-2.86,-2.86,-2.86,-2.86,-2.86,-2.86,-2.86,-2.86,-2.86,-2.86,-2.86,-2.86,-2.86,-2.86,-2.86,-2.86,-2.86,-2.86,-2.8675,-2.8912,-2.8982,-2.9005,-2.9005,-2.9005,-2.9005,-2.9005,-2.9299,-3.0564,-3.344,-3.0986,-2.9005,-2.9005,-3.1555,-3.3403,-3.377,-3.3476,-3.2063,-2.9189,-2.9005,-2.9005,-2.9005,-2.9005,-2.9005,-2.9005,-2.9005,-2.9005,-2.9005,-2.9005,-2.9005,-2.9005,-2.9005,-2.9005,-1.1831,-1.2298,-1.2856,-1.1727,-1.2493,0.0,-1.2387,-1.2541,-1.3007,-1.3426,-1.3742,-1.436,-1.568,-1.6547,-1.7294,-1.8025,-1.9124,-2.0373,-2.1828,-2.2044,-2.2089,-2.2197,-2.2228,-2.2225,-2.2296,-2.2296,-2.2296,-2.2296,-2.2296,-2.2296,-2.2296,-2.2296,-2.2296,-2.2296,-2.2296,-2.2364,-2.2499,-2.2499,-2.2885,-2.3613,-2.3765,-2.4137,-2.4745,-2.5473,-2.5812,-2.5845,-2.652,-2.6808,-2.6808,-2.6874,-2.7289,-2.7933,-2.8414,-2.86,-2.86,-2.86,-2.86,-2.86,-2.86,-2.86,-2.86,-2.86,-2.86,-2.86,-2.86,-2.86,-2.86,-2.86,-2.86,-2.86,-2.86,-2.86,-2.86,-2.86,-2.86,-2.86,-2.86,-2.86,-2.8612,-2.8662,-2.8846,-2.9005,-2.9005,-2.9005,-2.9005,-2.9005,-3.1188,-3.3091,-3.3715,-3.0986,-2.9005,-2.9005,-2.9555,-3.0986,-3.3587,-3.1427,-2.9666,-2.9042,-2.9005,-2.9005,-2.9005,-2.9005,-2.9005,-2.9005,-2.9005,-2.9005,-2.9005,-2.9005,-2.9005,-2.9005,-2.9005,-2.9005,-1.3166,-1.3301,-1.367,-1.3128,-1.3375,0.0,0.0,-1.3014,-1.3045,-1.4125,-1.3893,-1.3989,-1.5553,-1.6155,-1.6636,-1.7382,-1.8255,-1.918,-2.0123,-2.1225,-2.2001,-2.2092,-2.2106,-2.2135,-2.224,-2.224,-2.2254,-2.2296,-2.2296,-2.2296,-2.2296,-2.2296,-2.2296,-2.2296,-2.2296,-2.2296,-2.2296,-2.2296,-2.2496,-2.2868,-2.3224,-2.3579,-2.3983,-2.4728,-2.5253,-2.5625,-2.5998,-2.6353,-2.6691,-2.6691,-2.689,-2.7258,-2.7728,-2.8083,-2.8352,-2.8352,-2.8466,-2.86,-2.86,-2.86,-2.86,-2.86,-2.86,-2.86,-2.86,-2.86,-2.86,-2.86,-2.86,-2.8453,-2.7826,-2.8124,-2.86,-2.86,-2.86,-2.86,-2.86,-2.86,-2.86,-2.86,-2.87,-2.8834,-2.8982,-2.9005,-2.9005,-2.9005,-3.0363,-3.1421,-3.1421,-3.139,-3.139,-3.139,-3.139,-3.2063,-3.366,-3.084,-2.9005,-2.9005,-2.9005,-2.9005,-2.9005,-2.9005,-2.9005,-2.9005,-2.9005,-2.9005,-2.9005,-2.9005,-2.9005,-2.9005,-2.9005,-2.9005,-1.4873,-1.4649,-1.4811,-1.5068,-1.4714,-1.444,0.0,0.0,0.0,-1.5213,-1.467,-1.4361,-1.5741,-1.5862,-1.6011,-1.674,-1.7375,-1.7804,-1.7868,-1.9714,-2.1128,-2.1345,-2.1479,-2.1661,-2.1947,-2.1846,-2.1908,-2.2279,-2.2026,-2.1992,-2.2279,-2.2296,-2.2296,-2.2296,-2.2296,-2.2296,-2.2296,-2.2296,-2.2296,-2.2296,-2.2902,-2.319,-2.3207,-2.3949,-2.4694,-2.5406,-2.5541,-2.6031,-2.6691,-2.6691,-2.6691,-2.6725,-2.7069,-2.7502,-2.7936,-2.8006,-2.8219,-2.8497,-2.8574,-2.86,-2.86,-2.86,-2.86,-2.8562,-2.8317,-2.8219,-2.8219,-2.8219,-2.8219,-2.8014,-2.6971,-2.7454,-2.8219,-2.8219,-2.8427,-2.8518,-2.8291,-2.8219,-2.8304,-2.8549,-2.86,-2.8662,-2.89,-2.8917,-2.8917,-2.8917,-2.897,-2.9005,-2.9005,-3.1274,-3.3109,-3.3733,-3.3807,-3.3807,-3.3807,-3.084,-2.9005,-2.9005,-2.9005,-2.9005,-2.9005,-2.9005,-2.9005,-2.9005,-2.9005,-2.9005,-2.9005,-2.9005,-2.9005,-2.9005,-2.9005,-2.9005,-1.7459,-1.7684,-1.7858,-1.6609,-1.7634,-1.8252,-1.561,0.0,-1.6395,-1.4507,0.0,-1.4222,-1.4417,0.0,0.0,-1.445,-1.5714,-1.6387,-1.5757,-1.7001,-1.8261,-1.8985,-1.9603,-2.0271,-2.1059,-2.0538,-2.0763,-2.2195,-2.1028,-2.0859,-2.2229,-2.2296,-2.2296,-2.2296,-2.2296,-2.2296,-2.2296,-2.2296,-2.2296,-2.2296,-2.2381,-2.2415,-2.2448,-2.319,-2.3932,-2.466,-2.5321,-2.6031,-2.6691,-2.6691,-2.6691,-2.6725,-2.7069,-2.7244,-2.7336,-2.7639,-2.789,-2.8132,-2.8484,-2.86,-2.86,-2.86,-2.86,-2.8383,-2.7272,-2.6923,-2.6923,-2.6923,-2.6923,-2.6873,-2.6741,-2.6808,-2.6923,-2.6923,-2.7783,-2.8291,-2.7162,-2.6923,-2.7257,-2.837,-2.86,-2.86,-2.8637,-2.8637,-2.8637,-2.8637,-2.8846,-2.9005,-2.9005,-2.9317,-3.0638,-3.3495,-3.3807,-3.3807,-3.3807,-3.084,-2.9005,-2.9005,-2.9005,-2.9005,-2.9005,-2.9005,-2.9005,-2.9005,-2.9005,-2.9005,-2.9005,-2.9005,-2.9005,-2.9005,-2.9005,-2.9005,-1.7893,-1.7908,-1.7957,-1.7349,-1.7578,-1.7608,-1.628,-1.596,-1.5917,-1.5877,0.0,0.0,0.0,0.0,0.0,0.0,-1.5189,-1.5119,-1.4169,-1.4794,-1.6022,-1.7786,-1.7869,-1.8305,-1.9597,-1.9055,-1.9264,-2.0846,-1.9963,-2.0027,-2.1583,-2.2073,-2.2296,-2.2296,-2.2296,-2.2296,-2.2296,-2.2296,-2.2296,-2.2296,-2.2296,-2.2296,-2.2313,-2.2632,-2.3393,-2.4508,-2.4829,-2.5609,-2.6691,-2.6691,-2.6691,-2.6708,-2.6858,-2.7021,-2.7228,-2.7446,-2.7639,-2.7904,-2.8414,-2.86,-2.86,-2.86,-2.86,-2.8492,-2.7968,-2.7288,-2.6691,-2.6691,-2.6691,-2.6691,-2.6691,-2.6691,-2.6691,-2.6691,-2.7115,-2.7348,-2.6825,-2.6691,-2.6857,-2.7394,-2.75,-2.75,-2.75,-2.811,-2.86,-2.86,-2.8687,-2.8822,-2.8982,-2.9005,-2.9519,-3.0858,-3.1005,-3.177,-3.3642,-3.084,-2.9005,-2.9005,-2.9005,-2.9005,-2.9005,-2.9005,-2.9005,-2.9005,-2.9005,-2.9005,-2.9005,-2.9005,-2.9005,-2.9005,-2.9005,-2.9005,-1.8371,-1.8252,-1.8179,-1.7917,-1.7466,-1.703,-1.6743,-1.6089,-1.5866,-1.6902,-1.6163,0.0,0.0,0.0,0.0,0.0,0.0,-1.451,-1.3264,-1.3219,-1.4061,-1.6115,-1.6409,-1.6903,-1.8084,-1.7339,-1.7597,-1.9521,-1.8628,-1.8927,-2.1062,-2.1701,-2.2076,-2.2296,-2.2296,-2.2296,-2.2296,-2.2296,-2.2296,-2.2296,-2.2296,-2.2296,-2.2296,-2.2296,-2.3105,-2.4491,-2.4491,-2.5337,-2.6691,-2.6691,-2.6691,-2.6691,-2.6691,-2.6858,-2.7069,-2.7181,-2.7289,-2.7489,-2.7926,-2.8083,-2.8083,-2.8083,-2.8317,-2.8518,-2.8179,-2.7424,-2.6691,-2.6691,-2.6691,-2.6691,-2.6691,-2.6691,-2.6691,-2.6691,-2.6691,-2.6691,-2.6691,-2.6691,-2.6691,-2.6691,-2.6691,-2.6962,-2.7791,-2.7997,-2.851,-2.9737,-2.9921,-3.0,-3.0178,-2.9448,-2.9265,-3.0216,-2.9537,-3.0289,-3.3532,-3.1659,-2.9941,-2.906,-2.9005,-2.9005,-2.9005,-2.9005,-2.9005,-2.9005,-2.9005,-2.9005,-2.9005,-2.9005,-2.9445,-3.0289,-2.9409,-2.9005,-1.9648,-1.9648,-1.9404,-1.8418,-1.816,-1.7884,-1.6833,-1.706,-1.7344,-1.6741,-1.7088,-1.7391,-1.7055,0.0,0.0,0.0,0.0,0.0,0.0,-1.2497,-1.239,-1.331,-1.5311,-1.6616,-1.6666,-1.5368,-1.5711,-1.8617,-1.6889,-1.7299,-2.0911,-2.1197,-2.1563,-2.2279,-2.2296,-2.2296,-2.2296,-2.2296,-2.2296,-2.2296,-2.2296,-2.2296,-2.2296,-2.2296,-2.3105,-2.4491,-2.4491,-2.5337,-2.6691,-2.6691,-2.6691,-2.6691,-2.6691,-2.6708,-2.6708,-2.6725,-2.6725,-2.6741,-2.6758,-2.6758,-2.6758,-2.6758,-2.7607,-2.837,-2.7131,-2.6725,-2.6691,-2.6691,-2.6691,-2.6691,-2.6691,-2.6691,-2.6691,-2.6691,-2.6691,-2.6691,-2.6691,-2.6691,-2.6691,-2.6691,-2.6691,-2.7621,-3.0548,-2.8655,-2.8243,-3.258,-3.3248,-3.3248,-3.3263,-3.0532,-2.9906,-3.3285,-3.0858,-3.0289,-3.3532,-3.3715,-3.232,-2.9207,-2.9005,-2.9005,-2.9005,-2.9005,-2.9005,-2.9005,-2.9005,-2.9005,-2.9005,-2.9005,-3.0601,-3.3568,-3.0454,-2.9005,-1.9708,-1.9708,-1.9516,-1.8733,-1.8192,-1.7665,-1.6848,-1.6847,-1.6832,-1.6205,-1.6745,-1.7165,-1.6586,0.0,0.0,0.0,0.0,0.0,0.0,0.0,-1.1448,-1.1737,-1.3293,0.0,-1.3723,-1.3645,-1.4441,-1.646,-1.5906,-1.6891,-2.0203,-2.0857,-2.1491,-2.2279,-2.2296,-2.2296,-2.2296,-2.2296,-2.2296,-2.2296,-2.2296,-2.2296,-2.2296,-2.2296,-2.2835,-2.3814,-2.4288,-2.5066,-2.6015,-2.6488,-2.6691,-2.6691,-2.6691,-2.6691,-2.6691,-2.6691,-2.6691,-2.6691,-2.6691,-2.6691,-2.6691,-2.6691,-2.7004,-2.7272,-2.6824,-2.6691,-2.6691,-2.6691,-2.6691,-2.6691,-2.6691,-2.6691,-2.6691,-2.6691,-2.6691,-2.6691,-2.6691,-2.6691,-2.6691,-2.6691,-2.8298,-2.9989,-3.1021,-3.0345,-2.9531,-2.9033,-3.151,-3.3393,-3.3393,-3.2451,-3.2226,-3.3411,-3.2556,-3.2356,-3.3443,-3.3698,-3.3348,-3.2247,-3.0179,-2.9005,-2.9005,-2.9005,-2.9005,-2.9005,-2.9005,-3.0051,-3.2192,-3.2192,-3.2742,-3.377,-3.2687,-3.2192,-1.9708,-1.9708,-1.9543,-1.8867,-1.8371,-1.7851,-1.706,-1.6968,-1.6907,-1.6396,-1.6681,-1.7043,-1.7089,0.0,0.0,0.0,0.0,0.0,0.0,-1.1626,-1.1274,-1.1022,0.0,0.0,0.0,-1.2481,-1.315,-1.491,-1.4783,-1.5932,-1.898,-2.0144,-2.1076,-2.1846,-2.2147,-2.2296,-2.2296,-2.2296,-2.2296,-2.2296,-2.2296,-2.2296,-2.2296,-2.2296,-2.2699,-2.3427,-2.4186,-2.4915,-2.5659,-2.6387,-2.6691,-2.6691,-2.6691,-2.6691,-2.6691,-2.6691,-2.6691,-2.6691,-2.6691,-2.6691,-2.6691,-2.6691,-2.6691,-2.6691,-2.6691,-2.6691,-2.6691,-2.6691,-2.6691,-2.6691,-2.6691,-2.6691,-2.6691,-2.6691,-2.6691,-2.6691,-2.6691,-2.6691,-2.7029,-2.8078,-2.9871,-3.119,-3.119,-3.119,-3.0531,-2.8586,-3.0767,-3.262,-3.262,-3.262,-3.262,-3.262,-3.262,-3.2832,-3.3349,-3.3563,-3.3675,-3.3675,-3.1798,-3.0711,-3.0711,-2.961,-2.9005,-2.9005,-3.0124,-3.172,-3.3807,-3.3807,-3.3807,-3.3807,-3.3807,-3.355]},{"header":{"parameterUnit":"m.s-1","parameterCategory":1,"la1":30.6,"la2":29.2853,"lo1":-89.7004,"lo2":-87.6739,"dy":0.0162,"dx":0.0183,"nx":112,"ny":82,"refTime":"2024-07-23T06:00:00:Z","depth":0,"parameterNumber":3,"parameterNumberName":"V-component_of_WINDS"},"data":[0.0,0.0,0.0,0.0,0.0,0.0,0.0,0.0,0.0,0.0,0.0,0.0,0.0,0.0,0.0,0.0,0.0,0.0,0.0,0.0,0.0,0.0,0.0,0.0,0.0,0.0,0.0,0.0,0.0,0.0,0.0,0.0,0.0,0.0,0.0,0.0,0.0,0.0,0.0,0.0,0.0,0.0,0.0,0.0,0.0,0.0,0.0,0.0,0.0,0.0,0.0,0.0,0.0,0.0,0.0,0.0,0.0,0.0,0.0,0.0,0.0,0.0,0.0,0.0,0.0,0.0,0.0,0.0,0.0,0.0,0.0,0.0,0.0,0.0,0.0,0.0,0.0,0.0,0.0,0.0,0.0,0.0,0.0,0.0,0.0,0.0,0.0,0.0,0.0,0.0,0.6914,0.7709,0.9477,1.0509,1.0283,1.0347,0.9431,0.7215,0.0,0.0,0.0,0.0,0.0,0.0,0.0,0.0,0.0,0.0,0.0,0.0,0.0,0.0,0.0,0.0,0.0,0.0,0.0,0.0,0.0,0.0,0.0,0.0,0.0,0.0,0.0,0.0,0.0,0.0,0.0,0.0,0.0,0.0,0.0,0.0,0.0,0.0,0.0,0.0,0.0,0.0,0.0,0.0,0.0,0.0,0.0,0.0,0.0,0.0,0.0,0.0,0.0,0.0,0.0,0.0,0.0,0.0,0.0,0.0,0.0,0.0,0.0,0.0,0.0,0.0,0.0,0.0,0.0,0.0,0.0,0.0,0.0,0.0,0.0,0.0,0.0,0.0,0.0,0.0,0.0,0.0,0.0,0.0,0.0,0.0,0.0,0.0,0.0,0.0,0.0,0.0,0.0,0.0,0.0,0.0,0.0,0.0,0.0,0.0,0.0,0.0,0.0,0.0,0.7105,0.929,1.0457,1.1079,1.1041,1.0295,0.9249,0.7907,0.0,0.0,0.0,0.0,0.0,0.0,0.0,0.0,0.0,0.0,0.0,0.0,0.0,0.0,0.0,0.0,0.0,0.0,0.0,0.0,0.0,0.0,0.0,0.0,0.0,0.0,0.0,0.0,0.0,0.0,0.0,0.0,0.0,0.0,0.0,0.0,0.0,0.0,0.0,0.0,0.0,0.0,0.0,0.0,0.0,0.0,0.0,0.0,0.0,0.0,0.0,0.0,0.0,0.0,0.0,0.0,0.0,0.0,0.0,0.0,0.0,0.0,0.0,0.0,0.0,0.0,0.0,0.0,0.0,0.0,0.0,0.0,0.0,0.0,0.0,0.0,0.0,0.0,0.0,0.0,0.0,0.0,0.0,0.0,0.0,0.0,0.0,0.0,0.0,0.0,0.0,0.0,0.0,0.0,0.0,0.0,0.0,0.0,0.0,0.0,0.0,0.0,0.0,0.7237,0.8341,0.9953,1.0964,1.1418,1.1176,1.0256,0.924,0.8167,0.6946,0.0,0.0,0.0,0.0,0.0,0.0,0.0,0.0,0.0,0.0,0.0,0.0,0.0,0.0,0.0,0.0,0.0,0.0,0.0,0.0,0.0,0.0,0.0,0.0,0.0,0.0,0.0,0.0,0.0,0.0,0.0,0.0,0.0,0.0,0.0,0.0,0.0,0.0,0.0,0.0,0.0,0.0,0.0,0.0,0.0,0.0,0.0,0.0,0.0,0.0,0.0,0.0,0.0,0.0,0.0,0.0,0.0,0.0,0.0,0.0,0.0,0.0,0.0,0.0,0.0,0.0,0.0,0.0,0.0,0.0,0.0,0.0,0.0,0.0,0.0,0.0,0.0,0.0,0.0,0.0,0.0,0.0,0.0,0.0,0.0,0.0,0.0,0.0,0.0,0.0,0.0,0.0,0.0,0.0,0.0,0.0,0.0,0.0,0.0,0.0,0.0,0.0,0.8879,0.9468,1.021,1.1139,1.1556,1.1195,1.0179,0.9188,0.8325,0.6671,0.0,0.0,0.0,0.0,0.0,0.0,0.0,0.0,0.0,0.0,0.0,0.0,0.0,0.0,0.0,0.0,0.0,0.0,0.0,0.0,0.0,0.0,0.0,0.0,0.0,0.0,0.0,0.0,0.0,0.0,0.0,0.0,0.0,0.0,0.0,0.0,0.0,0.0,0.0,0.0,0.0,0.0,0.0,0.0,0.0,0.0,0.0,0.0,0.0,0.0,0.0,0.0,0.0,0.0,0.0,0.0,0.0,0.0,0.0,0.0,0.0,0.0,0.0,0.0,0.0,0.0,0.0,0.0,0.0,0.0,0.0,0.0,0.0,0.0,0.0,0.0,0.0,0.0,0.0,0.0,0.0,0.0,0.0,0.0,0.0,0.0,0.0,0.0,0.0,0.0,0.0,0.0,0.0,0.0,0.0,0.0,0.0,0.0,0.0,0.0,0.0,0.0,0.8851,0.9878,1.0255,1.0986,1.1402,1.1384,0.9996,0.895,0.8503,0.6624,0.0,0.0,0.0,0.0,0.0,0.0,0.0,0.0,0.0,0.0,0.0,0.0,0.0,0.0,0.0,0.0,0.0,0.0,0.0,0.0,0.0,0.0,0.0,0.0,0.0,0.0,0.0,0.0,0.0,0.0,0.0,0.0,0.0,0.0,0.0,0.0,0.0,0.0,0.0,0.0,0.0,0.0,0.0,0.0,0.0,0.0,0.0,0.0,0.0,0.0,0.0,0.0,0.0,0.0,0.0,0.0,0.0,0.0,0.0,0.0,0.0,0.0,0.0,0.0,0.0,0.0,0.0,0.0,0.0,0.0,0.0,0.0,0.0,0.0,0.0,0.0,0.0,0.0,0.0,0.0,0.0,0.0,0.0,0.0,0.0,0.0,0.0,0.0,0.0,0.0,0.0,0.0,0.0,0.0,0.0,0.0,0.0,0.0,0.0,0.0,0.0,0.0,0.9321,1.0559,1.0886,1.1589,1.1979,1.1906,1.0559,0.9428,0.8725,0.0,0.0,0.0,0.0,0.0,0.0,0.0,0.0,0.0,0.0,0.0,0.0,0.0,0.0,0.0,0.0,0.0,0.0,0.0,0.0,0.0,0.0,0.0,0.0,0.0,0.0,0.0,0.0,0.0,0.0,0.0,0.0,0.0,0.0,0.0,0.0,0.0,0.0,0.0,0.0,0.0,0.0,0.0,0.0,0.0,0.0,0.0,0.0,0.0,0.0,0.0,0.0,0.0,0.0,0.0,0.0,0.0,0.0,0.0,0.0,0.0,0.0,0.0,0.0,0.0,0.0,0.0,0.0,0.0,0.0,0.0,0.0,0.0,0.0,0.0,0.0,0.0,0.0,0.0,0.0,0.0,0.0,0.0,0.0,0.0,0.0,0.0,0.0,0.0,0.0,0.0,0.0,0.0,0.0,0.0,0.0,0.0,0.0,0.0,0.0,0.0,0.0,0.7804,0.9765,1.1078,1.128,1.1984,1.2259,1.1889,1.0692,0.9532,0.8492,0.0,0.0,0.0,0.0,0.0,0.0,0.0,0.0,0.0,0.0,0.0,0.0,0.0,0.0,0.0,0.0,0.0,0.0,0.0,0.0,0.0,0.0,0.0,0.0,0.0,0.0,0.0,0.0,0.0,0.0,0.0,0.0,0.0,0.0,0.0,0.0,0.0,0.0,0.0,0.0,0.0,0.0,0.0,0.0,0.0,0.0,0.0,0.0,0.0,0.0,0.0,0.0,0.0,0.0,0.0,0.0,0.0,0.0,0.0,0.0,0.0,0.0,0.0,0.0,0.0,0.0,0.0,0.0,0.0,0.0,0.0,0.0,0.0,0.0,0.0,0.0,0.0,0.0,0.0,0.0,0.0,0.0,0.0,0.0,0.0,0.0,0.0,0.0,0.0,0.0,0.0,0.0,0.0,0.0,0.0,0.0,0.0,0.0,0.0,0.0,0.0,0.0,0.8051,1.0129,1.1447,1.1317,1.2034,1.2124,1.1189,1.0249,0.9107,0.0,0.0,0.0,0.0,0.0,0.0,0.0,0.0,0.0,0.0,0.0,0.0,0.0,0.0,0.0,0.0,0.0,0.0,0.0,0.0,0.0,0.0,0.0,0.0,0.0,0.0,0.0,0.0,0.0,0.0,0.0,0.0,0.0,0.0,0.0,0.0,0.0,0.0,0.0,0.0,0.0,0.0,0.0,0.0,0.0,0.0,0.0,0.0,0.0,0.0,0.0,0.0,0.0,0.0,0.0,0.0,0.0,0.0,0.0,0.0,0.0,0.0,0.0,0.0,0.0,0.0,0.0,0.0,0.0,0.0,0.0,0.0,0.0,0.0,0.0,0.0,0.0,0.0,0.0,0.0,0.0,0.0,0.0,0.0,0.0,0.0,0.0,0.0,0.0,0.0,0.0,0.0,0.0,0.0,0.0,0.0,0.0,0.0,0.0,0.0,0.0,0.0,0.0,0.7937,1.0248,1.1772,1.1729,1.2366,1.2582,1.2136,1.1062,0.9776,0.8329,0.0,0.0,0.0,0.0,0.0,0.0,0.0,0.0,0.0,0.0,0.0,0.0,0.0,0.0,0.0,0.0,0.0,0.0,0.0,0.0,0.0,0.0,0.0,0.0,0.0,0.0,0.0,0.0,0.0,0.0,0.0,0.0,0.0,0.0,0.0,0.0,0.0,0.0,0.0,0.0,0.0,0.0,0.0,0.0,0.0,0.0,0.0,0.0,0.0,0.0,0.0,0.0,0.0,0.0,0.0,0.0,0.0,0.0,0.0,0.0,0.0,0.0,0.0,0.0,0.0,0.0,0.0,0.0,0.0,0.0,0.0,0.0,0.0,0.0,0.0,0.0,0.0,0.0,0.0,0.0,0.0,0.0,0.0,0.0,0.0,0.0,0.0,0.0,0.0,0.0,0.0,0.0,0.0,0.0,0.0,0.0,0.0,0.0,0.0,0.0,0.0,0.0,0.811,1.0418,1.1934,1.1934,1.2736,1.2948,1.2175,1.1415,1.0178,0.8262,0.0,0.0,0.0,0.0,0.0,0.0,0.0,0.0,0.0,0.0,0.0,0.0,0.0,0.0,0.0,0.0,0.0,0.0,0.0,0.0,0.0,0.0,0.0,0.0,0.0,0.0,0.0,0.0,0.0,0.0,0.0,0.0,0.0,0.0,0.0,0.0,0.0,0.0,0.0,0.0,0.0,0.0,0.0,0.0,0.0,0.0,0.0,0.0,0.0,0.0,0.0,0.0,0.0,0.0,0.0,0.0,0.0,0.0,0.0,0.0,0.0,0.0,0.0,0.0,0.0,0.0,0.0,0.0,0.0,0.0,0.0,0.0,0.0,0.0,0.0,0.0,0.0,0.0,0.0,0.0,0.0,0.0,0.0,0.0,0.0,0.0,0.0,0.0,0.0,0.0,0.0,0.0,0.0,0.0,0.0,0.0,0.0,0.0,0.0,0.0,0.0,0.0,0.8506,1.0612,1.202,1.2086,1.3121,1.3191,1.1681,1.1445,1.0328,0.7842,0.0,0.0,0.0,0.0,0.0,0.0,0.0,0.0,0.0,0.0,0.0,0.0,0.0,0.0,0.0,0.0,0.0,0.0,0.0,0.0,0.0,0.0,0.0,0.0,0.0,0.0,0.0,0.0,0.0,0.0,0.0,0.0,0.0,0.0,0.0,0.0,0.0,0.0,0.0,0.0,0.0,0.0,0.0,0.0,0.0,0.0,0.0,0.0,0.0,0.0,0.0,0.0,0.0,0.0,0.0,0.0,0.0,0.0,0.0,0.0,1.1217,1.1158,0.0,0.0,0.0,0.0,0.0,0.0,0.0,0.0,0.0,0.0,0.0,0.0,0.0,0.0,0.0,0.0,0.0,0.0,0.0,0.0,0.0,0.0,0.0,0.0,0.0,0.0,0.0,0.0,0.0,0.0,0.0,0.0,0.0,0.0,0.0,0.0,0.0,0.0,0.0,0.0,0.8955,1.0794,1.2177,1.2664,1.3373,1.3269,1.1934,1.1563,1.0514,0.8439,0.7213,0.0,0.0,0.0,0.0,0.0,0.0,0.0,0.0,0.0,0.0,0.0,0.0,0.0,0.0,0.0,0.0,0.0,0.0,0.0,0.0,0.0,0.0,0.0,0.0,0.0,0.0,0.0,0.0,0.0,0.0,0.0,0.0,0.0,0.0,0.0,0.0,0.0,0.0,0.0,0.0,0.0,0.0,0.0,0.0,0.0,0.0,0.0,0.0,0.0,0.0,0.0,0.0,0.0,0.0,0.0,0.0,0.0,0.0,0.0,1.2045,1.1471,0.0,0.0,0.0,0.0,0.0,0.0,0.0,0.0,0.0,0.0,0.0,0.0,0.0,0.0,0.0,0.0,0.0,0.0,0.0,0.0,0.0,0.0,0.0,0.0,0.0,0.0,0.0,0.0,0.0,0.0,0.0,0.0,0.0,0.0,0.0,0.0,0.0,0.0,0.0,0.0,0.9237,1.0898,1.2229,1.2849,1.3438,1.3301,1.2053,1.1757,1.086,0.8997,0.8199,0.0,0.0,0.0,0.0,0.0,0.0,0.0,0.0,0.0,0.0,0.0,0.0,0.0,0.0,0.0,0.0,0.0,0.0,0.0,0.0,0.0,0.0,0.0,0.0,0.0,0.0,0.0,0.0,0.0,0.0,0.0,0.0,0.0,0.0,0.0,0.0,0.0,0.0,0.0,0.0,0.0,0.0,0.0,0.0,0.0,0.0,0.0,0.0,0.0,0.0,0.0,0.0,0.0,1.4853,1.4996,1.4996,1.4996,1.5188,1.5378,1.3291,1.2291,1.2158,1.2158,0.0,0.0,0.0,0.0,0.0,0.0,0.0,0.0,0.0,0.0,0.0,0.0,0.0,0.0,0.0,0.0,0.0,0.0,0.0,0.0,0.0,0.0,1.3027,1.3019,1.3478,1.362,1.2639,0.0,0.0,0.0,0.0,0.0,0.0,0.0,0.0,0.0,0.0,0.0,0.9746,1.1214,1.2387,1.2993,1.3503,1.3356,1.2242,1.1999,1.1215,0.9601,0.9238,0.8283,0.0,0.0,0.0,0.0,0.0,0.0,0.0,0.0,0.0,0.0,0.0,0.0,0.0,0.0,0.0,0.0,0.0,0.0,0.0,0.0,0.0,0.0,0.0,0.0,0.0,0.0,0.0,0.0,0.0,0.0,0.0,0.0,0.7377,0.7187,0.0,0.0,0.0,0.0,0.0,0.0,0.0,0.0,0.0,0.0,0.0,0.0,0.0,1.0597,1.2507,1.1278,1.0908,1.1501,1.3065,1.3823,1.3823,1.3823,1.4758,1.6327,1.5993,0.0,1.4805,1.4805,0.0,0.0,0.0,0.0,0.0,0.0,0.0,0.0,0.0,0.0,0.0,0.0,0.0,0.0,0.0,0.0,0.0,0.0,0.0,0.0,0.0,0.0,1.5994,1.6229,1.6276,1.6218,1.6124,1.3992,1.1812,1.0838,1.0292,0.9427,0.0,0.0,0.0,0.0,0.0,0.0,1.1181,1.2184,1.3019,1.3621,1.3752,1.3513,1.2834,1.2234,1.145,1.0409,0.9237,0.8307,0.7686,0.6496,0.0,0.0,0.0,0.0,0.0,0.0,0.0,0.0,0.0,0.0,0.0,0.0,0.0,0.0,0.0,0.0,0.0,0.0,0.0,0.0,0.0,0.0,0.0,0.0,0.0,0.0,0.0,0.0,0.0,0.7612,0.8276,0.782,0.8244,0.8447,0.0,0.0,0.0,0.0,0.0,0.0,0.0,0.0,0.0,1.1117,1.1689,1.2438,1.3421,1.2743,1.2419,1.2429,1.3214,1.3597,1.3597,1.3597,1.4071,1.4858,1.4858,1.4664,1.4324,1.418,1.3463,1.2185,0.0,0.0,0.0,0.0,0.9508,1.1588,1.1588,1.2299,1.306,1.2186,0.0,0.0,0.0,0.0,0.0,0.0,0.0,1.1561,1.3614,1.5148,1.635,1.7112,1.728,1.728,1.7297,1.6246,1.4799,1.3077,1.2594,1.1718,0.9396,0.9599,0.0,0.0,0.0,1.125,1.1761,1.2451,1.3137,1.3739,1.3804,1.3556,1.2954,1.2318,1.1616,1.0829,0.9916,0.9107,0.8425,0.7749,0.6826,0.0,0.0,0.0,0.0,0.0,0.0,0.0,0.0,0.0,0.0,0.0,0.0,0.0,0.0,0.0,0.0,0.0,0.0,0.0,0.0,0.0,0.0,0.0,0.0,0.0,0.0,0.0,0.0,0.8138,0.8857,0.8622,0.8716,0.8592,0.0,0.0,0.0,0.0,0.0,0.0,1.0067,1.0392,1.0612,1.0835,1.2129,1.305,1.3586,1.3074,1.3074,1.3597,1.3597,1.3597,1.3597,1.3597,1.3597,1.3597,1.3597,1.3597,1.3577,1.3374,1.3305,1.312,1.1329,0.9855,0.8754,0.8754,1.0684,1.3305,1.3305,1.3305,1.3103,1.1954,1.2192,1.2657,1.1313,0.0,0.0,0.0,0.0,1.323,1.4802,1.5635,1.6349,1.7568,1.792,1.8041,1.8157,1.8122,1.7407,1.5196,1.4857,1.4072,1.1424,1.1723,0.0,1.0225,1.1289,1.2343,1.256,1.3048,1.3533,1.3885,1.3924,1.3707,1.3176,1.257,1.1937,1.1268,1.0582,0.9843,0.9034,0.8815,0.7957,0.6372,0.0,0.0,0.0,0.0,0.0,0.0,0.0,0.0,0.0,0.0,0.0,0.0,0.0,0.0,0.0,0.0,0.0,0.0,0.0,0.0,0.0,0.0,0.0,0.0,0.0,0.0,0.0,0.0,0.0,0.859,0.8721,0.0,0.0,0.0,0.0,0.8052,0.8167,0.8582,0.9406,1.0122,1.0565,1.0718,1.0662,1.1601,1.3586,1.1651,1.1651,1.3597,1.3597,1.3597,1.3597,1.3597,1.3597,1.3597,1.3597,1.3597,1.361,1.3588,1.357,1.3583,1.3442,1.3348,1.3265,1.3265,1.3413,1.357,1.357,1.357,1.357,1.3486,1.2357,1.1024,1.0931,1.2079,0.0,0.0,1.5404,1.4687,1.5983,1.6381,1.6819,1.8222,1.8707,1.8956,1.9416,1.925,1.8554,1.6878,1.6577,1.5891,1.3692,0.0,1.3404,1.255,1.2872,1.3462,1.4097,1.4494,1.4594,1.4316,1.4268,1.4124,1.3782,1.3203,1.2568,1.1905,1.0987,1.0202,0.958,0.9007,0.8413,0.7812,0.6669,0.0,0.0,0.0,0.0,0.0,0.0,0.0,0.0,0.0,0.0,0.0,0.0,0.0,0.0,0.0,0.0,0.0,0.0,0.0,0.0,0.0,0.0,0.0,0.0,0.0,0.0,0.0,0.0,0.9205,0.9215,0.0,0.8598,0.8367,0.8451,0.8864,0.9434,0.9851,1.0098,1.0353,1.0528,1.0556,1.0512,1.0863,1.1601,1.0863,1.0863,1.1601,1.0475,0.9931,0.9982,1.1074,1.1601,1.1601,1.1601,1.1601,1.1601,1.1601,1.2384,1.3597,1.3597,1.3597,1.3597,1.3597,1.3597,1.342,1.2073,1.1601,1.1776,1.2803,1.2719,1.2188,1.2188,1.2848,1.3729,1.4433,1.4609,1.4773,1.5697,1.6258,1.6764,1.7531,1.8112,1.8621,1.9072,1.9104,1.9004,1.8683,1.8101,1.7091,1.5293,1.5711,1.5861,1.454,1.5183,1.5686,1.5311,1.537,1.5228,1.4679,1.462,1.4493,1.4154,1.3574,1.2851,1.1958,1.1221,1.0537,0.9892,0.9603,0.8997,0.7982,0.7421,0.6442,0.0,0.0,0.0,0.0,0.0,0.0,0.0,0.0,0.0,0.0,0.0,0.0,0.0,0.0,0.0,0.0,0.0,0.0,0.0,0.0,0.0,0.0,0.0,0.0,0.0,0.8304,0.8979,0.9449,0.9433,0.9215,0.8749,0.843,0.845,0.8884,0.9354,0.9895,1.047,1.0496,1.0496,1.0496,0.9921,0.9629,0.9629,0.9629,0.9629,0.9603,0.8076,0.7338,0.7359,0.8514,0.9458,1.0205,1.0411,1.0385,1.0205,1.0419,1.1309,1.2555,1.2555,1.2555,1.2555,1.2555,1.2555,1.2335,1.0753,1.0198,1.0377,1.1426,1.2289,1.2905,1.2905,1.3224,1.3597,1.3597,1.3918,1.4502,1.5475,1.6034,1.6476,1.7053,1.7626,1.8133,1.8535,1.8774,1.8974,1.9254,1.8972,1.8305,1.6998,1.7363,1.7407,1.6099,1.6504,1.6741,1.6121,1.6047,1.5742,1.4983,1.4994,1.4828,1.4184,1.367,1.3066,1.229,1.145,1.0802,1.0352,0.9894,0.9193,0.8259,0.7749,0.6821,0.544,0.0,0.0,0.0,0.0,0.0,0.0,0.0,0.0,0.0,0.0,0.0,0.0,0.0,0.0,0.0,0.0,0.0,0.0,0.0,0.0,0.0,0.0,0.0,0.8081,0.8477,0.891,0.9239,0.933,0.9203,0.8733,0.8387,0.819,0.819,0.8012,0.8639,1.0342,1.0419,1.0419,1.0419,0.8791,0.7875,0.7848,0.7848,0.7848,0.7821,0.6717,0.6205,0.6205,0.6205,0.7396,0.9536,1.012,1.0043,0.9536,1.012,1.036,1.036,1.0462,1.0496,1.0496,1.0496,1.0496,1.0411,0.9803,0.9588,0.9588,0.9588,1.104,1.2808,1.2808,1.3176,1.3597,1.3597,1.3597,1.3931,1.5354,1.5744,1.5986,1.6892,1.7269,1.7544,1.7967,1.8257,1.8461,1.8481,1.9128,1.9462,1.8817,1.8367,1.7884,1.7233,1.6817,0.0,1.6522,1.6539,1.6166,1.524,1.5426,1.5142,1.3937,1.3599,1.3298,1.2891,1.1712,1.1022,1.0996,0.9792,0.8983,0.8693,0.7642,0.689,0.6485,0.0,0.0,0.0,0.0,0.0,0.0,0.0,0.0,0.0,0.0,0.0,0.0,0.0,0.0,0.0,0.0,0.0,0.0,0.0,0.0,0.0,0.7046,0.7883,0.7561,0.8016,0.8483,0.884,0.8824,0.8758,0.865,0.8242,0.7984,0.7984,0.7923,0.8109,0.858,0.8613,0.8613,0.8613,0.8162,0.7499,0.6663,0.6663,0.6663,0.6663,0.6341,0.6205,0.6205,0.6205,0.6549,0.7133,0.7316,0.7295,0.716,0.7321,0.7375,0.7584,0.9699,1.0496,1.0496,1.0496,1.0496,1.0411,0.9803,0.9588,0.9588,0.9588,1.002,1.0507,1.0507,1.1972,1.3597,1.3597,1.3597,1.3681,1.4095,1.449,1.4846,1.5108,1.5545,1.6126,1.6975,1.7239,1.7578,1.835,1.8674,1.8769,1.8579,1.8456,1.8337,1.8153,1.8012,1.7763,1.7278,1.7222,1.693,1.618,1.6194,1.5841,1.4833,1.4681,1.3953,1.235,1.1882,1.1461,1.1022,1.0199,0.9355,0.8496,0.7523,0.6755,0.0,0.0,0.0,0.0,0.0,0.0,0.0,0.0,0.0,0.0,0.0,0.0,0.0,0.0,0.0,0.0,0.0,0.0,0.0,0.0,0.0,0.0,0.7603,0.7813,0.7587,0.8036,0.8539,0.8878,0.8729,0.86,0.86,0.8189,0.7901,0.7901,0.7901,0.7901,0.7901,0.7901,0.7901,0.7901,0.8333,0.7712,0.5888,0.5858,0.5709,0.5408,0.5408,0.5293,0.5128,0.5873,0.6205,0.6205,0.6205,0.6205,0.6205,0.6205,0.6205,0.6364,0.0,0.0,0.0,0.0,0.8692,0.8639,0.8296,0.819,0.8323,0.9295,0.9588,0.9588,0.9588,1.0695,1.1996,1.2236,1.2929,1.3597,1.3597,1.3834,1.4163,1.4581,1.5164,1.5744,1.6343,1.6714,1.7133,1.7747,1.7908,0.0,1.7948,1.8088,1.8206,1.8206,1.8048,1.7805,1.7425,1.7371,1.7134,1.6512,1.656,1.6154,1.4984,1.4809,0.0,0.0,0.0,1.1527,1.0661,1.0029,0.0,0.0,0.0,0.0,0.0,0.0,0.0,0.0,0.5495,0.507,0.0,0.0,0.0,0.0,0.0,0.0,0.0,0.0,0.0,0.0,0.0,0.0,0.0,0.0,0.0,0.0,0.7901,0.7901,0.7901,0.8307,0.8726,0.902,0.8732,0.8521,0.8521,0.8135,0.7901,0.7901,0.7901,0.7955,0.8075,0.8081,0.0,0.0,0.0,0.8339,0.5885,0.5557,0.5063,0.4434,0.4334,0.4201,0.4087,0.5638,0.6341,0.6341,0.6341,0.6202,0.6006,0.6258,0.6258,0.6101,0.6164,0.6205,0.6205,0.6205,0.6205,0.6205,0.6205,0.0,0.0,0.885,0.9588,0.9588,0.9588,0.9588,0.9718,1.0249,1.1916,1.3525,1.3597,1.3597,1.3823,1.4709,1.5345,1.5746,1.5822,1.6315,1.6757,1.6842,1.6947,1.7039,1.7039,1.7434,1.774,1.774,1.7434,1.7199,1.7199,1.7199,1.7016,1.6532,1.6691,0.0,1.4836,1.4529,1.4222,1.3754,1.2587,1.1403,1.0275,0.9732,0.9474,0.9456,0.9135,0.9311,1.0005,0.9605,0.9292,0.8989,0.6933,0.6388,0.0,0.0,0.0,0.0,0.0,0.0,0.0,0.0,0.0,0.0,0.0,0.0,0.0,0.0,0.0,0.7862,0.7901,0.7901,0.7901,0.7986,0.808,0.8156,0.8088,0.8029,0.8029,0.7955,0.7901,0.7901,0.7901,0.8273,0.913,0.9178,0.9178,0.9178,0.9376,0.9253,0.8694,0.6507,0.5329,0.5196,0.46,0.0,0.6772,0.7093,0.7251,0.7251,0.7251,0.6269,0.4803,0.6523,0.656,0.5518,0.5998,0.6205,0.6205,0.6205,0.6205,0.6205,0.6205,0.6205,0.6576,0.885,0.9588,0.9588,0.9588,0.9588,0.0,0.9744,1.1342,1.3113,1.3501,1.3597,1.3644,1.3847,1.3988,1.4212,1.4664,1.4994,1.5287,1.5776,1.5974,1.6073,1.6073,1.6752,1.7323,1.7323,1.7261,1.7199,1.7199,1.7199,1.716,1.7055,1.7091,1.6647,1.5492,1.5323,1.4701,1.3326,1.2494,1.174,1.1028,1.0678,1.0456,1.034,0.9712,0.9616,1.0086,0.9671,0.9644,0.9922,0.8733,0.7908,0.0,0.0,0.0,0.0,0.0,0.0,0.0,0.0,0.0,0.0,0.0,0.6431,0.6025,0.0,0.7513,0.7841,0.7901,0.7901,0.7901,0.7901,0.7901,0.7901,0.7901,0.7901,0.7901,0.7901,0.8009,0.8273,0.8543,0.8926,0.9486,0.9516,0.9189,0.8463,0.8436,0.8791,0.9484,0.6769,0.6083,0.7419,0.5686,0.6145,0.8501,0.8501,0.8501,0.8436,0.7031,0.562,0.4392,0.5664,0.5841,0.533,0.5622,0.6052,0.6516,0.6516,0.6516,0.6483,0.6276,0.6205,0.6468,0.819,0.8918,0.9158,0.9499,0.9588,0.964,0.9751,1.0727,1.1819,1.2408,1.2832,1.3132,1.317,1.361,1.4082,1.4374,1.4732,1.5096,1.5444,1.5622,1.571,1.5788,1.6182,1.6497,1.6497,1.6497,1.6582,1.6808,1.6863,1.6947,1.7178,1.6989,1.6515,1.5665,1.5107,1.4368,1.3319,1.2639,1.2001,1.1375,1.0957,1.0717,1.0659,1.029,1.0231,1.0489,1.0297,1.0314,1.0541,1.0076,0.9473,0.0,0.0,0.0,0.0,0.0,0.0,0.0,0.0,0.6981,0.7085,0.6949,0.6952,0.7331,0.7256,0.7309,0.7811,0.7928,0.7955,0.7901,0.7901,0.7848,0.7708,0.7821,0.7925,0.7997,0.7899,0.8022,0.8431,0.8851,0.9092,0.9092,0.9092,0.8565,0.7451,0.7158,0.7554,0.87,0.6507,0.6507,0.8662,0.6441,0.6572,0.8694,0.8694,0.8694,0.8565,0.6379,0.513,0.4686,0.4926,0.5174,0.5353,0.543,0.5893,0.6533,0.6518,0.666,0.6817,0.6478,0.6346,0.6447,0.7295,0.7874,0.8375,0.8997,0.9212,0.938,0.9862,1.0231,1.0641,1.1342,1.194,1.2418,1.2604,1.3375,1.4082,1.4082,1.4559,1.5028,1.5096,1.5242,1.5365,1.55,1.5522,1.5589,1.5766,1.581,1.5942,1.6315,1.6358,1.6509,1.6892,1.6595,1.6113,1.5467,1.461,1.3923,1.3524,1.2953,1.2396,1.1849,1.131,1.0996,1.0988,1.0917,1.0922,1.1033,1.1021,1.1034,1.1034,1.1127,1.0853,0.5605,0.5787,0.6176,0.676,0.6758,0.7015,0.0,0.0,0.7924,0.8159,0.8289,0.8161,0.7524,0.777,0.8016,0.7916,0.8062,0.8115,0.7928,0.7901,0.766,0.7009,0.7494,0.8048,0.8395,0.7935,0.7593,0.7555,0.759,0.7647,0.7647,0.7647,0.7549,0.7419,0.6243,0.569,0.5855,0.5557,0.5557,0.5855,0.5557,0.5557,0.5855,0.5855,0.5855,0.5851,0.5528,0.5591,0.5877,0.5625,0.5548,0.5614,0.5894,0.5829,0.5542,0.5477,0.6132,0.7057,0.7014,0.6884,0.6694,0.6457,0.6682,0.7089,0.7593,0.7913,0.8349,0.9655,1.0231,1.0641,1.1342,1.1559,1.1692,1.2024,1.2555,1.2982,1.2982,1.3505,1.3999,1.4127,1.4246,1.4408,1.4524,1.4558,1.4835,1.5678,1.581,1.581,1.5876,1.5876,1.5898,1.5942,1.5898,1.5594,1.4862,1.4322,1.3964,1.3843,1.3388,1.3089,1.3008,1.2444,1.2087,1.2027,1.1674,1.1475,1.1423,1.1488,1.1519,1.1529,1.1944,1.1632,0.6925,0.7331,0.756,0.7481,0.7732,0.8106,0.8375,0.8325,0.8278,0.8473,0.8561,0.8481,0.8062,0.8109,0.8168,0.8088,0.8035,0.7848,0.7333,0.7252,0.7058,0.6512,0.6729,0.7121,0.763,0.7624,0.744,0.7079,0.7036,0.7162,0.7386,0.7386,0.7223,0.6826,0.6272,0.5782,0.5395,0.5395,0.5395,0.5395,0.5395,0.5395,0.5395,0.5395,0.5395,0.5395,0.5395,0.5524,0.5653,0.5289,0.519,0.5319,0.5253,0.5123,0.5044,0.5828,0.6444,0.6894,0.7096,0.7109,0.6984,0.6657,0.6765,0.7097,0.7485,0.7687,0.805,0.935,0.9715,0.9914,1.0702,1.1158,1.141,1.1569,1.1974,1.2408,1.274,1.3016,1.3338,1.3797,1.3928,1.4022,1.4257,1.428,1.4432,1.4903,1.4994,1.5085,1.5355,1.539,1.539,1.539,1.539,1.5139,1.4463,1.4226,1.3949,1.3584,1.3282,1.3033,1.2753,1.2446,1.2299,1.2266,1.21,1.1995,1.1969,1.1985,1.2017,1.2017,1.2214,1.22,0.7507,0.8027,0.8275,0.7867,0.8368,0.8845,0.827,0.8337,0.8525,0.8646,0.8626,0.8547,0.8421,0.8321,0.8215,0.8141,0.7919,0.7577,0.7053,0.6931,0.6686,0.6179,0.6311,0.6556,0.6878,0.6983,0.6939,0.6642,0.6436,0.649,0.683,0.6835,0.6634,0.6141,0.6141,0.5881,0.5395,0.5395,0.5395,0.5395,0.5395,0.5395,0.5395,0.5395,0.5395,0.5395,0.5395,0.5395,0.5362,0.5096,0.506,0.5156,0.4858,0.4725,0.4891,0.621,0.6609,0.6527,0.6752,0.7049,0.7237,0.7002,0.7078,0.7317,0.7406,0.7439,0.7683,0.8783,0.9025,0.9171,1.0069,1.0684,1.1074,1.1074,1.1444,1.19,1.231,1.2482,1.2725,1.3266,1.3362,1.3433,1.3661,1.3836,1.3954,1.4116,1.421,1.4454,1.4857,1.4903,1.4903,1.4903,1.4869,1.4663,1.4186,1.414,1.3943,1.3475,1.334,1.3137,1.2791,1.2693,1.2597,1.2473,1.2462,1.24,1.2307,1.24,1.2462,1.2473,1.2597,1.2736,0.6448,0.6886,0.7429,0.7806,0.8167,0.8494,0.8717,0.8791,0.8798,0.8804,0.8692,0.8547,0.8421,0.8395,0.8295,0.7955,0.7639,0.7407,0.737,0.7219,0.6803,0.5993,0.6597,0.6903,0.6449,0.5961,0.583,0.6191,0.5551,0.5235,0.5451,0.5458,0.5462,0.5428,0.5428,0.5428,0.5395,0.5395,0.5395,0.5395,0.5395,0.5395,0.5395,0.5395,0.5395,0.5395,0.5395,0.5395,0.5395,0.5395,0.5395,0.5362,0.5156,0.5087,0.5219,0.6309,0.6379,0.5921,0.5951,0.6634,0.7446,0.7247,0.7318,0.7408,0.6974,0.6821,0.7012,0.7807,0.8172,0.8567,0.9547,1.0164,1.0522,1.0522,1.0922,1.1326,1.1343,1.1685,1.2073,1.2218,1.2242,1.2282,1.2438,1.2885,1.329,1.3409,1.3763,1.4114,1.4384,1.4419,1.4419,1.4419,1.4292,1.4163,1.402,1.402,1.3939,1.38,1.3776,1.3766,1.3755,1.3627,1.3338,1.2894,1.2884,1.2689,1.2307,1.2699,1.2884,1.2894,1.3338,1.3283,0.7111,0.7646,0.8072,0.8203,0.8444,0.8691,0.8784,0.8804,0.8804,0.8804,0.8692,0.8573,0.8547,0.8401,0.8215,0.8115,0.8201,0.8094,0.767,0.774,0.7516,0.6659,0.6966,0.7062,0.6582,0.6292,0.6318,0.6777,0.6553,0.6313,0.6067,0.6075,0.5848,0.5428,0.5395,0.5395,0.5395,0.5395,0.5395,0.5395,0.5395,0.5395,0.5395,0.5395,0.5395,0.5395,0.5395,0.5395,0.5395,0.5395,0.5395,0.5428,0.5683,0.5484,0.5186,0.591,0.6276,0.6511,0.7101,0.7396,0.7479,0.7408,0.7437,0.7465,0.7295,0.7038,0.6982,0.7921,0.8046,0.819,0.947,0.9925,1.0113,1.0437,1.065,1.0871,1.1226,1.1418,1.1635,1.1999,1.2064,1.2113,1.2242,1.2414,1.2691,1.3184,1.3752,1.4163,1.4257,1.428,1.4303,1.4396,1.435,1.428,1.414,1.4057,1.3949,1.3821,1.3716,1.3668,1.3668,1.3621,1.3514,1.3359,1.3359,1.331,1.3155,1.331,1.3359,1.3369,1.3514,1.3491,0.7691,0.8093,0.8365,0.8504,0.8671,0.8804,0.8804,0.8804,0.8804,0.8804,0.8665,0.8508,0.8397,0.8191,0.7953,0.7713,0.7795,0.779,0.7518,0.7671,0.7725,0.7469,0.7653,0.7696,0.7391,0.7068,0.6953,0.7121,0.7144,0.7012,0.6785,0.6761,0.6437,0.5785,0.5752,0.5657,0.5395,0.5395,0.5395,0.5395,0.5395,0.5395,0.5395,0.5395,0.5395,0.5395,0.5395,0.5395,0.5395,0.5395,0.5395,0.5428,0.5719,0.5587,0.5289,0.5873,0.6367,0.6835,0.7363,0.7689,0.7852,0.7852,0.7852,0.7837,0.7757,0.7539,0.7411,0.8002,0.8061,0.8186,0.912,0.9484,0.9692,1.0146,1.0249,1.0377,1.0896,1.1023,1.1091,1.141,1.146,1.1485,1.1584,1.1783,1.2104,1.2677,1.3184,1.3637,1.4069,1.4012,1.4012,1.4303,1.4326,1.428,1.414,1.401,1.3868,1.3739,1.3644,1.3597,1.3597,1.3597,1.3597,1.3597,1.3597,1.3597,1.3597,1.3597,1.3597,1.3597,1.3396,1.3314,0.8049,0.8213,0.8317,0.8711,0.8804,0.8804,0.8804,0.8798,0.8784,0.8738,0.853,0.8248,0.7973,0.7791,0.7467,0.6828,0.6623,0.6707,0.7151,0.7236,0.7534,0.0,0.0,0.8681,0.864,0.809,0.7587,0.7274,0.7212,0.7229,0.734,0.7354,0.7055,0.6367,0.6334,0.6042,0.5395,0.5395,0.5395,0.5395,0.5395,0.5395,0.5395,0.5395,0.5395,0.5395,0.5395,0.5395,0.5395,0.5395,0.5395,0.5395,0.5428,0.5428,0.5495,0.6141,0.6597,0.6859,0.6736,0.7493,0.8517,0.8517,0.8517,0.8474,0.8268,0.8224,0.8176,0.7977,0.8196,0.8515,0.8591,0.8917,0.9278,0.9666,0.9762,0.9899,1.0334,1.0445,1.0462,1.0462,1.0488,1.0496,1.0496,1.1015,1.1526,1.1909,1.208,1.2594,1.3763,1.3563,1.3552,1.4082,1.4152,1.4116,1.3962,1.3844,1.3692,1.3586,1.3563,1.3563,1.3597,1.3597,1.3597,1.3597,1.3597,1.3597,1.3597,1.3597,1.3597,1.3597,1.304,1.2788,0.8108,0.8415,0.8685,0.8765,0.8804,0.8804,0.8804,0.8644,0.8424,0.8123,0.7726,0.7343,0.702,0.7254,0.7428,0.7261,0.7934,0.0,0.8651,0.9003,0.0,0.8601,0.0,0.866,0.7958,0.7907,0.7933,0.7948,0.7447,0.6981,0.6687,0.6662,0.6338,0.5686,0.5653,0.5557,0.5395,0.5395,0.5395,0.5395,0.5395,0.5395,0.5395,0.5395,0.5395,0.5395,0.5395,0.5395,0.5395,0.5395,0.5395,0.5462,0.5947,0.5848,0.5495,0.6141,0.6465,0.6531,0.6498,0.7358,0.8517,0.8517,0.8517,0.8506,0.8441,0.8328,0.8216,0.837,0.8374,0.8449,0.8792,0.8968,0.9106,0.9313,0.9361,0.9387,0.9498,0.9777,0.9976,0.9976,1.0249,1.0496,1.0496,1.0964,1.1368,1.1469,1.151,1.1801,1.257,1.257,1.2764,1.3375,1.3457,1.3433,1.342,1.329,1.3194,1.316,1.3064,1.3194,1.3586,1.3597,1.3597,1.3597,1.3597,1.3597,1.3597,1.3597,1.3597,1.3597,1.304,1.2788,0.8394,0.8625,0.8804,0.8804,0.8804,0.8744,0.8458,0.8297,0.8032,0.7508,0.7104,0.6751,0.6466,0.683,0.7113,0.0,0.0,0.0,0.8895,0.9211,0.9368,0.0,0.9414,0.0,0.8913,0.8701,0.871,0.8946,0.8095,0.7471,0.7195,0.7175,0.6839,0.607,0.607,0.5899,0.559,0.5528,0.5494,0.5494,0.5494,0.546,0.5395,0.5395,0.5395,0.5395,0.5395,0.5395,0.5395,0.5395,0.5395,0.5428,0.5818,0.5719,0.5462,0.5815,0.6141,0.64,0.64,0.7125,0.8079,0.8404,0.8506,0.8571,0.8835,0.8867,0.8788,0.8798,0.875,0.8693,0.8835,0.8786,0.8771,0.9045,0.9011,0.8995,0.9159,0.951,0.9865,1.0061,1.0326,1.0496,1.0496,1.0752,1.0947,1.0947,1.0947,1.1065,1.1417,1.1683,1.2178,1.3016,1.2885,1.2861,1.3088,1.2774,1.2555,1.2555,1.2482,1.2579,1.288,1.3122,1.3242,1.3242,1.3491,1.3597,1.3597,1.3597,1.3597,1.3586,1.2808,1.2457,0.8738,0.8804,0.8804,0.8804,0.8804,0.8651,0.8039,0.7846,0.7583,0.6868,0.0,0.6227,0.5996,0.6425,0.6685,0.6253,0.0,0.7921,0.8597,0.874,0.9123,1.0078,1.0015,0.9994,1.0269,0.971,0.9485,0.9828,0.8917,0.8285,0.8087,0.8101,0.7717,0.6805,0.677,0.6444,0.5803,0.5661,0.5599,0.5616,0.5599,0.5566,0.5453,0.5453,0.5443,0.5426,0.5426,0.5416,0.5395,0.5395,0.5395,0.5395,0.5395,0.5395,0.5395,0.5395,0.5785,0.6268,0.6268,0.6662,0.7256,0.8102,0.8425,0.8619,0.9183,0.9414,0.9462,0.9221,0.9149,0.9095,0.8824,0.8566,0.844,0.8816,0.8701,0.86,0.8949,0.938,0.9847,1.0326,1.0462,1.0496,1.0496,1.0496,1.0496,1.0496,1.0496,1.0496,1.0496,1.0964,1.1667,1.2677,1.2374,1.2276,1.2716,1.2246,1.1909,1.1909,1.1909,1.1934,1.2008,1.2457,1.2691,1.2691,1.3218,1.3467,1.3396,1.3467,1.3467,1.3372,1.2369,1.1909,0.8791,0.8804,0.8804,0.8804,0.8804,0.8651,0.8039,0.7519,0.0,0.0,0.5488,0.5143,0.478,0.5643,0.6455,0.6651,0.7741,0.8734,0.9189,0.9515,0.9636,0.0,0.9434,0.9368,0.9187,0.9069,0.9189,0.9603,0.931,0.8643,0.75,0.7611,0.726,0.6276,0.609,0.5946,0.58,0.5661,0.5647,0.5762,0.5647,0.5637,0.5725,0.5725,0.5661,0.5549,0.5549,0.5515,0.5395,0.5395,0.5395,0.5395,0.5395,0.5395,0.5395,0.5395,0.5462,0.5557,0.5557,0.5657,0.5951,0.719,0.8004,0.8522,0.8651,0.9055,0.9504,0.9456,0.9444,0.9378,0.9101,0.8836,0.8584,0.8452,0.8224,0.8029,0.8109,0.8738,0.9439,0.9847,1.0223,1.0496,1.0496,1.0496,1.0496,1.0496,1.0496,1.0496,1.0496,1.059,1.0896,1.1535,1.151,1.1485,1.1585,1.1494,1.1418,1.1418,1.1418,1.1594,1.1983,1.2098,1.2147,1.2147,1.2677,1.2725,1.227,1.2725,1.2701,1.227,1.1694,1.1418,0.8804,0.8804,0.8804,0.8804,0.8804,0.8571,0.7639,0.0,0.0,0.0,0.4842,0.4606,0.4529,0.529,0.0,0.6558,0.7474,0.8345,0.9009,0.9337,0.959,0.9711,0.9863,1.0044,1.0181,1.0183,1.0408,1.0949,1.0912,1.0121,0.8428,0.7844,0.752,0.7446,0.6438,0.6357,0.729,0.6324,0.6281,0.7183,0.6245,0.6025,0.6405,0.5979,0.5725,0.5624,0.5962,0.5837,0.5462,0.6148,0.6017,0.5428,0.5782,0.5719,0.5395,0.5395,0.5395,0.5395,0.5395,0.5395,0.5557,0.6568,0.712,0.754,0.8291,0.8721,0.9049,0.9414,0.9516,0.9486,0.9354,0.9011,0.871,0.8722,0.8421,0.8187,0.8421,0.8678,0.9021,0.9413,0.9673,0.9888,1.0087,1.0138,1.0223,1.0462,1.0496,1.0496,1.0496,1.0496,1.0701,1.1251,1.1049,1.0998,1.1276,1.1049,1.0871,1.0871,1.0871,1.0964,1.1217,1.1485,1.1644,1.1644,1.2123,1.227,1.2008,1.227,1.2236,1.1983,1.1519,1.1301,0.8804,0.8804,0.8804,0.8804,0.8804,0.8497,0.7273,0.6747,0.0,0.0,0.4388,0.4257,0.447,0.5064,0.5722,0.0,0.7066,0.7806,0.8677,0.9084,0.9497,0.0,1.0412,0.0,1.1335,1.1389,1.1635,1.2258,1.2261,1.1477,0.9787,0.8542,0.8165,0.8813,0.7413,0.7296,0.8699,0.7264,0.7171,0.8456,0.7134,0.6805,0.7239,0.6457,0.6126,0.6152,0.6452,0.6304,0.5918,0.6961,0.6769,0.5885,0.6404,0.6305,0.5818,0.5818,0.5818,0.5818,0.5818,0.5818,0.5918,0.6437,0.6629,0.6859,0.8129,0.8587,0.8818,0.935,0.9516,0.9516,0.9516,0.9155,0.8824,0.8975,0.8698,0.847,0.8794,0.8767,0.8751,0.9015,0.9133,0.9309,0.9614,0.9658,0.9821,1.0283,1.0283,1.0283,1.047,1.0411,1.0565,1.1074,1.0744,1.0667,1.1099,1.0744,1.0496,1.0496,1.0496,1.0496,1.0496,1.0896,1.1124,1.1124,1.161,1.1785,1.1685,1.1785,1.1785,1.166,1.1293,1.1124,0.8804,0.8804,0.8804,0.8804,0.8804,0.8497,0.7273,0.0,0.0,0.4606,0.4069,0.3929,0.4184,0.479,0.5514,0.6369,0.0,0.7806,0.8677,0.9292,0.976,1.005,0.0,0.0,1.1335,1.1389,1.1635,1.2258,1.212,1.1706,1.0956,0.9787,0.9188,0.9263,0.8903,0.8713,0.8703,0.8417,0.8272,0.8299,0.8272,0.8221,0.8162,0.74,0.7377,0.7831,0.6983,0.684,0.7223,0.7354,0.7321,0.7223,0.7288,0.7256,0.7223,0.7223,0.7223,0.7223,0.7223,0.7223,0.7223,0.7288,0.7321,0.7451,0.8258,0.892,0.942,0.9484,0.9516,0.9516,0.9516,0.9287,0.9005,0.8794,0.871,0.8602,0.8395,0.8679,0.8907,0.8705,0.8942,0.9211,0.9237,0.9263,0.9387,0.9795,0.9543,0.9603,1.0393,1.0138,1.0061,1.0514,1.0522,1.0522,1.0573,1.0522,1.0496,1.0496,1.0496,1.0496,1.0496,1.0547,1.0565,1.0565,1.1099,1.1116,1.065,1.1124,1.1124,1.065,1.059,1.0565,0.8711,0.8804,0.8804,0.8804,0.8677,0.8277,0.7233,0.0,0.5605,0.4575,0.3961,0.376,0.4231,0.4541,0.5007,0.5872,0.6413,0.6948,0.7612,0.8404,0.9065,0.9504,1.0007,1.0595,1.1322,1.1389,1.1635,1.2258,1.2224,1.2077,1.1855,1.0683,1.0233,1.0726,0.9712,0.9604,1.0507,0.951,0.9388,1.0162,0.906,0.8702,0.8989,0.8069,0.7726,0.7842,0.7864,0.7674,0.7451,0.8301,0.8172,0.7451,0.7874,0.7809,0.7386,0.7386,0.7386,0.7386,0.7386,0.7386,0.7484,0.7907,0.8069,0.8129,0.8425,0.8683,0.8985,0.9382,0.9516,0.9516,0.9516,0.9432,0.9281,0.9005,0.8939,0.8915,0.8806,0.8802,0.8748,0.8481,0.854,0.8701,0.8818,0.8837,0.8968,0.9387,0.9309,0.9316,0.9681,0.9543,0.9517,0.9706,1.018,1.0496,1.0496,1.0496,1.0496,1.0496,1.0496,1.0496,1.0496,1.0496,1.0496,1.0496,1.0701,1.0718,1.0496,1.0718,1.0701,1.0496,1.0496,1.0496,0.8544,0.8744,0.8804,0.8804,0.8591,0.8161,0.0,0.632,0.5468,0.4682,0.4049,0.383,0.4409,0.4516,0.4775,0.5568,0.605,0.6506,0.7074,0.7929,0.8684,0.9158,0.0,1.0334,1.1209,1.1495,1.1857,1.2271,1.2305,1.2305,1.2305,1.1502,1.1248,1.1781,1.0689,1.0614,1.1706,1.0576,1.0355,1.0991,0.9985,0.9494,0.9437,0.8771,0.8404,0.8363,0.8397,0.8146,0.7777,0.8565,0.8301,0.7484,0.8199,0.8032,0.7419,0.7647,0.7712,0.7712,0.7712,0.7842,0.8107,0.8624,0.8786,0.8786,0.8786,0.8786,0.8888,0.935,0.9516,0.9516,0.9516,0.9516,0.9468,0.9269,0.9221,0.9197,0.9113,0.8951,0.8722,0.8357,0.8291,0.8312,0.8386,0.8395,0.8527,0.8968,0.8896,0.8896,0.9159,0.9106,0.908,0.9185,0.9758,1.0146,1.0275,1.0275,1.036,1.0496,1.0496,1.0496,1.0496,1.0496,1.0496,1.0496,1.0496,1.0496,1.0496,1.0496,1.0496,1.0496,1.0496,1.0496,0.8322,0.8591,0.8804,0.8804,0.8591,0.8161,0.7206,0.632,0.5528,0.492,0.4369,0.4154,0.4694,0.4786,0.4993,0.5601,0.6199,0.6807,0.7404,0.8237,0.8884,0.0,0.9506,1.0064,1.0915,1.1784,1.2291,1.2305,1.2305,1.2305,1.2305,1.2298,1.2187,1.2003,1.1966,1.1892,1.1706,1.1669,1.1163,1.0117,1.1169,1.0858,0.9405,0.9655,0.9834,0.9789,0.833,0.7999,0.8425,0.7712,0.7419,0.7484,0.8199,0.8032,0.7484,0.8231,0.849,0.849,0.849,0.892,0.9484,0.9484,0.9484,0.9484,0.9484,0.9484,0.9484,0.9484,0.9516,0.9516,0.9516,0.9516,0.9484,0.951,0.9478,0.9438,0.9155,0.9095,0.8939,0.8393,0.8291,0.8207,0.7949,0.7901,0.8055,0.8547,0.8215,0.8215,0.908,0.8837,0.8758,0.9159,0.9211,0.9387,0.9762,0.9814,1.0002,1.047,1.0496,1.0496,1.0496,1.0496,1.0496,1.0496,1.0496,1.0496,1.0496,1.0496,1.0496,1.0496,1.0496,1.0496,0.7095,0.7538,0.7819,0.7395,0.7221,0.7048,0.6559,0.5745,0.5033,0.4833,0.4375,0.4161,0.4701,0.4807,0.5066,0.5903,0.6358,0.0,0.7404,0.0,0.0,0.9178,1.0177,1.1062,1.1578,1.2024,1.2305,1.2305,1.2305,1.2305,1.2305,1.2305,1.2268,1.2224,1.2224,1.215,1.2114,1.2114,1.1883,1.1389,1.1544,1.1194,1.0418,1.031,1.0176,0.9948,0.9464,0.9306,0.9376,0.9145,0.8952,0.8856,0.9087,0.9055,0.8861,0.9087,0.9183,0.9119,0.8657,0.8952,0.942,0.8952,0.9119,0.9516,0.9516,0.9516,0.9516,0.9516,0.9516,0.9516,0.9516,0.9516,0.9516,0.9516,0.9516,0.9492,0.9402,0.9384,0.9275,0.8921,0.8848,0.871,0.8243,0.8165,0.816,0.8139,0.8008,0.8008,0.8268,0.8189,0.8162,0.8295,0.8321,0.8606,0.9335,0.9387,0.9439,0.9603,0.9603,0.9732,1.0002,1.0035,1.0164,1.0496,1.0496,1.0496,1.0496,1.0496,1.0496,1.0496,1.0496,1.0334,0.6315,0.6814,0.7123,0.682,0.6587,0.6372,0.6077,0.5304,0.4648,0.4648,0.4389,0.4288,0.4721,0.49,0.5184,0.5773,0.6196,0.6653,0.0,0.0,0.0,0.9471,1.0536,1.1376,1.167,1.2064,1.2305,1.2305,1.2204,1.2138,1.2138,1.2031,1.1971,1.1971,1.2078,1.2138,1.2138,1.2138,1.1972,1.1669,1.179,1.1449,1.0711,1.078,1.0605,1.0167,0.9867,0.9658,0.0,0.9242,0.9049,0.8952,0.9113,0.9049,0.8856,0.9049,0.9119,0.9055,0.8651,0.8952,0.9414,0.9017,0.9151,0.9516,0.9516,0.9516,0.9516,0.9516,0.9516,0.9516,0.9516,0.9516,0.9516,0.9516,0.9516,0.9516,0.9516,0.9516,0.9432,0.9149,0.9095,0.8963,0.8536,0.8463,0.8345,0.8087,0.8045,0.8009,0.7913,0.7901,0.7901,0.7901,0.7901,0.8115,0.8666,0.887,0.9047,0.9185,0.9211,0.9309,0.9562,0.9562,0.9725,0.9999,0.9999,1.0069,1.0249,1.0411,1.0496,1.0496,1.0496,1.0326,0.0,0.6326,0.6624,0.6747,0.6432,0.5994,0.5678,0.4962,0.0,0.4402,0.4402,0.4489,0.4807,0.5124,0.5353,0.544,0.5927,0.6472,0.7013,0.7896,0.8918,1.0047,1.0681,1.1136,1.1395,1.1951,1.2271,1.2271,1.2004,1.1873,1.1873,1.1577,1.1382,1.1362,1.1683,1.1886,1.1906,1.1906,1.1644,1.1156,1.1896,1.1631,1.048,1.1127,1.1053,1.0461,0.9703,0.9294,0.9052,0.8415,0.8156,0.8188,0.8608,0.8415,0.7934,0.8425,0.8587,0.8587,0.8522,0.8952,0.9516,0.9516,0.9516,0.9516,0.9516,0.9516,0.9516,0.9516,0.9516,0.9516,0.9516,0.9516,0.9516,0.9516,0.9516,0.9516,0.9516,0.9516,0.9438,0.9179,0.9125,0.9047,0.8776,0.8734,0.8644,0.8357,0.8321,0.8219,0.7961,0.7931,0.7919,0.7907,0.7919,0.7919,0.7901,0.8289,0.8705,0.908,0.9106,0.9133,0.9159,0.9159,0.9159,0.9211,0.9211,0.9387,0.9762,1.0198,1.0419,1.0419,1.0419,1.0427,0.4785,0.0,0.5412,0.4855,0.4764,0.4796,0.0,0.4395,0.4147,0.4355,0.4402,0.4629,0.5355,0.5548,0.5905,0.6827,0.711,0.739,0.8,0.8844,0.9726,1.0675,1.1102,1.1436,1.1737,1.1926,1.2007,1.2007,1.1697,1.153,1.153,1.1429,1.1323,1.1102,1.1376,1.1637,1.1899,1.1906,1.1832,1.1719,1.1899,1.1592,1.0866,1.122,1.1116,1.0565,1.0397,1.0168,0.9977,0.9811,0.9652,0.9524,0.9652,0.9594,0.9466,0.9594,0.96,0.9408,0.8839,0.9011,0.9516,0.9516,0.9516,0.9516,0.9516,0.9516,0.9516,0.9516,0.9516,0.9516,0.9516,0.9516,0.9516,0.9516,0.9516,0.9516,0.9516,0.9516,0.9498,0.9426,0.9414,0.933,0.9053,0.9005,0.8915,0.8656,0.8614,0.8524,0.8231,0.8201,0.8123,0.7925,0.8081,0.8117,0.7919,0.8008,0.8109,0.8189,0.8215,0.8368,0.8732,0.8732,0.889,0.9185,0.9211,0.9283,0.9484,0.9595,0.9655,0.9655,0.9655,0.9734,0.4444,0.4821,0.5118,0.4775,0.4713,0.4761,0.4919,0.4499,0.4157,0.44,0.0,0.4847,0.5414,0.5749,0.6184,0.6961,0.731,0.7792,0.8651,0.9299,1.0013,1.0889,1.1129,1.1343,1.1637,1.1663,1.1663,1.1663,1.139,1.1229,1.1229,1.1102,1.0955,1.0827,1.1209,1.1436,1.1504,1.1597,1.173,1.1906,1.173,1.157,1.1424,1.1283,1.1056,1.0787,1.0646,1.053,1.0428,1.0428,1.0371,1.0269,1.0174,1.0142,1.0149,1.0015,0.9951,0.9824,0.9428,0.9434,0.9644,0.9644,0.9644,0.9644,0.9644,0.9644,0.9612,0.9516,0.9516,0.9516,0.9516,0.9516,0.9516,0.9516,0.9516,0.9516,0.9516,0.9516,0.9516,0.9516,0.9516,0.9468,0.9318,0.9287,0.9197,0.8927,0.8884,0.8794,0.853,0.8493,0.8439,0.8273,0.8381,0.8439,0.8273,0.8255,0.8159,0.7919,0.7901,0.8062,0.8395,0.8421,0.8553,0.8817,0.9001,0.9133,0.9211,0.9413,0.9563,0.9734,0.9734,0.9854,0.4691,0.5039,0.5436,0.5419,0.5304,0.5269,0.5541,0.0,0.0,0.0,0.0,0.5205,0.5527,0.5994,0.6451,0.6841,0.7358,0.807,0.9184,0.9593,1.004,1.0835,1.0969,1.1089,1.1336,1.1329,1.1329,1.1329,1.1089,1.0929,1.0929,1.0727,1.0593,1.0593,1.1082,1.1223,1.0929,1.1263,1.153,1.1772,1.1476,1.147,1.1692,1.1202,1.0969,1.0915,1.07,1.0593,1.0593,1.0593,1.0593,1.0593,1.0396,1.0333,1.0339,1.0142,1.0079,1.0047,1.0015,0.9926,0.983,0.983,0.983,0.983,0.983,0.983,0.9804,0.9606,0.9548,0.9516,0.9516,0.9516,0.9516,0.9516,0.9516,0.9516,0.9516,0.9516,0.9516,0.9516,0.9516,0.9516,0.9516,0.9516,0.9438,0.9197,0.9161,0.9065,0.88,0.8764,0.8752,0.871,0.874,0.8752,0.871,0.874,0.856,0.8051,0.7985,0.8024,0.8141,0.8141,0.8215,0.8374,0.8718,0.8923,0.8997,0.9327,0.9669,1.0012,1.0012,1.0192,0.5646,0.6144,0.6242,0.5303,0.5386,0.5675,0.5614,0.5224,0.0,0.0,0.0,0.0,0.0,0.6902,0.7197,0.8129,0.8452,0.8925,0.9824,1.002,1.0194,1.0613,1.0842,1.1009,1.1056,1.1056,1.1056,1.1056,1.0821,1.066,1.066,1.062,1.0593,1.0593,1.0882,1.0922,1.066,1.1156,1.1323,1.1129,1.1082,1.0955,1.0801,1.0955,1.0894,1.066,1.0613,1.0593,1.0593,1.0593,1.0593,1.0593,1.0561,1.0561,1.0561,1.053,1.0403,1.0238,1.0047,0.9989,0.9958,0.9958,0.9958,0.9958,0.9958,0.9958,0.9958,0.9926,0.9734,0.9516,0.9516,0.9516,0.9516,0.9516,0.9516,0.9516,0.9516,0.9516,0.9516,0.9516,0.9516,0.9516,0.9516,0.9516,0.9498,0.9456,0.945,0.9354,0.9071,0.9041,0.8951,0.8728,0.8903,0.8945,0.8728,0.8909,0.8909,0.8608,0.8351,0.8163,0.7961,0.7955,0.8035,0.8221,0.8295,0.8549,0.8986,0.9068,0.9269,0.959,0.959,0.989,0.5455,0.6225,0.679,0.6264,0.6763,0.7315,0.7145,0.6852,0.0,0.0,0.0,0.0,0.0,0.7645,0.8006,0.8899,0.9248,0.9586,1.019,1.0272,1.0411,1.0804,1.0866,1.0916,1.1044,1.089,1.0826,1.0884,1.0698,1.0593,1.0593,1.0593,1.0593,1.0593,1.0874,1.0888,1.0593,1.0982,1.1129,1.0989,1.0835,1.0807,1.0827,1.0801,1.072,1.0593,1.0593,1.0593,1.0593,1.0593,1.0593,1.0593,1.0593,1.0593,1.0593,1.0593,1.053,1.0434,1.0238,1.0149,1.0149,1.0149,1.0149,1.0149,1.0149,1.0149,1.0142,1.0015,0.9888,0.9766,0.9766,0.9766,0.9766,0.9676,0.9676,0.9644,0.9516,0.9516,0.9516,0.9516,0.9516,0.9516,0.9516,0.9516,0.9516,0.9516,0.958,0.9564,0.9342,0.9418,0.94,0.9155,0.9251,0.9275,0.9155,0.9251,0.9149,0.8734,0.8683,0.8618,0.8496,0.8552,0.8642,0.8727,0.8804,0.898,0.9229,0.9315,0.9517,0.9831,0.9831,1.008,0.5351,0.6238,0.7148,0.7353,0.7955,0.8517,0.8488,0.8186,0.787,0.0,0.0,0.0,0.0,0.8372,0.8784,0.9453,0.9782,1.0093,1.0508,1.0557,1.0708,1.1062,1.0965,1.0933,1.109,1.087,1.0744,1.0807,1.0713,1.0618,1.0593,1.0593,1.0593,1.0593,1.0807,1.0814,1.0593,1.0814,1.0928,1.0889,1.07,1.0707,1.0882,1.0693,1.0593,1.0593,1.0593,1.0593,1.0593,1.0593,1.0593,1.0593,1.0593,1.0593,1.0593,1.0593,1.0593,1.0593,1.0434,1.0371,1.0371,1.0371,1.0371,1.0371,1.0371,1.0371,1.0339,1.0174,1.0142,1.011,1.0015,0.9983,0.9983,0.9862,0.9836,0.9798,0.9638,0.958,0.958,0.958,0.9548,0.9516,0.9516,0.9516,0.9516,0.9516,0.9644,0.9676,0.958,0.9708,0.974,0.9644,0.9606,0.9606,0.9606,0.9606,0.943,0.9011,0.9009,0.9006,0.8944,0.9038,0.9103,0.9162,0.9243,0.9363,0.9522,0.9669,0.9903,1.0221,1.0221,1.0341,0.6092,0.6699,0.7295,0.8101,0.8137,0.8098,0.8644,0.8122,0.7704,0.8309,0.0,0.0,0.8851,0.9134,0.9484,0.9967,1.0057,1.0309,1.0971,1.1062,1.1069,1.109,1.109,1.109,1.109,1.109,1.0996,1.0807,1.08,1.0744,1.0624,1.0593,1.0593,1.0593,1.0613,1.0613,1.0593,1.0613,1.0626,1.0626,1.06,1.06,1.062,1.06,1.0593,1.0593,1.0593,1.0593,1.0593,1.0593,1.0593,1.0593,1.0593,1.0593,1.0593,1.0593,1.0593,1.0593,1.0593,1.0593,1.0593,1.0593,1.0593,1.0593,1.0593,1.0593,1.0593,1.0561,1.0561,1.0466,1.011,0.9983,0.9983,0.9989,0.9989,0.9983,0.9951,0.9862,0.9772,0.9772,0.9612,0.9516,0.9516,0.9516,0.9516,0.9516,0.9516,0.958,0.9772,0.9804,0.9836,0.9951,0.9951,0.9951,0.9881,0.9881,0.9862,0.9819,0.9364,0.8987,0.8745,0.8739,0.8827,0.9003,0.9032,0.9305,0.9851,0.9882,1.0124,1.0559,1.0559,1.0573,0.5506,0.6521,0.7554,0.7876,0.8687,0.0,0.0,0.9761,0.9928,0.9984,0.9951,0.0,0.9716,1.0038,1.0324,1.0251,1.069,1.1093,1.1214,1.1216,1.1279,1.1404,1.131,1.1279,1.1404,1.1122,1.0965,1.1083,1.0926,1.0776,1.0713,1.0713,1.0688,1.0593,1.0593,1.0593,1.0593,1.0593,1.0593,1.0593,1.0593,1.0593,1.0593,1.0593,1.0593,1.0593,1.0593,1.0593,1.0593,1.0593,1.0593,1.0593,1.0593,1.0593,1.0593,1.0593,1.0593,1.0593,1.0593,1.0593,1.0593,1.0593,1.0593,1.0593,1.0593,1.0593,1.0593,1.0593,1.0593,1.0561,1.0396,1.0371,1.0339,1.0212,1.0276,1.0301,1.0047,0.9958,0.9926,0.9926,0.9862,0.9798,0.9798,0.9734,0.9676,0.9676,0.9676,0.9708,0.9804,0.9862,0.9926,0.9945,0.9983,0.9983,0.9951,0.9951,0.9951,0.9951,0.9718,0.9587,0.9519,0.9513,0.9544,0.9605,0.976,0.991,1.0145,1.0269,1.0423,1.0593,1.0593,1.0593,0.5322,0.6394,0.7574,0.7846,0.0,0.0,1.0501,1.0901,1.117,1.0999,1.0955,1.0879,1.0621,1.06,1.0641,1.0552,1.1063,1.1443,1.1384,1.1404,1.1466,1.1591,1.1466,1.1466,1.1591,1.1279,1.1122,1.1279,1.109,1.0933,1.0902,1.0839,1.0776,1.0688,1.0624,1.0593,1.0593,1.0593,1.0593,1.0593,1.0593,1.0593,1.0593,1.0593,1.0593,1.0593,1.0593,1.0593,1.0593,1.0593,1.0593,1.0593,1.0593,1.0593,1.0593,1.0593,1.0593,1.0593,1.0593,1.0593,1.0593,1.0593,1.0593,1.0593,1.0593,1.0593,1.0593,1.0593,1.0593,1.0593,1.0593,1.0593,1.0561,1.0434,1.0498,1.053,1.0244,1.018,1.0174,1.011,1.0047,0.9983,0.9983,0.9894,0.983,0.983,0.9766,0.9708,0.9708,0.9894,1.0047,1.0104,1.0174,1.018,1.018,1.018,1.018,1.018,1.0142,1.011,1.0047,1.0015,0.9983,0.9983,1.0142,1.0238,1.0301,1.0428,1.053,1.0593,1.0593,1.0593,0.5803,0.6448,0.7314,0.8189,0.0,0.0,1.1301,1.118,1.0864,1.1072,1.1121,1.1226,1.1559,1.0803,1.0344,1.0997,1.1137,1.1217,1.1547,1.1622,1.1622,1.1591,1.1591,1.1591,1.1591,1.1591,1.1529,1.1334,1.1303,1.1247,1.1122,1.0902,1.0807,1.0807,1.0681,1.0593,1.0593,1.0593,1.0593,1.0593,1.0593,1.0593,1.0593,1.0593,1.0593,1.0593,1.0593,1.0593,1.0593,1.0593,1.0593,1.0593,1.0593,1.0593,1.0593,1.0593,1.0593,1.0593,1.0593,1.0593,1.0593,1.0593,1.0593,1.0593,1.0593,1.0593,1.0593,1.0593,1.0593,1.0593,1.0593,1.0593,1.0593,1.0593,1.0593,1.0593,1.0593,1.0593,1.053,1.0339,1.0142,1.0015,1.0015,0.9945,0.9913,0.9913,0.9664,0.9516,0.9516,0.9798,1.0149,1.0561,1.0593,1.0593,1.0593,1.0593,1.0593,1.0593,1.0593,1.0491,1.0199,1.0079,1.0015,1.0015,1.0015,1.011,1.0301,1.0301,1.0396,1.0593,1.0593,1.0593,0.5803,0.6878,0.815,0.8682,0.0,0.0,0.0,1.1633,0.0,0.0,1.2507,1.2476,1.2557,1.2102,1.1872,1.2369,1.2393,1.2346,1.2258,1.2243,1.2066,1.1654,1.1591,1.1591,1.1591,1.1466,1.1435,1.1498,1.1365,1.1272,1.1247,1.1178,1.1122,1.0996,1.0839,1.0744,1.0744,1.0656,1.0593,1.0593,1.0593,1.0593,1.0593,1.0593,1.0593,1.0593,1.0593,1.0593,1.0593,1.0593,1.0593,1.0593,1.0593,1.0593,1.0593,1.0593,1.0593,1.0593,1.0593,1.0593,1.0593,1.0593,1.0593,1.0593,1.0593,1.0593,1.0593,1.0593,1.0593,1.0593,1.0593,1.0593,1.0593,1.0593,1.0593,1.0593,1.0593,1.0593,1.0593,1.053,1.0466,1.0434,1.0434,1.0396,1.0396,1.0396,1.0079,0.9862,0.9862,1.018,1.0466,1.0593,1.0593,1.0593,1.0593,1.0593,1.0593,1.0593,1.0593,1.0561,1.0491,1.0428,1.0434,1.0434,1.0434,1.0466,1.0498,1.0498,1.053,1.0593,1.0593,1.0593,0.6577,0.7654,0.8865,0.9643,1.091,1.196,1.1992,0.0,0.0,0.0,1.3468,1.3451,1.3573,1.3061,1.276,1.3138,1.3168,1.3076,1.2915,1.2917,1.2673,1.2035,1.195,1.1856,1.1622,1.1498,1.1466,1.1591,1.1498,1.1435,1.1435,1.1341,1.1272,1.1185,1.0996,1.0933,1.0933,1.0839,1.0744,1.0681,1.0681,1.0649,1.0593,1.0593,1.0593,1.0593,1.0593,1.0593,1.0593,1.0593,1.0593,1.0593,1.0593,1.0593,1.0593,1.0593,1.0593,1.0593,1.0593,1.0593,1.0593,1.0593,1.0593,1.0593,1.0593,1.0593,1.0593,1.0593,1.0593,1.0593,1.0593,1.0593,1.0593,1.0593,1.0593,1.0593,1.0593,1.0593,1.0593,1.0593,1.0593,1.0593,1.0593,1.0593,1.0593,1.0593,1.0403,1.0238,1.0238,1.0466,1.0593,1.0593,1.0593,1.0593,1.0593,1.0593,1.0593,1.0593,1.0593,1.0593,1.0593,1.0593,1.0593,1.0593,1.0593,1.0593,1.0593,1.0593,1.0593,1.0593,1.0593,1.0593,0.7683,0.8498,0.942,1.0746,1.1405,1.1939,1.2719,1.3112,1.3483,1.3987,1.4088,1.4193,1.4514,1.3787,1.3246,1.3601,1.3623,1.3593,1.3593,1.3541,1.326,1.2573,1.2451,1.2182,1.1654,1.1591,1.1591,1.1591,1.1591,1.1591,1.1591,1.1435,1.1334,1.1334,1.1185,1.1122,1.1122,1.1122,1.0996,1.0839,1.0839,1.0776,1.0656,1.0624,1.0593,1.0593,1.0593,1.0593,1.0593,1.0593,1.0593,1.0593,1.0593,1.0593,1.0593,1.0593,1.0593,1.0593,1.0593,1.0593,1.0593,1.0593,1.0593,1.0593,1.0593,1.0593,1.0593,1.0593,1.0593,1.0593,1.0593,1.0593,1.0593,1.0593,1.0593,1.0593,1.0593,1.0593,1.0593,1.0593,1.0593,1.0593,1.0593,1.0593,1.0593,1.0593,1.0593,1.0593,1.0593,1.0593,1.0593,1.0593,1.0593,1.0593,1.0593,1.0593,1.0593,1.0593,1.0593,1.0593,1.0593,1.0593,1.0593,1.0593,1.0593,1.0593,1.0593,1.0593,1.0593,1.0593,1.0593,1.0593,0.723,0.8223,0.0,1.0626,1.178,1.267,1.2856,1.3196,1.3574,1.4009,1.4363,1.4743,1.5129,1.4632,1.4368,1.4894,1.4588,1.4291,1.4291,1.3833,1.326,1.2573,1.2066,1.174,1.1622,1.1591,1.1591,1.1591,1.1591,1.1591,1.1591,1.156,1.1529,1.1529,1.1341,1.1272,1.1272,1.1153,1.109,1.1028,1.1028,1.1028,1.0965,1.0719,1.0593,1.0593,1.0593,1.0593,1.0593,1.0593,1.0593,1.0593,1.0593,1.0593,1.0593,1.0593,1.0593,1.0593,1.0593,1.0593,1.0593,1.0593,1.0593,1.0593,1.0593,1.0593,1.0593,1.0593,1.0593,1.0593,1.0593,1.0593,1.0593,1.0593,1.0593,1.0593,1.0593,1.0593,1.0593,1.0593,1.0593,1.0593,1.0593,1.0593,1.0593,1.0593,1.0593,1.0593,1.0593,1.0593,1.0593,1.0593,1.0593,1.0593,1.0593,1.0593,1.0593,1.0593,1.0593,1.0593,1.0593,1.0593,1.0593,1.0593,1.0593,1.0593,1.0593,1.0593,1.0593,1.0593,1.0593,1.0593,0.7793,0.0,0.0,1.1604,0.0,1.2905,1.2905,1.3047,1.333,1.3724,1.4346,1.4853,1.5068,1.5013,1.503,1.5352,1.5147,1.4942,1.4942,1.4638,1.4154,1.3515,1.3191,1.2864,1.2536,1.2505,1.2505,1.2505,1.2505,1.2505,1.2505,1.2228,1.2035,1.2035,1.1646,1.1428,1.1428,1.1373,1.1279,1.1216,1.1216,1.1153,1.109,1.0807,1.0713,1.0681,1.0624,1.0593,1.0593,1.0593,1.0593,1.0593,1.0593,1.0593,1.0593,1.0593,1.0593,1.0593,1.0593,1.0593,1.0593,1.0593,1.0593,1.0593,1.0593,1.0593,1.0593,1.0593,1.0593,1.0593,1.0593,1.0593,1.0593,1.0593,1.0593,1.0593,1.0593,1.0593,1.0593,1.0593,1.0593,1.0593,1.0593,1.0593,1.0593,1.0593,1.0593,1.0593,1.0593,1.0593,1.0593,1.0593,1.0593,1.0593,1.0593,1.0593,1.0593,1.0593,1.0593,1.0593,1.0593,1.0593,1.0593,1.0593,1.0593,1.0593,1.0593,1.0593,1.0593,1.0593,1.0593,1.0593,0.8244,0.0,1.0935,1.2563,1.2953,0.0,1.2905,1.2905,1.3003,1.333,1.4023,1.459,1.4658,1.4961,1.5195,1.5195,1.5225,1.5303,1.5303,1.5274,1.5059,1.4558,1.441,1.4112,1.3532,1.3511,1.3511,1.3511,1.3511,1.3511,1.3511,1.2848,1.2512,1.2512,1.1919,1.1591,1.1591,1.1591,1.1529,1.1334,1.1334,1.1279,1.1185,1.0996,1.0863,1.0839,1.0713,1.0688,1.0618,1.0618,1.0624,1.0593,1.0593,1.0593,1.0593,1.0593,1.0593,1.0593,1.0593,1.0593,1.0593,1.0593,1.0593,1.0593,1.0593,1.0593,1.0593,1.0593,1.0593,1.0593,1.0593,1.0593,1.0593,1.0593,1.0593,1.0593,1.0593,1.0593,1.0593,1.0593,1.0593,1.0593,1.0593,1.0593,1.0593,1.0593,1.0593,1.0593,1.0593,1.0593,1.0593,1.0593,1.0593,1.0593,1.0593,1.0593,1.0593,1.0593,1.0593,1.0593,1.0593,1.0593,1.0593,1.0593,1.0593,1.0593,1.0593,1.0593,1.0593,1.0593,1.0593,1.0593,0.7022,0.0,1.0685,0.0,1.2703,1.2905,0.0,0.0,1.2925,1.2983,1.334,1.3789,1.4124,1.4241,1.428,1.428,1.4619,1.4873,1.4873,1.4724,1.4588,1.4499,1.3992,1.3601,1.3511,1.3511,1.3511,1.3511,1.3511,1.3511,1.3511,1.2848,1.2512,1.2512,1.1919,1.1591,1.1591,1.1591,1.1591,1.156,1.156,1.156,1.1529,1.131,1.1185,1.1059,1.1028,1.0933,1.0776,1.0776,1.0713,1.0593,1.0593,1.0593,1.0593,1.0593,1.0593,1.0593,1.0593,1.0593,1.0593,1.0593,1.0593,1.0593,1.0593,1.0593,1.0593,1.0593,1.0593,1.0593,1.0593,1.0593,1.0593,1.0593,1.0593,1.0593,1.0593,1.0593,1.0593,1.0593,1.0593,1.0593,1.0593,1.0593,1.0593,1.0593,1.0593,1.0593,1.0593,1.0593,1.0593,1.0593,1.0593,1.0593,1.0593,1.0593,1.0593,1.0593,1.0593,1.0593,1.0593,1.0593,1.0593,1.0593,1.0593,1.0593,1.0593,1.0593,1.0593,1.0593,1.0593,1.0593,0.7973,0.92,1.0516,0.0,1.2616,1.2778,1.2977,1.3041,1.3055,1.3027,1.315,1.3391,1.3701,1.3948,1.4104,1.4104,1.427,1.4424,1.4424,1.4331,1.4364,1.463,1.4419,1.4309,1.4531,1.4549,1.4549,1.4549,1.4549,1.4549,1.4549,1.3974,1.3463,1.307,1.2428,1.195,1.1591,1.1591,1.1591,1.1591,1.1591,1.1591,1.1591,1.1498,1.1373,1.1216,1.1122,1.1059,1.0965,1.0965,1.0933,1.087,1.0744,1.0713,1.0713,1.0624,1.0593,1.0593,1.0593,1.0593,1.0593,1.0593,1.0593,1.0593,1.0593,1.0593,1.0593,1.0593,1.0593,1.0593,1.0593,1.0593,1.0593,1.0593,1.0593,1.0593,1.0593,1.0593,1.0593,1.0593,1.0593,1.0593,1.0593,1.0593,1.0593,1.0593,1.0593,1.0593,1.0593,1.0593,1.0593,1.0593,1.0593,1.0593,1.0593,1.0593,1.0593,1.0593,1.0593,1.0593,1.0593,1.0593,1.0593,1.0593,1.0593,1.0593,1.0593,1.0593,1.0593,1.0593,1.0593,1.0593,0.0,0.0,0.9864,1.1529,1.2192,1.2518,0.0,0.0,1.318,1.3123,1.3109,1.315,1.3316,1.3578,1.3792,1.3792,1.388,1.3948,1.3948,1.4036,1.4221,1.458,1.4717,1.4912,1.5225,1.5254,1.5254,1.5254,1.5156,1.5059,1.5059,1.4514,1.3979,1.3595,1.2929,1.2432,1.2081,1.2081,1.2081,1.2081,1.1926,1.1825,1.1833,1.1685,1.1529,1.1373,1.1279,1.1185,1.1153,1.1153,1.1122,1.109,1.0933,1.087,1.0807,1.0719,1.0624,1.0593,1.0593,1.0593,1.0593,1.0593,1.0593,1.0593,1.0593,1.0593,1.0593,1.0593,1.0593,1.0593,1.0593,1.0593,1.0593,1.0593,1.0593,1.0593,1.0593,1.0593,1.0593,1.0593,1.0593,1.0593,1.0593,1.0593,1.0593,1.0593,1.0593,1.0593,1.0593,1.0593,1.0593,1.0593,1.0593,1.0593,1.0593,1.0593,1.0593,1.0593,1.0593,1.0593,1.0593,1.0593,1.0593,1.0593,1.0593,1.0593,1.0593,1.0593,1.0593,1.0593,1.0593,1.0593,0.0,0.7563,0.0,0.979,1.1035,1.2047,0.0,1.2913,1.318,1.3123,1.3109,1.3061,1.2959,1.2954,1.2964,1.2964,1.3281,1.3545,1.3545,1.386,1.4114,1.4133,1.4531,1.4795,1.4842,1.4814,1.4814,1.4814,1.4406,1.4172,1.4172,1.3605,1.3423,1.3768,1.3212,1.3033,1.3411,1.339,1.339,1.339,1.2757,1.2451,1.242,1.1864,1.1591,1.1591,1.1591,1.1466,1.1279,1.1279,1.1209,1.109,1.109,1.1003,1.0877,1.0877,1.0751,1.0593,1.0593,1.0593,1.0593,1.0593,1.0593,1.0593,1.0593,1.0593,1.0593,1.0593,1.0593,1.0593,1.0593,1.0593,1.0593,1.0593,1.0593,1.0593,1.0593,1.0593,1.0593,1.0593,1.0593,1.0593,1.0593,1.0593,1.0593,1.0593,1.0593,1.0593,1.0593,1.0593,1.0593,1.0593,1.0593,1.0593,1.0593,1.0593,1.0593,1.0593,1.0593,1.0593,1.0593,1.0593,1.0593,1.0593,1.0593,1.0593,1.0593,1.0593,1.0593,1.0593,1.0593,1.0593,0.0,0.0,0.0,0.8831,0.9986,1.092,1.1287,1.2223,1.2968,1.2822,1.2986,1.3104,1.292,1.2905,1.2905,1.2905,1.3032,1.3105,1.3105,1.3232,1.3428,1.3675,1.3867,1.4072,1.4346,1.4338,1.4338,1.4338,1.4192,1.4104,1.4104,1.389,1.3659,1.3424,1.3211,1.3088,1.3122,1.3122,1.3241,1.3511,1.326,1.313,1.313,1.2458,1.2189,1.2158,1.1771,1.156,1.1498,1.1498,1.1466,1.1404,1.124,1.1139,1.1052,1.0814,1.0656,1.0593,1.0593,1.0593,1.0593,1.0593,1.0593,1.0593,1.0593,1.0593,1.0593,1.0593,1.0593,1.0593,1.0593,1.0593,1.0593,1.0593,1.0593,1.0593,1.0593,1.0593,1.0593,1.0593,1.0593,1.0593,1.0593,1.0593,1.0593,1.0593,1.0593,1.0593,1.0593,1.0593,1.0593,1.0593,1.1263,1.1677,1.1677,1.1677,1.139,1.064,1.0593,1.0593,1.0593,1.0593,1.0593,1.0593,1.0593,1.0593,1.0593,1.0593,1.0593,1.0593,1.0593,1.0593,0.652,0.0,0.0,0.0,0.9034,0.9788,1.0774,1.1634,1.2302,1.2617,1.2885,1.3047,1.3001,1.2968,1.2954,1.2905,1.2905,1.2905,1.2905,1.2905,1.3013,1.3262,1.3418,1.3588,1.387,1.3899,1.3899,1.3899,1.3763,1.3685,1.3685,1.3685,1.357,1.3307,1.3438,1.3516,1.355,1.3531,1.3747,1.4133,1.3923,1.3842,1.3803,1.313,1.2856,1.2787,1.2158,1.1802,1.1591,1.1591,1.1591,1.1591,1.1397,1.1327,1.1296,1.1028,1.094,1.094,1.094,1.094,1.0902,1.0688,1.0593,1.0593,1.0593,1.0593,1.0593,1.0593,1.0593,1.0593,1.0593,1.0593,1.0593,1.0593,1.0593,1.0593,1.0593,1.0593,1.0593,1.0593,1.0593,1.0593,1.0593,1.0593,1.0593,1.0593,1.0593,1.0593,1.0593,1.0593,1.0593,1.0593,1.1603,1.2305,1.2305,1.2305,1.1804,1.0667,1.0593,1.0593,1.0593,1.0593,1.0593,1.0593,1.0593,1.0593,1.0593,1.0593,1.0593,1.0593,1.0593,1.0593,0.0,0.0,0.0,0.0,0.0,0.0,1.0988,1.1147,1.1211,1.2474,1.2761,1.2858,1.3141,1.3142,1.3061,1.2929,1.2905,1.2905,1.2905,1.2905,1.2905,1.2905,1.3242,1.3486,1.3486,1.3486,1.3486,1.3486,1.3105,1.2905,1.2905,1.2905,1.3066,1.3477,1.386,1.428,1.4774,1.4746,1.4971,1.5391,1.4776,1.4519,1.4499,1.3833,1.3541,1.3472,1.2818,1.2182,1.1654,1.1622,1.1591,1.1591,1.1591,1.1591,1.1591,1.1591,1.1591,1.1591,1.1591,1.1591,1.1498,1.0839,1.0624,1.0593,1.0593,1.0593,1.0593,1.0593,1.0593,1.0593,1.0593,1.0624,1.0624,1.0624,1.0624,1.0593,1.0593,1.0593,1.0593,1.0593,1.0593,1.0593,1.0593,1.0593,1.0593,1.0593,1.0593,1.0593,1.0593,1.0593,1.0593,1.0593,1.1603,1.2305,1.2305,1.2305,1.1804,1.0667,1.0593,1.0593,1.0593,1.0593,1.0593,1.0593,1.0593,1.0593,1.0593,1.0593,1.0593,1.0593,1.0593,1.0593,0.6268,0.0,0.0,0.0,0.0,0.0,0.8638,0.9156,0.9798,1.1042,1.1562,1.1978,1.2645,1.2979,1.3156,1.3132,1.2983,1.2905,1.2905,1.2905,1.2905,1.2905,1.3013,1.3081,1.3081,1.3081,1.3081,1.3081,1.2949,1.2905,1.2905,1.2905,1.2954,1.3047,1.3164,1.3428,1.3857,1.3857,1.4228,1.4961,1.4791,1.4859,1.5118,1.4499,1.4231,1.4201,1.3502,1.3139,1.2903,1.1988,1.1591,1.1591,1.1591,1.1591,1.1591,1.1591,1.1591,1.1591,1.1591,1.1591,1.156,1.1373,1.0996,1.0593,1.0593,1.0593,1.0593,1.0593,1.0593,1.0593,1.0593,1.0972,1.131,1.131,1.0933,1.0593,1.0593,1.0593,1.0593,1.0593,1.0593,1.0593,1.0593,1.0593,1.0593,1.0593,1.0593,1.0593,1.0593,1.0593,1.0593,1.0593,1.1603,1.2305,1.2305,1.2305,1.1804,1.0667,1.0593,1.0593,1.0593,1.0593,1.0593,1.0593,1.0593,1.0593,1.0593,1.0593,1.0593,1.0593,1.0593,1.0593,0.7061,0.7053,0.0,0.7245,0.0,0.0,0.8436,0.852,0.873,1.0182,1.0867,1.1399,1.2061,1.2495,1.2804,1.2986,1.2882,1.2819,1.2958,1.2978,1.2954,1.2905,1.2905,1.2905,1.2905,1.2905,1.2905,1.2905,1.2905,1.2905,1.2905,1.2905,1.2905,1.2905,1.2905,1.3076,1.3506,1.3506,1.3848,1.4512,1.4697,1.4912,1.5128,1.4954,1.4883,1.4854,1.4201,1.3932,1.3842,1.2803,1.2081,1.1591,1.1591,1.1591,1.1591,1.1591,1.1591,1.1591,1.1591,1.1591,1.1591,1.1591,1.1341,1.1028,1.1028,1.1028,1.1028,1.1028,1.1028,1.1028,1.1028,1.131,1.1591,1.1591,1.131,1.1028,1.1028,1.1028,1.094,1.0656,1.0593,1.0593,1.0593,1.0593,1.0593,1.0593,1.0593,1.0767,1.1256,1.0894,1.0593,1.0593,1.1603,1.2305,1.2305,1.2305,1.1804,1.0667,1.0593,1.0593,1.0593,1.0593,1.0593,1.0593,1.0593,1.0593,1.0593,1.0593,1.0593,1.0593,1.0593,1.0593,0.8156,0.8039,0.0,0.882,0.7996,0.0,0.9382,0.8648,0.8042,0.9684,1.0329,1.0774,1.127,1.1655,1.2044,1.2505,1.2566,1.2682,1.3054,1.3099,1.3051,1.2929,1.2929,1.2929,1.2905,1.2905,1.2905,1.2905,1.2905,1.2905,1.2905,1.2905,1.2905,1.2905,1.2905,1.3057,1.3437,1.3437,1.3652,1.4046,1.4453,1.4668,1.4727,1.5146,1.5342,1.5313,1.4805,1.4588,1.4558,1.3962,1.2956,1.1809,1.1654,1.1591,1.1591,1.1591,1.1591,1.1591,1.1591,1.1591,1.1591,1.1591,1.1591,1.1591,1.1591,1.1591,1.1591,1.1591,1.1591,1.1591,1.1591,1.1591,1.1591,1.1591,1.1591,1.1591,1.1591,1.1591,1.1404,1.0846,1.0656,1.0593,1.0593,1.0593,1.0593,1.0593,1.07,1.1162,1.2171,1.1316,1.0593,1.0593,1.1524,1.2158,1.2291,1.2184,1.167,1.066,1.0593,1.0593,1.0593,1.0593,1.0593,1.0593,1.0593,1.0593,1.0593,1.0593,1.0593,1.0593,1.0593,1.0593,0.9752,1.0137,1.0504,0.91,0.9287,0.0,0.8734,0.8301,0.8227,0.8803,0.8818,0.8973,0.9774,1.0265,1.0728,1.1181,1.1892,1.2546,1.3083,1.318,1.3142,1.3075,1.3061,1.3027,1.2905,1.2905,1.2905,1.2905,1.2905,1.2905,1.2905,1.2905,1.2905,1.2905,1.2905,1.2944,1.3023,1.3023,1.3213,1.3633,1.3721,1.3936,1.425,1.4707,1.4902,1.4922,1.5119,1.5206,1.5206,1.5089,1.4282,1.3025,1.1988,1.1591,1.1591,1.1591,1.1591,1.1591,1.1591,1.1591,1.1591,1.1591,1.1591,1.1591,1.1591,1.1591,1.1591,1.1591,1.1591,1.1591,1.1591,1.1591,1.1591,1.1591,1.1591,1.1591,1.1591,1.1591,1.156,1.1435,1.0965,1.0593,1.0593,1.0593,1.0593,1.0593,1.139,1.2044,1.2271,1.1316,1.0593,1.0593,1.0794,1.1316,1.2225,1.1477,1.0834,1.0606,1.0593,1.0593,1.0593,1.0593,1.0593,1.0593,1.0593,1.0593,1.0593,1.0593,1.0593,1.0593,1.0593,1.0593,1.1048,1.1161,1.142,1.0726,1.0544,0.0,0.0,0.9369,0.8882,0.955,0.9195,0.8976,0.9719,1.0046,1.0345,1.0809,1.1658,1.2278,1.2392,1.2911,1.3252,1.3176,1.3152,1.3104,1.3002,1.3002,1.2978,1.2905,1.2905,1.2905,1.2905,1.2905,1.2905,1.2905,1.2905,1.2905,1.2905,1.2905,1.2988,1.3203,1.3408,1.3613,1.3812,1.4241,1.458,1.4795,1.501,1.5215,1.541,1.541,1.5021,1.4341,1.3411,1.265,1.2035,1.2035,1.1864,1.1591,1.1591,1.1591,1.1591,1.1591,1.1591,1.1591,1.1591,1.1591,1.1591,1.1591,1.1591,1.1895,1.3161,1.2558,1.1591,1.1591,1.1591,1.1591,1.1591,1.1591,1.1591,1.1591,1.1341,1.0996,1.0656,1.0593,1.0593,1.0593,1.1089,1.1436,1.1436,1.1464,1.1464,1.1464,1.1464,1.167,1.2251,1.1263,1.0593,1.0593,1.0593,1.0593,1.0593,1.0593,1.0593,1.0593,1.0593,1.0593,1.0593,1.0593,1.0593,1.0593,1.0593,1.0593,1.2508,1.2319,1.24,1.2366,1.1809,1.1307,0.0,0.0,0.0,1.0382,0.9825,0.9371,0.986,0.9888,0.9981,1.0435,1.1257,1.1673,1.1247,1.22,1.2884,1.2826,1.2906,1.2983,1.296,1.2901,1.2873,1.2895,1.2749,1.2729,1.2895,1.2905,1.2905,1.2905,1.2905,1.2905,1.2905,1.2905,1.2905,1.2905,1.3223,1.3389,1.3398,1.3792,1.4221,1.4668,1.4746,1.5029,1.541,1.541,1.541,1.5352,1.4736,1.3825,1.2879,1.2726,1.2343,1.184,1.1654,1.1591,1.1591,1.1591,1.1591,1.1685,1.2166,1.2343,1.2343,1.2343,1.2343,1.2803,1.4874,1.3876,1.2343,1.2343,1.1957,1.174,1.2228,1.2343,1.2197,1.1716,1.1591,1.1435,1.0877,1.0776,1.0776,1.0776,1.0688,1.0593,1.0593,1.1383,1.2051,1.2278,1.2305,1.2305,1.2305,1.1263,1.0593,1.0593,1.0593,1.0593,1.0593,1.0593,1.0593,1.0593,1.0593,1.0593,1.0593,1.0593,1.0593,1.0593,1.0593,1.0593,1.4683,1.4871,1.4754,1.2716,1.3108,1.3291,1.0804,0.0,1.047,0.9647,0.0,0.8973,0.9031,0.0,0.0,0.9051,0.9867,1.0264,0.9798,1.0572,1.1245,1.1407,1.1895,1.2301,1.2467,1.2158,1.22,1.2846,1.2171,1.2074,1.2866,1.2905,1.2905,1.2905,1.2905,1.2905,1.2905,1.2905,1.2905,1.2905,1.2954,1.2974,1.2993,1.3389,1.3782,1.4202,1.4619,1.5029,1.541,1.541,1.541,1.5352,1.4736,1.441,1.4192,1.3593,1.3117,1.2636,1.1872,1.1591,1.1591,1.1591,1.1591,1.2011,1.4273,1.4962,1.4962,1.4962,1.4962,1.505,1.5323,1.5206,1.4962,1.4962,1.3252,1.2228,1.4481,1.4962,1.4302,1.2042,1.1591,1.1591,1.1498,1.1498,1.1498,1.1498,1.0965,1.0593,1.0593,1.0707,1.1189,1.2191,1.2305,1.2305,1.2305,1.1263,1.0593,1.0593,1.0593,1.0593,1.0593,1.0593,1.0593,1.0593,1.0593,1.0593,1.0593,1.0593,1.0593,1.0593,1.0593,1.0593,1.5047,1.506,1.5001,1.4018,1.4014,1.3913,1.2663,1.2054,1.1751,1.1641,0.0,0.0,0.0,0.0,0.0,0.0,0.9746,0.9818,0.8875,0.9493,1.0256,1.0899,1.095,1.1135,1.1601,1.1252,1.1319,1.2096,1.1555,1.1562,1.2461,1.2744,1.2905,1.2905,1.2905,1.2905,1.2905,1.2905,1.2905,1.2905,1.2905,1.2905,1.2915,1.3066,1.3506,1.4114,1.4299,1.4785,1.541,1.541,1.541,1.5381,1.5118,1.4824,1.444,1.4022,1.3593,1.3086,1.1988,1.1591,1.1591,1.1591,1.1591,1.1802,1.2856,1.4243,1.541,1.541,1.541,1.541,1.541,1.541,1.541,1.541,1.4569,1.4085,1.5177,1.541,1.5079,1.3995,1.3786,1.3786,1.3786,1.2589,1.1591,1.1591,1.1373,1.1028,1.0656,1.0593,1.078,1.127,1.1323,1.1563,1.2245,1.1263,1.0593,1.0593,1.0593,1.0593,1.0593,1.0593,1.0593,1.0593,1.0593,1.0593,1.0593,1.0593,1.0593,1.0593,1.0593,1.0593,1.5449,1.5349,1.5254,1.4835,1.443,1.4038,1.3649,1.3029,1.262,1.2911,1.2042,0.0,0.0,0.0,0.0,0.0,0.0,0.9536,0.8369,0.8584,0.9153,0.9924,1.0006,1.0207,1.0706,1.0239,1.034,1.1384,1.0782,1.0928,1.2191,1.2529,1.2778,1.2905,1.2905,1.2905,1.2905,1.2905,1.2905,1.2905,1.2905,1.2905,1.2905,1.2905,1.334,1.4104,1.4104,1.4591,1.541,1.541,1.541,1.541,1.541,1.5118,1.4736,1.4529,1.4282,1.3893,1.2948,1.265,1.265,1.265,1.2166,1.174,1.2436,1.3936,1.541,1.541,1.541,1.541,1.541,1.541,1.541,1.541,1.541,1.541,1.541,1.541,1.541,1.541,1.541,1.5566,1.6045,1.4188,1.2508,1.2166,1.2127,1.1931,1.1471,1.1083,1.0905,1.1035,1.0787,1.1062,1.2204,1.1523,1.0935,1.0613,1.0593,1.0593,1.0593,1.0593,1.0593,1.0593,1.0593,1.0593,1.0593,1.0593,1.0754,1.1062,1.074,1.0593,1.645,1.645,1.6102,1.4683,1.4317,1.391,1.2484,1.2538,1.2746,1.2247,1.25,1.2548,1.1667,0.0,0.0,0.0,0.0,0.0,0.0,0.7828,0.7667,0.7958,0.9064,0.9812,0.9842,0.9121,0.9347,1.0994,0.9849,1.0038,1.2256,1.2269,1.2418,1.2895,1.2905,1.2905,1.2905,1.2905,1.2905,1.2905,1.2905,1.2905,1.2905,1.2905,1.334,1.4104,1.4104,1.4591,1.541,1.541,1.541,1.541,1.541,1.5381,1.5381,1.5352,1.5352,1.5323,1.5294,1.5294,1.5294,1.5294,1.3614,1.2042,1.454,1.5352,1.541,1.541,1.541,1.541,1.541,1.541,1.541,1.541,1.541,1.541,1.541,1.541,1.541,1.541,1.541,1.5947,1.7637,1.6461,1.486,1.362,1.3433,1.3433,1.3397,1.2336,1.1743,1.2197,1.127,1.1062,1.2204,1.2271,1.1764,1.0667,1.0593,1.0593,1.0593,1.0593,1.0593,1.0593,1.0593,1.0593,1.0593,1.0593,1.1176,1.2218,1.1122,1.0593,1.65,1.65,1.6303,1.5442,1.4963,1.4465,1.3613,1.3552,1.3539,1.2948,1.3083,1.3082,1.2357,0.0,0.0,0.0,0.0,0.0,0.0,0.0,0.6998,0.7087,0.7948,0.0,0.8104,0.8159,0.8655,0.9768,0.944,0.9999,1.1841,1.2194,1.2502,1.2895,1.2905,1.2905,1.2905,1.2905,1.2905,1.2905,1.2905,1.2905,1.2905,1.2905,1.3184,1.3714,1.3987,1.4436,1.5019,1.5293,1.541,1.541,1.541,1.541,1.541,1.541,1.541,1.541,1.541,1.541,1.541,1.541,1.4815,1.4273,1.5138,1.541,1.541,1.541,1.541,1.541,1.541,1.541,1.541,1.541,1.541,1.541,1.541,1.541,1.541,1.541,1.6338,1.7314,1.791,1.7519,1.658,1.4993,1.4029,1.3492,1.3492,1.3111,1.2938,1.3077,1.2742,1.2664,1.3047,1.2599,1.2138,1.1737,1.1022,1.0593,1.0593,1.0593,1.0593,1.0593,1.0593,1.0975,1.1717,1.1717,1.1917,1.2291,1.1897,1.1717,1.65,1.65,1.6362,1.5831,1.5449,1.4945,1.4094,1.4144,1.4186,1.3456,1.3508,1.3557,1.3053,0.0,0.0,0.0,0.0,0.0,0.0,0.7194,0.6909,0.6721,0.0,0.0,0.0,0.7481,0.7921,0.8937,0.8882,0.9549,1.1264,1.1866,1.2322,1.2708,1.2851,1.2905,1.2905,1.2905,1.2905,1.2905,1.2905,1.2905,1.2905,1.2905,1.3105,1.3525,1.3929,1.4385,1.4814,1.5234,1.541,1.541,1.541,1.541,1.541,1.541,1.541,1.541,1.541,1.541,1.541,1.541,1.541,1.541,1.541,1.541,1.541,1.541,1.541,1.541,1.541,1.541,1.541,1.541,1.541,1.541,1.541,1.541,1.5566,1.6211,1.7246,1.8008,1.8008,1.8008,1.7627,1.6504,1.5634,1.5081,1.5081,1.5081,1.5081,1.5081,1.5081,1.4661,1.3601,1.301,1.2716,1.2716,1.177,1.1216,1.1216,1.0814,1.0593,1.0593,1.1002,1.1584,1.2305,1.2305,1.2305,1.2305,1.2305,1.2879]}]]